[[{"header":{"parameterUnit":"m.s-1","parameterCategory":1,"la1":30.6,"la2":29.2853,"lo1":-89.7004,"lo2":-87.6739,"dy":0.0162,"dx":0.0183,"nx":112,"ny":82,"refTime":"2023-10-17T12:00:00:Z","depth":0,"parameterNumber":2,"parameterNumberName":"U-component_of_WINDS"},"data":[0.0,0.0,0.0,0.0,0.0,0.0,0.0,0.0,0.0,0.0,0.0,0.0,0.0,0.0,0.0,0.0,0.0,0.0,0.0,0.0,0.0,0.0,0.0,0.0,0.0,0.0,0.0,0.0,0.0,0.0,0.0,0.0,0.0,0.0,0.0,0.0,0.0,0.0,0.0,0.0,0.0,0.0,0.0,0.0,0.0,0.0,0.0,0.0,0.0,0.0,0.0,0.0,0.0,0.0,0.0,0.0,0.0,0.0,0.0,0.0,0.0,0.0,0.0,0.0,0.0,0.0,0.0,0.0,0.0,0.0,0.0,0.0,0.0,0.0,0.0,0.0,0.0,0.0,0.0,0.0,0.0,0.0,0.0,0.0,0.0,0.0,0.0,0.0,0.0,0.0,2.1965,2.8315,2.8994,2.9012,2.9012,2.9007,2.9012,2.9003,0.0,0.0,0.0,0.0,0.0,0.0,0.0,0.0,0.0,0.0,0.0,0.0,0.0,0.0,0.0,0.0,0.0,0.0,0.0,0.0,0.0,0.0,0.0,0.0,0.0,0.0,0.0,0.0,0.0,0.0,0.0,0.0,0.0,0.0,0.0,0.0,0.0,0.0,0.0,0.0,0.0,0.0,0.0,0.0,0.0,0.0,0.0,0.0,0.0,0.0,0.0,0.0,0.0,0.0,0.0,0.0,0.0,0.0,0.0,0.0,0.0,0.0,0.0,0.0,0.0,0.0,0.0,0.0,0.0,0.0,0.0,0.0,0.0,0.0,0.0,0.0,0.0,0.0,0.0,0.0,0.0,0.0,0.0,0.0,0.0,0.0,0.0,0.0,0.0,0.0,0.0,0.0,0.0,0.0,0.0,0.0,0.0,0.0,0.0,0.0,0.0,0.0,0.0,0.0,2.7729,2.8874,2.9002,2.9009,2.9009,2.901,2.901,2.8997,0.0,0.0,0.0,0.0,0.0,0.0,0.0,0.0,0.0,0.0,0.0,0.0,0.0,0.0,0.0,0.0,0.0,0.0,0.0,0.0,0.0,0.0,0.0,0.0,0.0,0.0,0.0,0.0,0.0,0.0,0.0,0.0,0.0,0.0,0.0,0.0,0.0,0.0,0.0,0.0,0.0,0.0,0.0,0.0,0.0,0.0,0.0,0.0,0.0,0.0,0.0,0.0,0.0,0.0,0.0,0.0,0.0,0.0,0.0,0.0,0.0,0.0,0.0,0.0,0.0,0.0,0.0,0.0,0.0,0.0,0.0,0.0,0.0,0.0,0.0,0.0,0.0,0.0,0.0,0.0,0.0,0.0,0.0,0.0,0.0,0.0,0.0,0.0,0.0,0.0,0.0,0.0,0.0,0.0,0.0,0.0,0.0,0.0,0.0,0.0,0.0,0.0,0.0,2.2996,2.9007,2.8985,2.901,2.9698,3.1458,3.1599,3.1599,3.1587,2.2923,0.0,0.0,0.0,0.0,0.0,0.0,0.0,0.0,0.0,0.0,0.0,0.0,0.0,0.0,0.0,0.0,0.0,0.0,0.0,0.0,0.0,0.0,0.0,0.0,0.0,0.0,0.0,0.0,0.0,0.0,0.0,0.0,0.0,0.0,0.0,0.0,0.0,0.0,0.0,0.0,0.0,0.0,0.0,0.0,0.0,0.0,0.0,0.0,0.0,0.0,0.0,0.0,0.0,0.0,0.0,0.0,0.0,0.0,0.0,0.0,0.0,0.0,0.0,0.0,0.0,0.0,0.0,0.0,0.0,0.0,0.0,0.0,0.0,0.0,0.0,0.0,0.0,0.0,0.0,0.0,0.0,0.0,0.0,0.0,0.0,0.0,0.0,0.0,0.0,0.0,0.0,0.0,0.0,0.0,0.0,0.0,0.0,0.0,0.0,0.0,0.0,0.0,2.5538,3.0119,3.0118,3.0129,3.1132,3.3598,3.3802,3.3795,3.3795,2.4399,0.0,0.0,0.0,0.0,0.0,0.0,0.0,0.0,0.0,0.0,0.0,0.0,0.0,0.0,0.0,0.0,0.0,0.0,0.0,0.0,0.0,0.0,0.0,0.0,0.0,0.0,0.0,0.0,0.0,0.0,0.0,0.0,0.0,0.0,0.0,0.0,0.0,0.0,0.0,0.0,0.0,0.0,0.0,0.0,0.0,0.0,0.0,0.0,0.0,0.0,0.0,0.0,0.0,0.0,0.0,0.0,0.0,0.0,0.0,0.0,0.0,0.0,0.0,0.0,0.0,0.0,0.0,0.0,0.0,0.0,0.0,0.0,0.0,0.0,0.0,0.0,0.0,0.0,0.0,0.0,0.0,0.0,0.0,0.0,0.0,0.0,0.0,0.0,0.0,0.0,0.0,0.0,0.0,0.0,0.0,0.0,0.0,0.0,0.0,0.0,0.0,0.0,3.3047,3.3477,3.3463,3.3467,3.3545,3.3773,3.3813,3.3805,3.381,2.6356,0.0,0.0,0.0,0.0,0.0,0.0,0.0,0.0,0.0,0.0,0.0,0.0,0.0,0.0,0.0,0.0,0.0,0.0,0.0,0.0,0.0,0.0,0.0,0.0,0.0,0.0,0.0,0.0,0.0,0.0,0.0,0.0,0.0,0.0,0.0,0.0,0.0,0.0,0.0,0.0,0.0,0.0,0.0,0.0,0.0,0.0,0.0,0.0,0.0,0.0,0.0,0.0,0.0,0.0,0.0,0.0,0.0,0.0,0.0,0.0,0.0,0.0,0.0,0.0,0.0,0.0,0.0,0.0,0.0,0.0,0.0,0.0,0.0,0.0,0.0,0.0,0.0,0.0,0.0,0.0,0.0,0.0,0.0,0.0,0.0,0.0,0.0,0.0,0.0,0.0,0.0,0.0,0.0,0.0,0.0,0.0,0.0,0.0,0.0,0.0,0.0,0.0,3.3799,3.3795,0.0,3.3813,3.3805,3.3805,3.3815,3.3807,3.3807,0.0,0.0,0.0,0.0,0.0,0.0,0.0,0.0,0.0,0.0,0.0,0.0,0.0,0.0,0.0,0.0,0.0,0.0,0.0,0.0,0.0,0.0,0.0,0.0,0.0,0.0,0.0,0.0,0.0,0.0,0.0,0.0,0.0,0.0,0.0,0.0,0.0,0.0,0.0,0.0,0.0,0.0,0.0,0.0,0.0,0.0,0.0,0.0,0.0,0.0,0.0,0.0,0.0,0.0,0.0,0.0,0.0,0.0,0.0,0.0,0.0,0.0,0.0,0.0,0.0,0.0,0.0,0.0,0.0,0.0,0.0,0.0,0.0,0.0,0.0,0.0,0.0,0.0,0.0,0.0,0.0,0.0,0.0,0.0,0.0,0.0,0.0,0.0,0.0,0.0,0.0,0.0,0.0,0.0,0.0,0.0,0.0,0.0,0.0,0.0,0.0,0.0,3.2978,3.379,3.3807,0.0,3.3807,3.3807,3.3807,3.3807,3.3807,3.3788,0.0,0.0,0.0,0.0,0.0,0.0,0.0,0.0,0.0,0.0,0.0,0.0,0.0,0.0,0.0,0.0,0.0,0.0,0.0,0.0,0.0,0.0,0.0,0.0,0.0,0.0,0.0,0.0,0.0,0.0,0.0,0.0,0.0,0.0,0.0,0.0,0.0,0.0,0.0,0.0,0.0,0.0,0.0,0.0,0.0,0.0,0.0,0.0,0.0,0.0,0.0,0.0,0.0,0.0,0.0,0.0,0.0,0.0,0.0,0.0,0.0,0.0,0.0,0.0,0.0,0.0,0.0,0.0,0.0,0.0,0.0,0.0,0.0,0.0,0.0,0.0,0.0,0.0,0.0,0.0,0.0,0.0,0.0,0.0,0.0,0.0,0.0,0.0,0.0,0.0,0.0,0.0,0.0,0.0,0.0,0.0,0.0,0.0,0.0,0.0,0.0,0.0,3.298,3.3795,3.3807,3.3807,3.3807,3.3807,3.3807,3.3807,3.3787,0.0,0.0,0.0,0.0,0.0,0.0,0.0,0.0,0.0,0.0,0.0,0.0,0.0,0.0,0.0,0.0,0.0,0.0,0.0,0.0,0.0,0.0,0.0,0.0,0.0,0.0,0.0,0.0,0.0,0.0,0.0,0.0,0.0,0.0,0.0,0.0,0.0,0.0,0.0,0.0,0.0,0.0,0.0,0.0,0.0,0.0,0.0,0.0,0.0,0.0,0.0,0.0,0.0,0.0,0.0,0.0,0.0,0.0,0.0,0.0,0.0,0.0,0.0,0.0,0.0,0.0,0.0,0.0,0.0,0.0,0.0,0.0,0.0,0.0,0.0,0.0,0.0,0.0,0.0,0.0,0.0,0.0,0.0,0.0,0.0,0.0,0.0,0.0,0.0,0.0,0.0,0.0,0.0,0.0,0.0,0.0,0.0,0.0,0.0,0.0,0.0,0.0,0.0,3.298,3.3795,3.3807,3.3807,3.3807,3.3807,3.3807,3.3807,3.3787,3.3795,0.0,0.0,0.0,0.0,0.0,0.0,0.0,0.0,0.0,0.0,0.0,0.0,0.0,0.0,0.0,0.0,0.0,0.0,0.0,0.0,0.0,0.0,0.0,0.0,0.0,0.0,0.0,0.0,0.0,0.0,0.0,0.0,0.0,0.0,0.0,0.0,0.0,0.0,0.0,0.0,0.0,0.0,0.0,0.0,0.0,0.0,0.0,0.0,0.0,0.0,0.0,0.0,0.0,0.0,0.0,0.0,0.0,0.0,0.0,0.0,0.0,0.0,0.0,0.0,0.0,0.0,0.0,0.0,0.0,0.0,0.0,0.0,0.0,0.0,0.0,0.0,0.0,0.0,0.0,0.0,0.0,0.0,0.0,0.0,0.0,0.0,0.0,0.0,0.0,0.0,0.0,0.0,0.0,0.0,0.0,0.0,0.0,0.0,0.0,0.0,0.0,0.0,3.2957,3.3795,3.3807,3.3807,3.3807,3.3807,3.3807,3.3807,3.3813,3.3802,0.0,0.0,0.0,0.0,0.0,0.0,0.0,0.0,0.0,0.0,0.0,0.0,0.0,0.0,0.0,0.0,0.0,0.0,0.0,0.0,0.0,0.0,0.0,0.0,0.0,0.0,0.0,0.0,0.0,0.0,0.0,0.0,0.0,0.0,0.0,0.0,0.0,0.0,0.0,0.0,0.0,0.0,0.0,0.0,0.0,0.0,0.0,0.0,0.0,0.0,0.0,0.0,0.0,0.0,0.0,0.0,0.0,0.0,0.0,0.0,0.0,0.0,0.0,0.0,0.0,0.0,0.0,0.0,0.0,0.0,0.0,0.0,0.0,0.0,0.0,0.0,0.0,0.0,0.0,0.0,0.0,0.0,0.0,0.0,0.0,0.0,0.0,0.0,0.0,0.0,0.0,0.0,0.0,0.0,0.0,0.0,0.0,0.0,0.0,0.0,0.0,0.0,3.2957,3.3795,3.3807,3.3807,3.3807,3.3807,3.3807,3.3807,3.3795,3.379,0.0,0.0,0.0,0.0,0.0,0.0,0.0,0.0,0.0,0.0,0.0,0.0,0.0,0.0,0.0,0.0,0.0,0.0,0.0,0.0,0.0,0.0,0.0,0.0,0.0,0.0,0.0,0.0,0.0,0.0,0.0,0.0,0.0,0.0,0.0,0.0,0.0,0.0,0.0,0.0,0.0,0.0,0.0,0.0,0.0,0.0,0.0,0.0,0.0,0.0,0.0,0.0,0.0,0.0,0.0,0.0,0.0,0.0,0.0,0.0,2.7204,0.0,0.0,0.0,0.0,0.0,0.0,0.0,0.0,0.0,0.0,0.0,0.0,0.0,0.0,0.0,0.0,0.0,0.0,0.0,0.0,0.0,0.0,0.0,0.0,0.0,0.0,0.0,0.0,0.0,0.0,0.0,0.0,0.0,0.0,0.0,0.0,0.0,0.0,0.0,0.0,0.0,3.2957,3.3795,3.3807,3.3807,3.3807,3.3807,3.3807,3.3807,3.3795,3.379,3.2515,0.0,0.0,0.0,0.0,0.0,0.0,0.0,0.0,0.0,0.0,0.0,0.0,0.0,0.0,0.0,0.0,0.0,0.0,0.0,0.0,0.0,0.0,0.0,0.0,0.0,0.0,0.0,0.0,0.0,0.0,0.0,0.0,0.0,0.0,0.0,0.0,0.0,0.0,0.0,0.0,0.0,0.0,0.0,0.0,0.0,0.0,0.0,0.0,0.0,0.0,0.0,0.0,0.0,0.0,0.0,0.0,0.0,0.0,0.0,0.0,2.5608,0.0,0.0,0.0,0.0,0.0,0.0,0.0,0.0,0.0,0.0,0.0,0.0,0.0,0.0,0.0,0.0,0.0,0.0,0.0,0.0,0.0,0.0,0.0,0.0,0.0,0.0,0.0,0.0,0.0,0.0,0.0,0.0,0.0,0.0,0.0,0.0,0.0,0.0,0.0,0.0,3.2957,3.3795,3.3807,3.3807,3.3807,3.3807,3.3807,3.3807,3.3805,3.3792,3.3802,0.0,0.0,0.0,0.0,0.0,0.0,0.0,0.0,0.0,0.0,0.0,0.0,0.0,0.0,0.0,0.0,0.0,0.0,0.0,0.0,0.0,0.0,0.0,0.0,0.0,0.0,0.0,0.0,0.0,0.0,0.0,0.0,0.0,0.0,0.0,0.0,0.0,0.0,0.0,0.0,0.0,0.0,0.0,0.0,0.0,0.0,0.0,0.0,0.0,0.0,0.0,0.0,0.0,3.0398,3.0392,3.0402,3.0392,3.0404,2.9922,2.1509,2.213,2.9072,0.0,0.0,0.0,0.0,0.0,0.0,0.0,0.0,0.0,0.0,0.0,0.0,0.0,0.0,0.0,0.0,0.0,0.0,0.0,0.0,0.0,0.0,0.0,0.0,0.0,3.3815,3.2345,0.0,0.0,0.0,0.0,0.0,0.0,0.0,0.0,0.0,0.0,0.0,0.0,3.2962,3.3802,3.3797,3.3795,3.3795,3.3795,3.3795,3.3795,3.3787,3.3788,3.3799,3.3808,0.0,0.0,0.0,0.0,0.0,0.0,0.0,0.0,0.0,0.0,0.0,0.0,0.0,0.0,0.0,0.0,0.0,0.0,0.0,0.0,0.0,0.0,0.0,0.0,0.0,0.0,0.0,0.0,0.0,0.0,0.0,0.0,2.0164,2.4179,0.0,0.0,0.0,0.0,0.0,0.0,0.0,0.0,0.0,0.0,0.0,0.0,0.0,1.9994,2.8845,2.902,2.9524,3.0398,3.0394,3.0402,3.041,3.0402,3.0402,3.0337,2.8989,0.0,2.4138,2.8427,0.0,0.0,0.0,0.0,0.0,0.0,0.0,0.0,0.0,0.0,0.0,0.0,0.0,0.0,0.0,0.0,0.0,0.0,0.0,0.0,0.0,0.0,3.3799,3.379,3.3802,3.3563,0.0,3.2524,3.2523,3.2533,0.0,0.0,0.0,0.0,0.0,0.0,0.0,0.0,3.2959,3.3815,3.3802,3.3802,3.3807,3.3807,3.3807,3.3807,3.3796,3.3815,3.3797,3.3802,3.3815,3.2989,0.0,0.0,0.0,0.0,0.0,0.0,0.0,0.0,0.0,0.0,0.0,0.0,0.0,0.0,0.0,0.0,0.0,0.0,0.0,0.0,0.0,0.0,0.0,0.0,0.0,0.0,0.0,0.0,0.0,2.1274,2.2351,2.3685,2.4846,2.3896,0.0,0.0,0.0,0.0,0.0,0.0,0.0,0.0,0.0,2.5967,2.4526,2.5884,3.0362,3.041,3.0398,3.0406,3.039,3.0398,3.0398,3.0398,3.0398,3.041,3.0406,2.9125,2.723,2.9289,2.9691,2.8774,0.0,0.0,0.0,0.0,2.2741,2.4113,2.5497,2.5862,0.0,0.0,0.0,0.0,0.0,0.0,0.0,0.0,0.0,0.0,0.0,0.0,0.0,3.4604,3.4769,3.4756,3.4756,3.4769,3.3058,0.0,2.857,3.0538,3.0557,0.0,0.0,0.0,0.0,2.445,3.2723,3.3817,3.3802,3.3799,3.4373,3.4761,3.4773,3.4181,3.3809,3.3815,3.3807,3.3778,3.381,3.3805,3.381,0.0,0.0,0.0,0.0,0.0,0.0,0.0,0.0,0.0,0.0,0.0,0.0,0.0,0.0,0.0,0.0,0.0,0.0,0.0,0.0,0.0,0.0,0.0,0.0,0.0,0.0,0.0,0.0,2.2622,2.3441,2.4746,2.815,2.7542,0.0,0.0,0.0,0.0,0.0,0.0,2.2886,2.7662,3.04,3.0404,3.0402,3.04,3.0392,3.0402,3.0398,3.0398,3.0398,3.0398,3.0398,3.0398,3.0398,3.0417,3.0852,3.1287,3.1634,3.081,3.0554,3.0548,2.8751,2.7191,2.5914,2.5463,2.5958,2.6924,2.7255,2.8929,3.118,3.2954,0.0,3.1207,2.9338,0.0,0.0,0.0,0.0,2.5747,3.2496,3.4238,3.4448,3.5287,3.5515,3.5494,3.5515,3.55,3.2432,0.0,2.8401,3.5503,3.5496,0.0,0.0,0.0,0.0,2.5615,3.2874,3.4049,3.4217,3.4224,3.5002,3.549,3.5496,3.4465,3.3802,3.378,3.3789,3.3789,3.3789,3.378,3.3813,3.3795,0.0,0.0,0.0,0.0,0.0,0.0,0.0,0.0,0.0,0.0,0.0,0.0,0.0,0.0,0.0,0.0,0.0,0.0,0.0,0.0,0.0,0.0,0.0,0.0,0.0,0.0,0.0,0.0,0.0,2.9047,3.0247,0.0,0.0,0.0,0.0,2.9413,2.9899,2.9892,2.9888,3.0207,3.0409,3.039,3.041,3.041,3.041,3.0405,3.0412,3.0412,3.0412,3.0412,3.0412,3.0398,3.0386,3.0489,3.2076,3.3711,3.5072,3.2897,3.1852,3.1532,3.0477,2.957,2.8675,2.6967,2.7443,2.8956,2.8986,3.0641,3.2929,3.3853,3.4644,3.4611,3.1292,3.2445,0.0,0.0,3.4718,3.484,3.5315,3.5417,3.5429,3.5486,3.55,3.5498,3.5498,3.5498,3.2297,0.0,2.8089,3.5489,3.5503,0.0,2.3045,3.3379,3.3876,3.326,3.3748,3.4737,3.5418,3.5394,3.5467,3.5493,3.551,3.4459,3.379,3.3808,3.3789,3.3789,3.3789,3.3808,3.3788,3.3815,3.3806,0.0,0.0,0.0,0.0,0.0,0.0,0.0,0.0,0.0,0.0,0.0,0.0,0.0,0.0,0.0,0.0,0.0,0.0,0.0,0.0,0.0,0.0,0.0,0.0,0.0,0.0,0.0,0.0,2.6235,2.8955,0.0,2.7033,2.6799,2.7804,3.0224,3.0406,3.0414,3.039,3.0398,3.0393,3.04,3.04,3.04,3.04,3.0407,3.1501,3.3679,3.3679,3.2526,3.0407,3.0388,3.0388,3.0522,3.2583,3.3833,3.4353,3.3712,3.3288,3.2981,3.2218,3.1789,3.1545,3.145,3.1827,3.2449,3.3026,3.3814,3.4622,3.4949,3.5249,3.5273,3.4049,3.4529,3.5489,3.5493,3.5508,3.5503,3.5494,3.5499,3.5503,3.5503,3.5489,3.5493,3.5493,3.5493,3.4337,3.0494,3.2851,3.5501,3.5504,3.2288,3.1039,3.4909,3.5147,3.4884,3.4901,3.5248,3.5511,3.5503,3.5515,3.5512,3.5495,3.4466,3.4693,3.6824,3.6962,3.6019,3.3887,3.3788,3.3797,3.3797,3.3808,3.3778,0.0,0.0,0.0,0.0,0.0,0.0,0.0,0.0,0.0,0.0,0.0,0.0,0.0,0.0,0.0,0.0,0.0,0.0,0.0,0.0,0.0,0.0,0.0,0.0,0.0,0.0,2.2391,2.4751,2.8199,3.0406,3.0406,3.0406,3.0394,3.0394,3.0405,3.0893,3.2064,3.2128,3.2116,3.2116,3.2116,3.2116,3.2116,3.2122,3.3256,3.5496,3.5496,3.4302,3.2122,3.2116,3.1488,3.0554,3.3231,3.4372,3.4385,3.4558,3.4539,3.4327,3.393,3.3776,3.3853,3.443,3.4641,3.4718,3.5315,3.5493,3.5493,3.5493,3.5493,3.5493,3.5493,3.5493,3.5493,3.5493,3.5493,3.5493,3.5493,3.5493,3.5493,3.5493,3.5493,3.5493,3.5493,3.5501,3.5495,3.5493,3.5512,3.5493,3.5501,3.5515,3.5493,3.5507,3.5496,3.5898,3.7037,3.7198,3.7194,3.718,3.7185,3.7194,3.7186,3.6498,3.6825,3.8603,3.8683,3.7728,3.5546,3.5449,3.5459,3.5459,3.545,3.4363,3.2169,0.0,0.0,0.0,0.0,0.0,0.0,0.0,0.0,0.0,0.0,0.0,0.0,0.0,0.0,0.0,0.0,0.0,0.0,0.0,0.0,0.0,0.0,0.0,2.1386,2.3507,2.5094,2.5412,2.8372,3.0451,3.0547,3.0561,3.0567,3.0567,3.0567,3.202,3.5323,3.5509,3.5509,3.5509,3.5509,3.5509,3.5509,3.5502,3.5509,3.5509,3.5509,3.5509,3.5489,3.5496,3.3692,3.0737,3.3731,3.5213,3.5514,3.5495,3.5493,3.5493,3.5493,3.5493,3.5493,3.5493,3.5493,3.5474,3.5411,3.5416,3.5493,3.5493,3.5493,3.5493,3.5493,3.5493,3.5493,3.5493,3.5493,3.5493,3.5493,3.5493,3.5493,3.5493,3.5493,3.5493,3.5493,3.5502,3.5412,3.5081,3.5364,3.5617,3.5521,3.5239,3.5046,3.5156,3.5183,0.0,3.9603,4.0031,4.0146,4.0468,4.0496,4.0504,4.049,4.0458,3.9819,3.8346,3.8544,3.8702,3.8693,3.8692,3.8555,3.8249,3.8233,3.515,2.8853,0.0,0.0,0.0,0.0,0.0,0.0,0.0,0.0,0.0,0.0,0.0,0.0,0.0,0.0,0.0,0.0,0.0,0.0,0.0,0.0,0.0,0.0,2.6483,2.6137,2.6277,2.7064,2.8795,2.9831,3.1373,3.3853,3.4103,3.4103,3.4103,3.4109,3.4514,3.5445,3.5489,3.5502,3.5509,3.5509,3.5496,3.5502,3.5493,3.5504,3.5504,3.5498,3.5512,3.5512,3.5488,3.5001,3.3743,2.7279,2.8681,3.5495,3.5507,3.5493,3.5493,3.5493,3.5493,3.5493,3.5493,3.5493,3.5238,3.3391,3.3949,3.5493,3.5493,3.5493,3.5493,3.5493,3.5493,3.5493,3.5493,3.5493,3.5493,3.5493,3.5493,3.5493,3.5493,3.5493,3.5493,3.5498,3.5493,3.3311,2.5916,3.2422,3.8344,3.5916,2.936,2.5291,2.7736,2.8098,0.0,2.9346,2.9489,3.2302,3.9712,4.0488,4.0492,4.05,3.9697,3.6066,2.8633,3.4792,3.8711,3.8713,3.8681,3.5385,2.8311,2.8187,2.7315,0.0,0.0,0.0,0.0,0.0,0.0,0.0,0.0,0.0,0.0,0.0,0.0,0.0,0.0,0.0,0.0,0.0,0.0,0.0,0.0,0.0,0.0,2.6137,2.8909,2.9852,2.9494,2.9809,3.1609,3.225,3.332,3.5316,3.5509,3.5495,3.5501,3.5507,3.5507,3.5507,3.5501,3.3551,2.9277,3.0496,3.3294,3.7546,3.7593,3.7589,3.7589,3.7584,3.6858,3.5508,3.5504,3.5512,0.0,2.9241,3.0032,3.5559,3.6257,3.6128,0.0,0.0,0.0,0.0,0.0,3.6007,3.5853,3.4737,3.5315,3.6546,3.6546,3.6546,3.6488,3.6122,3.5771,3.5495,3.5509,3.5496,3.5489,3.5502,3.5489,3.5495,3.5493,3.5498,3.5498,3.5489,3.6603,3.5839,2.9923,0.0,0.0,3.792,3.269,2.9417,3.1377,3.167,3.1675,3.1675,3.1671,3.3945,3.9862,4.0046,3.8089,3.4017,3.7243,0.0,0.0,0.0,3.8702,3.8693,3.8711,0.0,0.0,0.0,3.0287,3.0291,0.0,0.0,0.0,3.3081,3.2059,0.0,0.0,0.0,0.0,0.0,0.0,0.0,0.0,0.0,0.0,0.0,0.0,0.0,0.0,0.0,0.0,2.7409,2.9679,3.2756,3.2859,3.2897,3.3615,3.4879,3.5649,3.5512,3.5844,3.6061,3.6065,3.6065,3.6065,3.6065,0.0,0.0,0.0,0.0,3.019,4.041,4.0496,4.0492,4.0492,4.0506,3.8941,3.6065,3.6065,3.607,3.6067,3.6056,3.607,3.6183,3.7656,3.73,3.5782,3.571,3.5724,3.5834,3.6257,3.6603,0.0,0.0,0.0,0.0,3.8007,3.8007,3.7834,3.7007,3.6169,3.5496,3.5489,3.4677,3.3782,3.38,3.4648,3.5496,3.5498,3.5792,3.6075,3.6065,3.8392,4.05,4.0511,4.0501,4.0496,4.0504,4.0506,4.05,4.0494,4.0494,0.0,4.0501,4.0505,4.0501,4.0492,0.0,0.0,2.6766,3.494,4.05,4.0492,3.9494,3.8902,3.8917,3.878,3.8713,3.8709,3.8709,3.8686,3.8692,3.8692,3.8707,3.8689,3.8693,3.8692,0.0,0.0,0.0,0.0,0.0,0.0,0.0,0.0,0.0,0.0,0.0,0.0,0.0,0.0,0.0,2.9344,3.1429,3.3449,3.4814,3.5455,3.5133,3.3286,3.532,3.6507,3.5585,3.7964,3.9533,3.9533,3.9533,3.9533,3.9533,3.9532,3.8626,3.6664,2.9241,3.0185,4.0395,4.0511,4.0504,4.0504,0.0,0.0,3.9523,3.9518,3.9528,3.9543,3.9514,3.9528,3.9562,3.9875,3.9037,3.7473,3.7051,3.7147,3.7296,3.5372,3.5988,3.7488,3.5584,3.6276,3.8007,3.8007,3.8007,3.7892,3.73,3.6363,0.0,3.5504,2.9584,2.3239,2.3244,2.9327,3.5504,3.5494,3.7584,3.9533,3.9538,4.0034,4.0511,4.0504,4.05,4.05,4.0504,4.0485,4.05,4.0496,4.0496,4.0496,4.0496,4.05,4.0515,4.0499,4.03,3.9387,3.7509,3.9275,4.0496,4.0499,4.0274,4.014,4.0151,3.9213,3.8713,3.8697,3.8697,3.8702,3.8695,3.8695,3.8713,3.8707,3.8707,3.8688,0.0,0.0,0.0,0.0,0.0,0.0,0.0,0.0,0.0,0.0,0.0,2.7342,2.6754,0.0,2.8994,3.021,3.1833,3.3699,3.5815,3.6815,3.6781,3.524,3.657,3.7051,3.5652,3.8527,4.0496,4.0496,4.0496,4.0496,4.0496,4.0506,4.0496,4.0491,3.5566,3.536,4.0458,4.0496,4.0489,4.0489,4.0504,4.05,4.05,4.05,4.0496,4.0496,4.0496,4.0496,4.0496,4.0496,4.0019,3.9219,3.8969,3.8507,3.7853,3.657,3.6916,3.7935,3.7507,3.818,3.9238,3.9238,3.9238,3.92,3.8945,3.8445,3.7651,3.5968,3.3037,3.0406,3.0404,3.4183,3.7993,3.8007,3.9273,4.0496,4.05,4.05,4.0504,4.0504,4.0489,4.0489,4.0489,4.0489,4.0489,4.0489,4.0489,4.0489,4.0489,4.0489,4.0495,4.0494,4.0504,4.0502,4.0494,4.0504,4.0502,4.0494,4.0501,4.0499,4.0509,3.9916,3.9603,3.96,3.9005,3.8702,3.8707,3.8707,3.8707,3.8707,3.8707,3.8707,0.0,0.0,0.0,0.0,0.0,0.0,0.0,2.8402,2.8987,2.848,2.8907,2.9144,2.8352,2.8356,2.9193,3.1322,3.2261,3.3776,3.6796,3.7815,3.8161,3.7877,3.8031,3.7709,3.6573,3.8916,4.05,4.0504,4.0489,4.0489,4.0489,4.0489,4.05,4.0501,4.05,4.05,4.0501,4.05,4.0489,4.0489,4.0489,4.0489,4.0489,4.0489,4.0489,4.0489,4.0489,4.0489,4.0489,4.0489,4.0489,4.0489,4.0489,3.9662,3.8488,3.8493,3.8477,3.867,4.0027,4.0489,4.0489,4.0489,4.0489,4.0504,4.05,4.0506,3.9937,3.7236,3.8421,4.0507,4.0494,4.05,4.0505,4.0496,4.05,4.05,4.0504,4.0489,4.0489,4.0489,4.0489,4.0489,4.0489,4.0489,4.0489,4.0489,4.0489,4.0489,4.0489,4.0489,4.0489,4.0489,4.0489,4.0489,4.0489,4.0489,4.0489,4.0489,4.0489,4.0502,4.0501,4.0501,4.0492,4.0514,3.9324,3.8702,3.8707,3.8707,3.8707,3.8707,3.8707,3.8707,2.3956,2.1481,2.0676,2.3874,2.5253,2.5858,0.0,2.9511,3.2148,2.9824,3.1814,3.3893,3.3677,3.4303,3.5175,3.611,3.6293,3.6969,3.883,3.9138,3.9392,4.0046,3.9296,3.9031,3.9873,4.0277,4.0504,4.0489,4.0489,4.0489,4.0489,4.0489,4.0504,4.0504,4.0504,4.0504,4.0504,4.0504,4.0489,4.0489,4.0489,4.0489,4.0489,4.0489,4.0489,4.0489,4.0489,4.0489,4.0489,4.0489,4.0489,4.0489,4.0489,4.0392,4.0219,4.0219,4.0219,4.0239,4.0431,4.0489,4.0489,4.0489,4.0489,4.0489,4.0504,4.0504,4.0408,4.0042,4.0211,4.05,4.05,4.05,4.05,4.0504,4.0504,4.0504,4.0489,4.0489,4.0489,4.0489,4.0489,4.0489,4.0489,4.0489,4.0489,4.0489,4.0489,4.0489,4.0489,4.0489,4.0489,4.0489,4.0489,4.0489,4.0489,4.0489,4.0489,4.0489,4.0489,4.0508,4.0495,4.0495,4.05,4.049,3.9303,3.8693,3.8707,3.8707,3.8707,3.8707,3.8707,3.8707,2.5712,2.5659,2.6356,2.7811,2.957,3.1074,3.1582,3.3359,3.4609,3.3516,3.4434,3.5585,3.6001,3.5182,3.5172,3.7397,3.6914,3.6988,3.9105,3.9811,4.0215,4.0469,3.8358,3.6656,3.6128,3.8762,4.05,4.0492,4.05,4.0489,4.0489,4.0489,4.0489,4.0489,4.0489,4.0489,4.0489,4.0489,4.0489,4.0489,4.0489,4.0489,4.0489,4.0489,4.0489,4.0489,4.0489,4.0489,4.0489,4.0489,4.0489,4.0489,4.0489,4.0489,4.0489,4.0489,4.0489,4.0489,4.0489,4.0489,4.0489,4.0489,4.0489,4.0489,4.0489,4.0489,4.0489,4.0489,4.0489,4.0489,4.0489,4.0489,4.0489,4.0489,4.0489,4.0489,4.0489,4.0489,4.0489,4.0489,4.0489,4.0489,4.0489,4.0489,4.0489,4.0489,4.0489,4.0489,4.0489,4.0489,4.0489,4.0489,4.0489,4.0489,4.0489,4.0489,4.0489,4.0489,4.0489,4.0489,4.0489,4.0489,4.0511,4.0513,3.9309,3.8715,3.8701,3.8688,3.8707,3.8707,3.8707,3.8707,2.7461,2.8398,2.9512,3.1172,3.2637,3.4062,3.5644,3.5996,3.5996,3.5996,3.6191,3.6543,3.7129,3.5918,3.57,3.8326,3.7695,3.7576,3.9558,4.0345,4.0408,3.96,3.732,3.4889,3.2448,3.4712,3.7463,4.0294,4.05,4.0489,4.0489,4.0489,4.0489,4.0489,4.0489,4.0489,4.0489,4.0489,4.0489,4.0489,4.0489,4.0489,4.0489,4.0489,4.0489,4.0489,4.0489,4.0489,4.0489,4.0489,4.0489,4.0489,4.0489,4.0489,4.0489,4.0489,4.0489,4.0489,4.0489,4.0489,4.0489,4.0489,4.0489,4.0489,4.0489,4.0489,4.0489,4.0489,4.0489,4.0489,4.0489,4.0489,4.0489,4.0489,4.0489,4.0489,4.0489,4.0489,4.0489,4.0489,4.0489,4.0489,4.0489,4.0489,4.0489,4.0489,4.0489,4.0489,4.0489,4.0489,4.0489,4.0489,4.0489,4.0489,4.0489,4.0489,4.0489,4.0489,4.0489,4.0489,4.0489,4.0489,4.0488,4.0501,3.965,3.902,3.87,3.872,3.8691,3.8709,3.8715,3.8693,2.8594,2.7109,2.5996,3.1855,3.2168,3.1894,3.5234,3.5996,3.5996,3.5996,3.668,3.7266,3.7285,3.793,3.875,3.9707,3.9707,3.9902,4.082,4.08,3.9773,3.7305,3.681,3.5026,0.0,2.7618,2.9865,3.9758,4.0504,4.0489,4.0489,4.0489,4.0489,4.0489,4.0489,4.0489,4.0489,4.0489,4.0489,4.0489,4.0489,4.0489,4.0489,4.0489,4.0489,4.0489,4.0489,4.0489,4.0489,4.0489,4.0489,4.0489,4.0489,4.0489,4.0489,4.0489,4.0489,4.0489,4.0489,4.0489,4.0489,4.0489,4.0489,4.0489,4.0489,4.0489,4.0489,4.0489,4.0489,4.0489,4.0489,4.0489,4.0489,4.0489,4.0489,4.0489,4.0489,4.0489,4.0489,4.0489,4.0489,4.0489,4.0489,4.0489,4.0489,4.0489,4.0489,4.0489,4.0489,4.0489,4.0489,4.0489,4.0489,4.0489,4.0489,4.0489,4.0489,4.0489,4.0489,4.0489,4.0489,4.0489,4.0488,4.0501,4.0444,3.9884,3.87,3.8696,3.8696,3.8696,3.87,3.8691,2.7871,2.9101,3.0723,3.2226,3.3457,3.459,3.5742,3.5996,3.6152,3.6738,3.6172,3.5937,3.709,3.6113,3.5996,3.8613,3.7051,3.6797,4.0488,3.7982,3.6686,3.9138,3.5374,0.0,0.0,0.0,0.0,3.068,3.668,4.0489,4.0489,4.0489,4.0489,4.0489,4.0489,4.0489,4.0489,4.0489,4.0489,4.0489,4.0489,4.0489,4.0489,4.0489,4.0489,4.0489,4.0489,4.0489,4.0519,4.0839,4.0955,4.0934,4.0612,4.0489,4.0489,4.0489,4.0489,4.0489,4.0489,4.0489,4.0489,4.0489,4.0489,4.0489,4.0489,4.0489,4.0489,4.0489,4.0489,4.0489,4.0489,4.0489,4.0489,4.0489,4.0489,4.0489,4.0489,4.0489,4.0489,4.0489,4.0489,4.0489,4.0489,4.0489,4.0489,4.0489,4.0489,4.0489,4.0489,4.0489,4.0489,4.0489,4.0489,4.0489,4.0489,4.0489,4.0489,4.0489,4.0489,4.0489,4.0489,4.0489,4.0495,4.0507,4.0501,4.029,3.9884,3.9883,3.9886,3.9905,3.987,3.9488,2.9199,3.1309,3.3437,3.3535,3.4785,3.5996,3.5996,3.5996,3.6152,3.6719,3.6445,3.625,3.6738,3.5723,3.5625,3.8184,3.6465,3.6269,4.0488,3.8164,3.6886,3.91,3.5224,3.4031,0.0,0.0,0.0,3.095,3.6801,4.0496,4.0496,4.0496,4.05,4.0504,4.0489,4.0489,4.0489,4.0489,4.0489,4.0489,4.0489,4.0489,4.0489,4.0489,4.0489,4.0489,4.0489,4.06,4.077,4.1079,4.1205,4.1178,4.0866,4.0754,4.0737,4.0554,4.0489,4.0489,4.0489,4.0489,4.0489,4.0489,4.0489,4.0489,4.0489,4.0489,4.0489,4.0489,4.0489,4.0489,4.0489,4.0489,4.0489,4.0489,4.0489,4.0489,4.0489,4.0489,4.0489,4.0489,4.0489,4.0489,4.0489,4.0489,4.0489,4.0489,4.0489,4.0489,4.0489,4.0489,4.0489,4.0489,4.0489,4.0489,4.0489,4.0489,4.0489,4.0489,4.0489,4.0489,4.0489,4.0489,4.0489,4.0489,4.0492,4.0498,4.0498,4.0501,4.0497,4.0497,4.0499,3.9846,3.2207,3.3379,3.3926,3.5586,3.5996,3.5996,3.5996,3.5996,3.5996,3.5937,3.7148,3.7695,3.6035,3.6269,3.707,3.8223,3.7559,3.7851,4.0605,4.0781,3.9717,3.7286,3.6156,3.5614,3.5734,2.9893,0.0,3.9755,0.0,3.9716,3.9716,4.0212,4.0506,4.0504,4.0489,4.0489,4.0489,4.0489,4.0508,4.0543,4.0508,4.0489,4.0489,4.0519,4.0539,4.05,3.9796,4.0142,4.1193,4.12,4.1207,4.1191,4.1191,4.1207,4.113,4.0665,4.0489,4.0489,4.0489,4.0489,4.0489,4.0489,4.0489,4.0489,4.0489,4.0489,4.0489,4.0489,4.0489,4.0489,4.0489,4.0489,4.0489,4.0489,4.0489,4.0489,4.0489,4.0489,4.0489,4.0489,4.0489,4.0489,4.0489,4.0489,4.0489,4.0489,4.0489,4.0489,4.0489,4.0489,4.0489,4.0489,4.0489,4.0489,4.0489,4.0489,4.0489,4.0489,4.0489,4.0489,4.0489,4.0489,4.0489,4.0489,4.0489,4.0489,4.0489,4.0489,4.0489,4.0489,4.0499,3.9903,3.0801,3.2891,3.5449,3.5898,3.5996,3.5996,3.5996,3.5996,3.582,3.5176,3.3887,3.2734,3.2285,3.0254,3.0195,3.4922,3.3379,3.3144,3.7656,3.6582,3.5761,3.6944,3.5117,3.5209,3.8869,3.7655,0.0,0.0,3.3463,2.9186,2.9186,3.6366,4.05,4.0489,4.0489,4.0489,4.0489,4.0489,4.0677,4.1004,4.0677,4.0489,4.0504,4.0851,4.1024,4.0441,3.0142,3.1581,4.12,4.1201,4.1197,4.1191,4.1191,4.1207,4.1136,4.0667,4.0489,4.0489,4.0489,4.0489,4.0489,4.0489,4.0489,4.0489,4.0489,4.0489,4.0489,4.0489,4.0489,4.0489,4.0489,4.0489,4.0489,4.0489,4.0489,4.0489,4.0489,4.0489,4.0489,4.0489,4.0492,4.0495,4.0495,4.0499,4.0502,4.0502,4.0502,4.0499,4.0508,4.0489,4.0489,4.0489,4.0489,4.0489,4.0489,4.0489,4.0489,4.0489,4.0489,4.0489,4.0489,4.0489,4.0489,4.0489,4.0489,4.0489,4.0489,4.0489,4.0489,4.0489,4.0499,4.0338,3.2187,3.418,3.5996,3.5996,3.5996,3.5801,3.5039,3.459,3.3984,3.2715,3.1328,3.0098,2.9336,2.8125,2.8516,3.2402,3.2031,3.3086,3.8281,3.5762,3.4766,3.8457,3.7561,3.7696,4.037,4.0738,4.0718,0.0,3.5201,3.197,3.1967,3.7397,4.0496,4.0504,4.0489,4.0489,4.0489,4.0489,4.0639,4.0889,4.0639,4.062,4.0827,4.1081,4.1196,4.0764,0.0,3.4048,4.1194,4.1197,4.1191,4.1191,4.1191,4.1191,4.117,4.0903,4.081,4.0771,4.0583,4.0489,4.0489,4.0489,4.0489,4.0489,4.0489,4.0489,4.0489,4.0489,4.0489,4.0489,4.0489,4.0489,4.0489,4.0489,4.0489,4.0489,4.0489,4.0508,4.0511,4.0495,4.0499,4.0979,4.2489,4.2739,4.2742,4.2742,4.2742,4.2739,4.2733,4.1431,4.0495,4.0495,4.0495,4.0495,4.0495,4.0495,4.0495,4.0495,4.0495,4.0495,4.0495,4.0495,4.0495,4.0495,4.0495,4.0495,4.0495,4.0495,4.0495,4.0495,4.0496,4.0497,3.4238,3.5644,3.5996,3.5996,3.5996,3.5605,3.4082,3.3203,3.207,2.9883,2.9238,2.8555,2.6797,2.7461,2.8711,3.0,3.1992,3.5234,4.0469,3.6699,3.4824,3.8691,4.0351,4.1105,4.087,4.1069,4.1035,4.0618,4.0583,4.0582,4.0602,4.0584,4.059,4.0598,4.0598,4.0598,4.0598,4.0519,4.0519,4.0598,4.0577,4.0812,4.1193,4.12,4.1205,4.1191,0.0,0.0,4.1191,4.1191,4.1191,4.1191,4.1191,4.1191,4.1191,4.1191,4.1202,4.1138,4.0731,4.0596,4.0588,4.0523,4.0489,4.0489,4.0489,4.0489,4.0489,4.0489,4.0489,4.0489,4.0489,4.0489,4.0489,4.0508,4.0508,4.0508,4.0508,4.0857,4.1187,4.119,4.1174,4.2129,4.5079,4.5596,4.5596,4.5596,4.5596,4.5596,4.5596,4.3008,4.1174,4.1174,4.1174,4.1174,4.1174,4.1174,4.1174,4.1174,4.1174,4.1174,4.1174,4.1174,4.1174,4.1174,4.1174,4.1174,4.1174,4.1174,4.1174,4.1174,4.1174,4.1189,3.2305,3.3848,3.5996,3.5996,3.5996,3.5918,3.5625,3.5449,3.4043,2.9473,2.7383,2.584,2.4102,2.3613,2.418,2.6269,3.043,3.5234,4.0469,3.6699,3.2148,2.8789,3.5976,4.1171,4.1147,4.1178,0.0,0.0,4.1079,4.1081,4.1079,4.1071,4.1081,4.1072,4.1072,4.1072,4.1072,4.0687,4.07,4.1072,4.1087,4.1116,4.1189,4.1195,4.1203,4.1191,4.1191,0.0,4.1191,4.1191,4.1191,4.1191,4.1191,4.1191,4.1191,4.1191,4.1202,4.1196,4.1098,4.1092,4.1013,4.0622,4.0489,4.0489,4.0489,4.0489,4.0489,4.0489,4.0489,4.0489,4.0489,4.0489,4.0508,4.0495,4.0495,4.0499,4.0502,4.272,4.4713,4.4713,4.4716,4.4908,4.5503,4.5601,4.5603,4.5603,4.5603,4.5603,4.5603,4.5081,4.4713,4.4713,4.4713,4.4713,4.4713,4.4713,4.4713,4.4713,4.4713,4.4713,4.4713,4.4713,4.4713,4.4713,4.4713,4.4713,4.4713,4.4713,4.4713,4.4713,4.4713,4.4728,3.4004,3.4746,3.5996,3.5996,3.5996,3.5996,3.5996,3.5996,3.4023,2.7031,2.4961,2.3867,2.2129,2.1582,2.1777,2.2871,2.6621,3.0273,3.2773,3.0976,3.0488,3.3418,3.8164,3.9082,3.3652,3.8031,4.1195,4.1195,4.1195,4.1195,4.1195,4.1195,4.1208,4.1199,4.1195,4.1195,4.1195,4.0974,4.0984,4.1207,4.1207,4.1206,4.1193,4.1197,4.1191,4.1191,4.1191,0.0,4.1191,4.1191,4.1191,4.1191,4.1191,4.1191,4.1191,4.1191,4.1205,4.1207,4.1201,4.1194,4.1121,4.0646,4.0489,4.0489,4.0489,4.0489,4.0489,4.0489,4.0489,4.0489,4.0492,4.0511,4.0495,4.0502,4.1857,4.3159,4.3145,4.4429,4.5599,4.5601,4.5601,4.5603,4.5603,4.5603,4.5586,4.5586,4.5586,4.5586,4.5586,4.5584,4.5601,4.5601,4.5601,4.5601,4.5601,4.5601,4.5601,4.5601,4.5601,4.5601,4.5601,4.5601,4.5601,4.5601,4.5601,4.5601,4.5601,4.5601,4.5601,4.5601,4.5601,4.5611,3.5996,3.5996,3.5996,3.5996,3.5996,3.5996,3.5996,3.5996,3.3437,2.4414,2.3184,2.3086,2.0996,2.0605,2.0605,2.0605,2.5332,2.9023,2.9023,2.9023,3.2051,4.0234,4.1191,3.7988,2.9805,3.4394,0.0,3.7871,4.0625,0.0,4.2285,4.2285,4.2288,4.2284,4.2299,4.2285,4.2285,4.2285,4.1909,4.1195,4.1191,4.1191,4.1191,4.1191,4.1191,4.1191,4.1191,0.0,0.0,3.8008,3.8535,4.1191,4.1191,4.1191,4.1191,4.1191,4.1191,4.1191,4.1191,4.1199,4.1118,4.064,4.0489,4.0489,4.0489,4.0489,4.0489,4.0508,4.0508,4.0492,4.0499,4.1053,4.1591,4.1594,4.3643,4.5599,4.5601,4.5601,4.5601,4.5603,4.5586,4.5586,4.5586,4.5586,4.5586,4.5586,4.5586,4.5586,4.5586,4.5586,4.5586,4.5586,4.5586,4.5586,4.5586,4.5586,4.5586,4.5586,4.5586,4.5586,4.5586,4.5586,4.5586,4.5586,4.5586,4.5586,4.5586,4.5586,4.5586,4.5586,4.5586,4.5611,3.5996,3.5996,3.5996,3.5996,3.5996,3.5996,3.5996,3.5996,3.3105,2.293,2.3301,2.4473,2.1191,2.0605,2.0605,2.0605,3.1387,3.9785,3.9785,3.9785,4.0137,4.1094,4.1191,4.082,3.9863,3.2109,2.7129,2.7129,3.873,0.0,4.582,4.582,4.5839,4.5836,4.5839,4.582,4.582,4.582,4.4277,4.1206,4.1191,4.1191,4.1191,4.1191,4.1191,4.1191,4.1191,0.0,0.0,2.7676,2.9883,4.1191,4.1191,4.1191,4.1191,4.1191,4.1191,4.1191,4.1191,4.1199,4.1118,4.064,4.0489,4.0489,4.0489,4.0489,4.0508,4.0495,4.0499,4.0499,4.0502,4.2797,4.5117,4.512,4.5372,4.5603,4.5603,4.5603,4.5603,4.5586,4.5586,4.5586,4.5586,4.5586,4.5586,4.5586,4.5586,4.5586,4.5586,4.5586,4.5586,4.5586,4.5586,4.5586,4.5586,4.5586,4.5586,4.5586,4.5586,4.5586,4.5586,4.5586,4.5586,4.5586,4.5586,4.5586,4.5586,4.5586,4.5586,4.5586,4.5586,4.5605,3.5996,3.5996,3.5996,3.5996,3.5996,3.5996,3.5996,3.2773,2.8633,2.4512,2.3125,2.2207,2.0859,2.0605,2.0605,2.0605,3.2187,3.9023,3.2754,3.7266,4.1191,4.1191,4.1191,4.1191,4.1191,3.7461,3.5879,3.7949,4.3183,0.0,4.6308,4.6308,4.6308,4.6308,4.6308,4.6308,4.6308,4.6308,4.5625,4.4277,4.4277,4.4277,4.4199,4.2148,4.1191,4.1191,4.1191,0.0,0.0,2.8516,3.0605,4.1191,4.1191,4.1191,4.1191,4.1191,4.1191,4.1208,4.1201,4.1196,4.1118,4.064,4.0489,4.0489,4.0489,4.0508,4.0495,4.0499,4.1973,4.3564,4.3566,4.4583,4.5601,4.5603,4.5603,4.5586,4.5586,4.5586,4.5586,4.5586,4.5586,4.5586,4.5586,4.5586,4.5586,4.5586,4.5586,4.5586,4.5586,4.5586,4.5586,4.5586,4.5586,4.5586,4.5586,4.5586,4.5586,4.5586,4.5586,4.5586,4.5586,4.5586,4.5586,4.5586,4.5586,4.5586,4.5586,4.5586,4.5586,4.5586,4.5586,4.5586,3.5176,3.5996,3.5996,3.5996,3.5996,3.5996,3.5996,3.0664,2.5703,2.5703,2.3789,2.1797,2.0781,2.0605,2.0605,2.0605,2.9609,3.4062,2.6738,3.4648,4.1191,4.1191,4.1191,4.1191,4.1191,4.1191,4.1348,4.1719,0.0,0.0,4.6308,4.6308,4.6308,4.6308,4.6308,4.6308,4.6308,4.6308,4.6308,4.6308,4.6308,4.6308,4.6211,4.3808,4.2168,4.1191,0.0,0.0,0.0,2.998,3.1816,4.1191,4.1191,4.1191,4.1191,4.1191,4.1191,4.1205,4.1207,4.11,4.0934,4.0612,4.0508,4.0492,4.0492,4.0495,4.071,4.1723,4.3737,4.5599,4.5601,4.5603,4.5586,4.5586,4.5586,4.5586,4.5586,4.5586,4.5605,4.5605,4.5605,4.5587,4.5607,4.5607,4.5607,4.5607,4.5607,4.5607,4.5607,4.5587,4.5605,4.5605,4.5605,4.5586,4.5586,4.5586,4.5586,4.5586,4.5586,4.5586,4.5586,4.5586,4.5586,4.5586,4.5586,4.5586,4.5586,4.5586,4.5586,4.5586,4.5586,4.5586,3.3223,3.5996,3.5996,3.5996,3.5996,3.5996,3.5996,3.0664,2.5703,2.5703,2.5664,2.4609,2.1211,2.0605,2.0605,2.0605,2.3555,2.582,2.5723,3.4648,4.1191,4.1191,4.1191,4.1191,4.1191,4.1191,3.8379,3.1562,0.0,0.0,4.6308,4.6308,4.6308,4.6308,4.6308,4.6308,4.6308,4.6308,4.6308,4.6308,4.6308,4.6308,4.6308,4.6269,4.4394,0.0,0.0,0.0,0.0,2.998,3.1816,4.1191,4.1191,4.1191,4.1191,4.1191,4.1191,4.1205,4.1207,4.0889,4.0504,4.0504,4.0492,4.0499,4.0499,4.0499,4.1207,4.4583,4.5565,4.5586,4.5586,4.5586,4.5586,4.5586,4.5586,4.5586,4.5586,4.5586,4.5605,4.5608,4.5608,4.559,4.561,4.561,4.561,4.561,4.561,4.561,4.561,4.5609,4.5608,4.5608,4.5587,4.5586,4.5586,4.5586,4.5586,4.5586,4.5586,4.5586,4.5586,4.5586,4.5586,4.5586,4.5586,4.5586,4.5586,4.5586,4.5586,4.5586,4.5586,4.5586,3.3828,3.5996,3.5996,3.5996,3.5996,3.4766,3.0039,2.7266,2.5703,2.5703,2.5703,2.5371,2.4297,2.2187,2.0605,2.0605,2.3477,2.8184,3.5293,3.3008,3.0605,3.0605,3.6875,4.1191,4.1191,0.0,4.1269,4.1406,0.0,0.0,4.6308,4.6308,4.6308,4.6308,4.6308,4.6308,4.6308,4.6308,4.6308,4.6308,4.6308,4.6308,4.5976,3.6523,0.0,0.0,0.0,0.0,0.0,3.7656,3.8223,4.1191,4.1191,4.1191,4.1191,4.1191,4.1191,4.1208,4.121,4.0887,4.0489,4.0511,4.0495,4.0938,4.3278,4.3987,4.4218,4.5295,4.5603,4.5586,4.5586,4.5586,4.5586,4.5586,4.5586,4.5586,4.5586,4.5587,4.5589,4.5608,4.749,4.9085,4.9086,4.9086,4.9086,4.9086,4.9086,4.9086,4.9086,4.9085,4.8201,4.5858,4.5608,4.5607,4.5586,4.5586,4.5586,4.5586,4.5586,4.5586,4.5586,4.5586,4.5586,4.5586,4.5586,4.5586,4.5586,4.5586,4.5586,4.5586,4.5586,4.5586,3.0957,3.2109,3.2109,3.2109,3.2109,3.0996,2.668,2.5703,2.5332,2.4043,2.4805,2.5703,2.5703,2.291,2.0605,2.0605,2.6758,3.3809,4.0293,3.5625,3.1543,3.1543,3.7266,4.1191,0.0,4.1191,4.2617,0.0,0.0,0.0,4.6308,4.6308,4.6308,4.6308,4.6308,4.6308,4.6308,4.6308,4.6308,4.6308,4.6308,4.6308,4.5879,3.3359,0.0,0.0,0.0,0.0,0.0,4.1191,4.1191,4.1191,4.1191,4.1191,4.1191,4.1191,4.1191,4.1209,4.1195,4.0901,4.0495,4.0499,4.136,4.2835,4.4949,4.5601,4.5584,4.5603,4.5586,4.5586,4.5586,4.5586,4.5586,4.5586,4.5605,4.5587,4.5587,4.5608,4.5974,4.7279,4.924,5.0702,5.0702,5.0702,5.0702,5.0702,5.0702,5.0702,5.0702,5.0702,4.9874,4.774,4.6376,4.5589,4.5605,4.5586,4.5586,4.5586,4.5586,4.5586,4.5586,4.5586,4.5586,4.5586,4.5586,4.5586,4.5586,4.5586,4.5586,4.5586,4.5586,4.5778,0.0,2.5703,2.5703,2.5703,2.5703,2.5703,2.5703,2.5703,0.0,2.1621,2.3301,2.5566,2.6309,2.3242,2.0605,2.0605,3.1562,4.0351,4.1094,4.0566,4.0098,4.0098,4.0742,4.1191,4.1191,4.1191,4.2617,0.0,0.0,0.0,4.6308,4.6308,4.6308,4.6308,4.6308,4.6308,4.6308,4.6308,4.6308,4.6308,4.6308,4.6308,4.5976,3.6367,0.0,0.0,0.0,0.0,0.0,4.1191,4.1191,4.1191,4.1191,4.1191,4.1191,4.1191,4.1191,4.1206,4.1188,4.0897,4.0543,4.0787,4.3008,4.5601,4.5603,4.5586,4.5586,4.5586,4.5586,4.5586,4.5586,4.5586,4.5586,4.5586,4.5607,4.5685,4.5915,4.5955,4.6896,5.0067,5.0702,5.0702,5.0702,5.0702,5.0702,5.0702,5.0702,5.0702,5.0702,5.0702,5.0683,5.0701,4.7644,4.5589,4.5605,4.5586,4.5586,4.5586,4.5586,4.5586,4.5586,4.5586,4.5586,4.5586,4.5586,4.5586,4.5586,4.5586,4.5586,4.5605,4.5605,4.6086,2.5703,0.0,2.5703,2.5703,2.5703,2.5703,0.0,2.5703,2.5469,2.4668,2.3066,2.4219,3.2129,2.6465,2.0605,2.0605,2.5527,3.2129,4.0078,3.4355,2.9336,2.9336,3.6367,4.1191,4.1191,4.1191,4.2617,0.0,0.0,4.6308,4.6308,4.6308,4.6308,4.6308,4.6308,4.6308,4.6308,4.6308,4.6308,4.6308,4.6308,4.6308,4.6211,4.3789,0.0,0.0,0.0,0.0,4.1191,4.1191,4.1191,4.1191,4.1191,4.1191,4.1191,4.1191,4.1192,4.1208,4.1202,4.0892,4.0943,4.3547,4.4949,4.5603,4.5586,4.5586,4.5586,4.5586,4.5586,4.5586,4.5586,4.5586,4.5586,4.5586,4.5607,4.6318,4.8949,4.9489,4.974,5.0548,5.0702,5.0702,5.0683,5.0702,5.0702,5.0702,5.0702,5.0702,5.0702,5.0702,5.0702,5.0701,4.7625,4.559,4.5605,4.5586,4.5586,4.5586,4.5586,4.5586,4.5586,4.5586,4.5586,4.5586,4.5586,4.5586,4.5586,4.5586,4.5605,4.5589,4.5589,4.6165,2.5661,2.5703,2.5703,2.5703,2.5703,2.5703,2.5703,2.5703,2.5703,2.5703,2.6758,2.9375,3.4961,2.7559,2.2148,2.6894,2.6562,2.7656,3.3301,2.9258,2.7461,3.2246,3.3574,3.5957,0.0,4.2617,0.0,0.0,0.0,4.6308,4.6308,4.6308,4.6308,4.6308,4.6308,4.6308,4.6308,4.6308,4.6308,4.623,4.1504,4.1719,4.6308,4.6308,4.6308,0.0,0.0,0.0,4.1191,4.1191,4.1191,4.1191,4.1191,4.1191,4.1191,4.1191,4.1201,4.1426,4.2992,4.3221,4.3126,4.5007,4.5603,4.5586,4.5586,4.5586,4.5586,4.5586,4.5586,4.5586,4.5586,4.5586,4.5586,4.5586,4.5589,4.653,4.9969,5.0702,5.0702,5.0702,5.0702,5.0702,5.0702,5.0702,5.0702,5.0702,5.0702,5.0702,5.0702,5.0702,5.0702,5.0701,4.7645,4.5609,4.5605,4.5586,4.5586,4.5586,4.5586,4.5586,4.5586,4.5586,4.5586,4.5586,4.5586,4.5586,4.5586,4.5587,4.5607,4.5646,4.7221,4.7836,2.5587,2.5679,2.5702,2.5703,2.6484,2.6992,2.5937,2.5703,2.5547,2.5039,3.082,3.5527,3.3945,2.6504,2.3457,3.2226,2.918,2.625,2.7832,2.8066,3.0742,3.7988,3.1055,0.0,4.0918,0.0,0.0,0.0,0.0,4.6308,4.6308,4.6308,4.6308,4.6308,4.6308,4.6308,4.6308,4.6308,4.6308,4.6172,3.5293,3.5781,4.6308,4.6308,4.6308,0.0,0.0,0.0,3.9746,4.1328,4.168,4.1191,4.1191,4.1523,4.1972,4.1982,4.1975,4.2381,4.5283,4.5986,4.5599,4.5603,4.5586,4.5586,4.5586,4.5586,4.5586,4.5586,4.5586,4.5586,4.5586,4.5586,4.5586,4.5586,4.5608,4.6531,4.997,5.0702,5.0702,5.0702,5.0702,5.0702,5.0702,5.0702,5.0702,5.0702,5.0702,5.0702,5.0702,5.0702,5.0702,5.0701,4.7645,4.5609,4.5605,4.5586,4.5586,4.5586,4.5586,4.5586,4.5586,4.5586,4.5586,4.5586,4.5586,4.5605,4.5605,4.5589,4.5877,4.6434,4.9355,4.9913,2.5337,2.5523,2.569,2.5702,3.0098,3.2891,2.7031,2.5703,2.4883,2.1973,2.918,3.332,2.457,2.168,2.1113,2.2715,2.4492,2.8769,3.7578,3.8828,3.6152,2.8945,0.0,3.0918,4.4238,0.0,0.0,0.0,0.0,4.6308,4.6308,4.6308,4.6308,4.6308,4.6308,4.6308,4.6308,4.6308,4.6308,4.6133,3.2832,3.3457,4.6308,4.6308,4.6308,0.0,0.0,4.0566,3.3164,4.1914,4.3808,4.1191,4.1191,4.2969,4.5523,4.5517,4.551,4.5592,4.6116,4.5988,4.5603,4.5586,4.5586,4.5586,4.5586,4.5586,4.5586,4.5586,4.5586,4.5586,4.5586,4.5586,4.5586,4.5586,4.5608,4.6531,4.997,5.0702,5.0702,5.0702,5.0702,5.0702,5.0702,5.0702,5.0702,5.0702,5.0702,5.0702,5.0702,5.0702,5.0702,5.0701,4.7645,4.5609,4.5605,4.5586,4.5586,4.5586,4.5586,4.5586,4.5586,4.5586,4.5586,4.5586,4.5586,4.5605,4.5608,4.5608,4.7087,4.9913,5.0452,5.0567,2.5303,2.5385,2.5052,2.3236,2.9437,3.4181,2.728,2.571,2.4733,2.1308,2.881,3.4554,2.9799,2.4368,2.305,3.0525,3.3047,3.5742,4.0527,4.1191,3.9434,0.0,0.0,3.7305,0.0,0.0,0.0,0.0,0.0,0.0,4.6308,4.6308,4.6308,4.6308,4.6308,4.6308,4.6308,4.6308,4.6308,4.6211,3.9863,4.0156,4.6308,4.6308,4.6308,4.6308,0.0,4.3613,3.959,4.4336,4.5371,4.3965,4.3965,4.4922,4.6307,4.6306,4.6143,4.593,4.593,4.5776,4.5586,4.5586,4.5586,4.5586,4.5586,4.5586,4.5586,4.5586,4.5586,4.5586,4.5586,4.5586,4.5586,4.5586,4.5608,4.6531,4.997,5.0702,5.0702,5.0702,5.0702,5.0702,5.0702,5.0702,5.0702,5.0702,5.0702,5.0702,5.0702,5.0702,5.0702,5.0701,4.7645,4.5609,4.5605,4.5586,4.5586,4.5586,4.5586,4.5586,4.5586,4.5586,4.5586,4.5586,4.5587,4.5589,4.559,4.7452,4.9163,5.0702,5.0683,5.0702,2.5303,2.5293,2.4668,2.2121,2.8745,3.388,2.6188,2.6275,2.6583,2.1561,2.8787,3.5259,3.2831,2.8487,2.8727,3.9312,4.1126,4.1191,4.1191,4.1191,4.1191,4.1191,4.1914,0.0,0.0,0.0,0.0,0.0,0.0,0.0,4.6308,4.6308,4.6308,4.6308,4.6308,4.6308,4.6308,4.6308,4.6308,4.6308,4.6308,4.6308,4.6308,4.6308,4.6308,4.6308,4.6308,4.6308,4.6308,4.6308,4.6308,4.6308,4.6308,4.6308,4.6308,4.6308,4.6078,4.5756,4.5651,4.5586,4.5586,4.5586,4.5586,4.5586,4.5586,4.5586,4.5586,4.5586,4.5586,4.5586,4.5586,4.5586,4.5586,4.5586,4.5608,4.6531,4.997,5.0702,5.0702,5.0702,5.0702,5.0702,5.0702,5.0702,5.0702,5.0702,5.0702,5.0702,5.0702,5.0702,5.0702,5.0702,4.7645,4.5609,4.5605,4.5605,4.5605,4.5605,4.5605,4.5586,4.5586,4.5605,4.5605,4.5605,4.5608,4.5992,4.6799,4.9413,5.0702,5.0702,5.0702,5.0702,2.5303,2.5293,2.5236,2.4992,3.0278,3.2938,2.2957,2.7999,3.2048,2.2316,2.8678,3.3063,2.3462,3.1223,3.938,4.04,4.0916,4.1191,4.1191,0.0,4.1191,4.1191,0.0,0.0,0.0,0.0,0.0,0.0,0.0,0.0,4.6308,4.6308,4.6308,4.6308,4.6308,4.6308,4.6308,4.6308,4.6308,4.6308,4.6308,4.6308,4.6308,4.6308,4.6308,4.6308,4.6308,4.6308,4.6308,4.6308,4.6308,4.6308,4.6308,4.6308,4.6308,4.6308,4.6289,4.6192,4.575,4.5586,4.5586,4.5586,4.5586,4.5586,4.5586,4.5586,4.5586,4.5586,4.5586,4.5586,4.5586,4.5586,4.5586,4.5586,4.5608,4.6531,4.997,5.0702,5.0702,5.0702,5.0702,5.0702,5.0702,5.0702,5.0702,5.0702,5.0702,5.0702,5.0702,5.0702,5.0702,5.0702,4.7626,4.5609,4.5605,4.5607,4.5608,4.5608,4.5587,4.5586,4.5586,4.5607,4.5608,4.5608,4.5591,4.7165,5.0336,5.0587,5.0702,5.0683,5.0683,5.0702,2.5303,2.5293,2.5293,2.5305,2.7246,2.7605,2.1646,2.8187,3.2608,2.241,2.8502,0.0,3.3316,3.1931,3.3211,3.9868,4.1075,4.1206,4.1208,4.1191,4.1191,0.0,0.0,0.0,0.0,0.0,0.0,0.0,0.0,0.0,4.6308,4.6308,4.6308,4.6308,4.6308,4.6308,4.6308,4.6308,4.6308,4.6308,4.6308,4.6308,4.6308,4.6308,4.6308,4.6308,4.6308,4.6308,4.6308,4.6308,4.6308,4.6308,4.6308,4.6308,4.6307,4.6294,4.6297,4.6268,4.61,4.5834,4.5586,4.5586,4.5586,4.5586,4.5586,4.5586,4.5586,4.5586,4.5586,4.5586,4.5586,4.5586,4.5586,4.5586,4.5608,4.6531,4.997,5.0702,5.0702,5.0702,5.0702,5.0702,5.0702,5.0702,5.0702,5.0702,5.0702,5.0702,5.0702,5.0702,5.0702,5.0702,4.7626,4.5591,4.559,4.5609,4.6511,4.8624,4.6779,4.559,4.559,4.5609,4.6607,4.8739,4.8759,4.9413,5.0702,5.0702,5.0702,5.0702,5.0702,5.0702,2.5303,2.5303,2.5043,2.3998,2.614,2.7354,2.2892,2.8948,3.3518,2.6539,2.8092,3.2706,3.9294,0.0,0.0,0.0,4.1202,4.1207,4.1206,4.1191,4.1191,0.0,0.0,0.0,0.0,0.0,0.0,0.0,0.0,0.0,0.0,4.6308,4.6308,4.6308,4.6308,4.6308,4.6308,4.6308,4.6308,4.6308,4.6308,4.6308,4.6308,4.6308,4.6308,4.6308,4.6308,4.6308,4.6308,4.6308,4.6308,4.6308,4.6308,4.6297,4.6294,4.6308,4.622,4.6072,4.607,4.5873,4.5586,4.5586,4.5586,4.5586,4.5586,4.5586,4.5586,4.5586,4.5586,4.5586,4.5586,4.5586,4.5586,4.5586,4.5608,4.6531,4.997,5.0702,5.0702,5.0702,5.0702,5.0702,5.0702,5.0702,5.0702,5.0702,5.0702,5.0702,5.0702,5.0702,5.0702,5.0702,4.8625,4.7203,4.7203,4.7203,4.8202,5.0548,4.8509,4.7222,4.7203,4.7203,4.8317,5.0644,5.0702,5.0702,5.0702,5.0702,5.0702,5.0702,5.0702,5.0702,2.5254,2.5253,2.4464,2.1129,2.7962,3.3713,2.6821,3.0494,3.5387,3.5519,2.7521,2.4601,3.8026,3.2248,0.0,3.948,4.1198,4.1206,4.1208,4.1191,0.0,0.0,0.0,0.0,0.0,0.0,0.0,0.0,0.0,0.0,0.0,4.6308,4.6308,4.6308,4.6308,4.6308,4.6308,4.6308,4.6308,4.6308,4.6308,4.6308,4.6308,4.6308,4.6308,4.6308,4.6308,4.6308,4.6308,4.6308,4.6308,4.6308,4.6308,4.6293,4.6313,4.6294,4.6007,4.5586,4.5586,4.5586,4.5586,4.5586,4.5586,4.5586,4.5586,4.5586,4.5586,4.5586,4.5586,4.5586,4.5586,4.5586,4.5586,4.5586,4.5608,4.6531,4.997,5.0702,5.0702,5.0702,5.0702,5.0702,5.0702,5.0702,5.0702,5.0702,5.0702,5.0702,5.0702,5.0702,5.0702,5.0702,5.0702,5.0702,5.0701,5.0702,5.0702,5.0702,5.0702,5.0683,5.0701,5.0702,5.0702,5.0702,5.0702,5.0702,5.0702,5.0702,5.0702,5.0702,5.0702,5.0702,2.2422,2.1771,2.1549,2.0556,2.7972,3.3084,2.387,2.3358,2.75,3.7057,3.6607,3.574,3.9746,3.815,0.0,4.0664,4.1198,4.1199,4.1191,4.1191,0.0,0.0,0.0,0.0,0.0,0.0,0.0,0.0,0.0,0.0,0.0,4.5976,4.6308,0.0,4.6308,4.6308,4.6308,4.6308,4.6308,4.6308,4.6308,4.6308,4.6308,4.6308,4.6308,4.6308,4.6308,4.6308,4.6308,4.6308,4.6308,4.6308,4.6308,4.6293,4.6275,4.593,4.5719,4.5586,4.5586,4.5586,4.5586,4.5586,4.5586,4.5586,4.5586,4.5586,4.5586,4.5586,4.5586,4.5586,4.5586,4.5587,4.5589,4.5589,4.5609,4.655,4.9971,5.0683,5.0702,5.0702,5.0702,5.0702,5.0702,5.0702,5.0702,5.0702,5.0702,5.0702,5.0702,5.0702,5.0683,5.0702,5.0702,5.0702,5.0702,5.0702,5.0702,5.0702,5.0702,5.0702,5.0702,5.0702,5.0702,5.0702,5.0702,5.0702,5.0702,5.0702,5.0702,5.0702,5.0702,5.0702,2.3582,2.1321,2.0307,2.0304,2.4917,2.7856,2.1703,2.3435,2.7505,3.1623,3.676,4.0557,4.0746,4.0882,0.0,4.117,4.1198,4.1191,0.0,0.0,0.0,0.0,0.0,0.0,0.0,0.0,0.0,0.0,0.0,0.0,0.0,4.5508,4.5937,0.0,4.6308,4.6308,4.6308,4.6308,4.6308,4.6308,4.6308,4.6308,4.6308,4.6308,4.6308,4.6308,4.6308,4.6308,4.6308,4.6308,4.6308,4.6308,4.6309,4.6309,4.6245,4.5786,4.5586,4.5586,4.5586,4.5586,4.5586,4.5586,4.5586,4.5586,4.5586,4.5586,4.5605,4.5587,4.5587,4.5607,4.5607,4.5608,4.5609,4.559,4.6646,4.8183,5.0259,5.0702,5.0702,5.0702,5.0702,5.0702,5.0702,5.0702,5.0702,5.0702,5.0702,5.0702,5.0702,5.0702,5.0702,5.0702,5.0702,5.0702,5.0702,5.0702,5.0702,5.0702,5.0702,5.0702,5.0702,5.0702,5.0702,5.0702,5.0702,5.0702,5.0702,5.0702,5.0702,5.0702,5.0702,5.0702,2.6525,2.3304,2.1685,2.1677,2.0991,2.0537,2.1464,2.9091,3.3318,2.4058,3.1938,4.0626,4.1084,4.1161,4.1176,4.1186,4.1195,0.0,0.0,0.0,0.0,0.0,0.0,0.0,0.0,0.0,0.0,0.0,0.0,0.0,0.0,4.4902,0.0,4.6152,4.6269,4.6308,4.6308,4.6308,4.6308,0.0,4.6308,4.6308,4.6308,4.6308,4.6308,4.6308,4.6308,4.6308,4.6308,4.6308,4.6308,4.6306,4.6306,4.6264,4.6173,4.5754,4.5586,4.5586,4.5586,4.5586,4.5586,4.5586,4.5586,4.5586,4.5605,4.5605,4.5605,4.5608,4.5819,4.6069,4.607,4.6052,4.607,4.6069,4.8432,5.0702,5.0702,5.0702,5.0702,5.0702,5.0702,5.0702,5.0702,5.0702,5.0702,5.0702,5.0702,5.0702,5.0702,5.0702,5.0702,5.0702,5.0702,5.0702,5.0702,5.0702,5.0702,5.0702,5.0702,5.0702,5.0702,5.0702,5.0702,5.0702,5.0702,5.0702,5.0702,5.0702,5.0702,5.0702,5.0702,5.0702,2.1774,2.6697,3.2232,3.2232,2.6227,2.2393,3.0407,3.5965,3.8801,3.6618,3.8479,4.0597,4.0917,4.0917,4.0941,4.1172,4.1206,0.0,0.0,0.0,0.0,0.0,0.0,0.0,0.0,0.0,0.0,0.0,0.0,0.0,4.2949,0.0,0.0,4.5273,4.5937,4.6308,4.6308,4.6308,4.6308,0.0,4.6308,4.6308,4.6308,4.6308,4.6308,4.6308,4.6308,4.6308,4.6308,4.6308,4.6308,4.6306,4.6306,4.6075,4.5738,4.5657,4.5586,4.5586,4.5586,4.5586,4.5586,4.5586,4.5586,4.5605,4.5607,4.5589,4.5608,4.5591,4.7528,4.9603,4.9604,4.9605,4.9586,4.9586,5.0163,5.0702,5.0702,5.0702,5.0702,5.0702,5.0702,5.0702,5.0702,5.0702,5.0702,5.0702,5.0702,5.0702,5.0702,5.0702,5.0702,5.0702,5.0702,5.0702,5.0702,5.0702,5.0702,5.0702,5.0702,5.0702,5.0702,5.0702,5.0702,5.0702,5.0702,5.0702,5.0702,5.0702,5.0702,5.0702,5.0702,5.0702,2.6696,3.1457,3.4331,2.9445,2.7907,2.8979,3.4282,3.8097,4.0496,4.0515,4.0496,4.053,4.0672,4.0723,4.0824,4.1073,4.1094,0.0,0.0,0.0,0.0,0.0,0.0,0.0,0.0,0.0,0.0,0.0,0.0,4.1992,4.2383,4.3262,4.4141,4.4961,4.5449,4.5879,4.6308,4.6308,4.6308,4.6308,4.6308,4.6308,4.6308,4.6308,4.6308,4.6308,4.6308,4.6308,4.6308,4.6308,4.6308,4.6307,4.6309,4.6012,4.5586,4.5586,4.5586,4.5586,4.5586,4.5586,4.5586,4.5586,4.5605,4.5607,4.5608,4.6741,4.8029,4.8029,4.9317,5.0759,5.0991,5.0875,5.0702,5.0702,5.0702,5.0702,5.0683,5.0702,5.0702,5.0702,5.0702,5.0702,5.0702,5.0702,5.0702,5.0702,5.0702,5.0702,5.0702,5.0702,5.0702,5.0702,5.0702,5.0702,5.0702,5.0702,5.0702,5.0702,5.0702,5.0702,5.0702,5.0702,5.0702,5.0702,5.0702,5.0702,5.0702,5.0702,5.0702,5.0702,5.0702,5.0702,3.2193,3.4592,3.3473,2.503,2.927,3.5663,3.6221,3.8502,4.0506,4.0504,4.0489,4.0508,4.0543,4.0622,4.0762,4.0968,4.0992,4.1055,0.0,0.0,0.0,0.0,0.0,0.0,0.0,0.0,0.0,0.0,0.0,4.1484,4.2168,4.2324,4.3066,4.4512,4.4707,4.5195,4.6074,4.6074,4.6152,4.6308,4.6308,4.6308,4.6308,4.6308,4.6308,4.6308,4.6308,4.6308,4.6308,4.6308,4.6308,4.6308,4.6304,4.605,4.5719,4.5624,4.5586,4.5586,4.5586,4.5586,4.5586,4.5605,4.5607,4.5723,4.63,4.847,5.0702,5.0702,5.0702,5.0798,5.1164,5.0991,5.0702,5.0702,5.0702,5.0702,5.0702,5.0702,5.0702,5.0702,5.0702,5.0702,5.0702,5.0702,5.0702,5.0702,5.0702,5.0702,5.0702,5.0702,5.0702,5.0702,5.0702,5.0702,5.0702,5.0702,5.0702,5.0702,5.0702,5.0702,5.0702,5.0702,5.0702,5.0702,5.0702,5.0702,5.0702,5.0702,5.0702,5.0702,5.0702,5.0702,2.6418,3.1002,3.5171,3.3812,3.4496,3.6269,3.9171,4.0183,4.0486,4.05,4.0489,4.0543,4.0658,4.0703,4.0766,4.0977,4.1006,4.1055,0.0,0.0,0.0,0.0,0.0,0.0,0.0,0.0,0.0,0.0,4.1191,4.125,4.1348,4.2012,4.2519,4.2734,4.3476,4.4297,4.5176,4.5176,4.5547,4.6308,4.6308,4.6308,4.6308,4.6308,4.6308,4.6308,4.6308,4.6308,4.6308,4.6308,4.6308,4.6308,4.6307,4.6263,4.6161,4.5757,4.5586,4.5586,4.5586,4.5586,4.5605,4.5589,4.5608,4.6146,4.9124,5.0336,5.0702,5.0702,5.0702,5.0721,5.0798,5.0741,5.0702,5.0702,5.0702,5.0702,5.0702,5.0702,5.0702,5.0702,5.0702,5.0702,5.0702,5.0702,5.0702,5.0702,5.0702,5.0702,5.0702,5.0702,5.0702,5.0702,5.0702,5.0702,5.0702,5.0702,5.0702,5.0702,5.0702,5.0702,5.0702,5.0702,5.0702,5.0702,5.0702,5.0702,5.0702,5.0702,5.0702,5.0702,5.0702,5.0702,2.3015,2.8865,3.5502,3.5489,3.121,2.936,3.843,4.0505,4.05,4.05,4.0489,4.0508,4.0581,4.06,4.0639,4.0812,4.0858,4.0929,0.0,0.0,0.0,0.0,0.0,0.0,0.0,0.0,0.0,0.0,4.1191,4.1191,4.1191,4.1543,4.1933,4.2383,4.2773,4.3398,4.4258,4.4277,4.4707,4.5566,4.5566,4.582,4.6308,4.6308,4.6308,4.6308,4.6308,4.6308,4.6308,4.6308,4.6308,4.6308,4.63,4.6302,4.6235,4.5764,4.5586,4.5586,4.5586,4.5586,4.5605,4.5589,4.6895,4.874,5.024,5.0702,5.0702,5.0683,5.0702,5.0702,5.0702,5.0702,5.0702,5.0702,5.0702,5.0702,5.0702,5.0702,5.0702,5.0702,5.0702,5.0702,5.0702,5.0702,5.0702,5.0702,5.0702,5.0702,5.0702,5.0702,5.0702,5.0702,5.0702,5.0702,5.0702,5.0702,5.0702,5.0702,5.0702,5.0702,5.0702,5.0702,5.0702,5.0702,5.0702,5.0702,5.0702,5.0702,5.0702,5.0702,5.0702,5.0702,2.2262,2.8392,3.4874,3.2282,2.5922,2.3056,3.3602,3.7456,3.8942,3.9441,4.0046,4.0489,4.0489,4.0489,4.0543,4.0677,4.0745,4.0828,0.0,0.0,0.0,0.0,0.0,0.0,0.0,0.0,0.0,0.0,4.1191,4.1191,4.1191,4.1191,4.1484,4.207,4.2109,4.2519,4.3359,4.3594,4.4023,4.4668,4.4883,4.5332,4.5976,4.6191,4.6308,4.6308,4.6308,4.6308,4.6308,4.6308,4.6308,4.6308,4.6294,4.6227,4.6088,4.5854,4.5699,4.5586,4.5586,4.5586,4.5605,4.5608,4.7913,5.0701,5.0702,5.0702,5.0721,5.0834,5.0797,5.0702,5.0702,5.0702,5.0702,5.0702,5.0702,5.0702,5.0702,5.0702,5.0702,5.0702,5.0702,5.0702,5.0702,5.0702,5.0702,5.0702,5.0702,5.0702,5.0702,5.0702,5.0702,5.0702,5.0702,5.0702,5.0702,5.0702,5.0702,5.0702,5.0702,5.0702,5.0702,5.0702,5.0702,5.0702,5.0702,5.0702,5.0702,5.0702,5.0702,5.0702,5.0702,5.0702,2.5088,3.0162,3.318,2.3507,2.0688,2.09,2.3191,2.9121,3.466,3.6521,3.8815,4.0489,4.0489,4.0489,4.0543,4.0677,4.0693,4.0773,0.0,0.0,0.0,0.0,0.0,0.0,0.0,0.0,0.0,0.0,4.1191,4.1191,4.1191,4.1191,4.1211,4.1269,4.1269,4.1641,4.2461,4.3281,4.3711,4.3789,4.4609,4.5019,4.5098,4.5918,4.6308,4.6308,4.6308,4.6308,4.6308,4.6308,4.6308,4.6308,4.6308,4.6033,4.5678,4.6121,4.5988,4.5586,4.5586,4.5586,4.5605,4.5609,4.7913,5.0682,5.0702,5.0683,5.0797,5.1252,5.1032,5.0702,5.0702,5.0702,5.0702,5.0702,5.0702,5.0702,5.0702,5.0702,5.0702,5.0702,5.0702,5.0702,5.0702,5.0702,5.0702,5.0702,5.0702,5.0702,5.0702,5.0702,5.0702,5.0702,5.0702,5.0702,5.0702,5.0702,5.0702,5.0702,5.0702,5.0702,5.0702,5.0702,5.0702,5.0702,5.0702,5.0702,5.0702,5.0702,5.0702,5.0702,5.0702,5.0702,2.5308,2.6314,2.6208,2.1486,2.0298,2.1405,2.5639,2.919,3.2127,3.3891,3.7584,3.9988,3.8354,3.9392,4.0508,4.0562,4.0639,4.0728,0.0,0.0,0.0,0.0,0.0,0.0,0.0,0.0,0.0,0.0,0.0,0.0,4.1113,3.9609,3.9473,4.1152,4.1191,4.1348,4.1621,4.1933,4.2344,4.2871,4.375,4.4453,4.5039,4.5898,4.6308,4.6308,4.6308,4.6308,4.6308,4.6308,4.6308,4.6308,4.6308,4.6197,4.6021,4.5896,4.5738,4.5586,4.5586,4.5586,4.5605,4.5609,4.7913,5.0701,5.0702,5.0914,5.1182,5.1344,5.1067,5.0702,5.0702,5.0702,5.0702,5.0702,5.0702,5.0702,5.0702,5.0702,5.0702,5.0702,5.0702,5.0702,5.0702,5.0702,5.0702,5.0702,5.0702,5.0702,5.0702,5.0702,5.0702,5.0702,5.0702,5.0702,5.0702,5.0702,5.0702,5.0702,5.0702,5.0702,5.0702,5.0702,5.0702,5.0702,5.0702,5.0702,5.0702,5.0702,5.0702,5.0702,5.0702,5.0702,2.5299,2.4072,2.2401,2.0727,2.0298,2.1477,2.5974,2.8752,3.0891,3.2545,3.6949,3.9969,3.8296,3.9354,4.0489,4.0489,4.0581,4.0658,4.0754,0.0,0.0,0.0,0.0,0.0,0.0,0.0,0.0,0.0,0.0,0.0,4.1113,3.9551,3.9414,4.1152,4.1191,4.1191,4.1191,4.1191,4.1465,4.2012,4.2851,4.3711,4.459,4.5469,4.6016,4.6308,4.6308,4.6308,4.6308,4.6308,4.6276,4.6228,4.6228,4.6216,4.6111,4.5742,4.5586,4.5586,4.5586,4.5586,4.5605,4.5609,4.7913,5.0738,5.0889,5.1155,5.1365,5.1196,5.0926,5.0702,5.0702,5.0702,5.0702,5.0702,5.0702,5.0702,5.0702,5.0702,5.0702,5.0702,5.0702,5.0702,5.0702,5.0702,5.0702,5.0702,5.0702,5.0702,5.0702,5.0702,5.0702,5.0702,5.0702,5.0702,5.0702,5.0702,5.0702,5.0702,5.0702,5.0702,5.0702,5.0702,5.0702,5.0702,5.0702,5.0702,5.0702,5.0702,5.0702,5.0702,5.0702,5.0702,0.0,0.0,0.0,2.0753,2.031,2.0869,2.3088,2.7054,3.0756,3.2449,3.6834,4.0392,4.0392,4.045,4.0489,4.0489,4.0489,4.0562,4.0677,0.0,0.0,0.0,0.0,0.0,0.0,0.0,0.0,0.0,0.0,4.1113,4.1191,4.1191,4.1191,4.1191,4.1191,4.1191,4.1191,4.1191,4.1191,4.1211,4.2012,4.2851,4.373,4.4609,4.5488,4.6308,4.6308,4.6308,4.6308,4.6308,4.6222,4.6103,4.6084,4.6007,4.5873,4.568,4.5586,4.5586,4.5586,4.5586,4.5605,4.5609,4.7913,5.0794,5.1233,5.138,5.1266,5.0835,5.0702,5.0702,5.0702,5.0702,5.0702,5.0702,5.0702,5.0702,5.0702,5.0702,5.0702,5.0702,5.0702,5.0702,5.0702,5.0702,5.0702,5.0702,5.0702,5.0702,5.0702,5.0702,5.0702,5.0702,5.0702,5.0702,5.0702,5.0702,5.0702,5.0702,5.0702,5.0702,5.0702,5.0702,5.0702,5.0702,5.0702,5.0702,5.0702,5.0702,5.0702,5.0702,5.0702,5.074,2.5303,0.0,0.0,0.0,0.0,0.0,2.2609,2.5409,2.814,2.9813,3.4199,3.7757,3.7757,3.9258,4.0489,4.0489,4.0489,4.0562,4.0754,0.0,0.0,0.0,0.0,0.0,0.0,0.0,0.0,0.0,3.9453,3.9199,4.1094,4.1191,4.1191,4.1191,4.1191,4.1191,4.1191,4.1191,4.1191,4.1211,4.2012,4.2851,4.373,4.4609,4.5488,4.6308,4.6308,4.6308,4.6308,4.6308,4.6222,4.6084,4.595,4.5892,4.5873,4.568,4.5586,4.5586,4.5586,4.5586,4.5605,4.5609,4.7914,5.072,5.0852,5.0889,5.0871,5.0741,5.0702,5.0702,5.0702,5.0702,5.0702,5.0702,5.0702,5.0702,5.0702,5.0702,5.0702,5.0702,5.0702,5.0702,5.0702,5.0702,5.0702,5.0702,5.0702,5.0702,5.0702,5.0702,5.0702,5.0702,5.0702,5.0702,5.0702,5.0702,5.0702,5.0702,5.0702,5.0702,5.0702,5.0702,5.0702,5.0702,5.0702,5.0702,5.0702,5.0702,5.0702,5.0702,5.0702,5.201,2.5303,2.4332,2.3178,2.2496,0.0,0.0,2.2485,2.5582,2.8659,3.0333,3.4737,3.7969,3.6911,3.7911,3.8911,3.8911,3.8911,3.9335,4.0523,0.0,0.0,0.0,0.0,0.0,0.0,4.1191,4.1191,4.1191,3.9785,3.959,4.1113,4.1191,4.1191,4.1191,4.1191,4.1191,4.1191,4.1191,4.1191,4.1211,4.168,4.2539,4.3711,4.4238,4.5137,4.6308,4.6308,4.6308,4.6308,4.6308,4.6181,4.5993,4.5883,4.5815,4.5757,4.5624,4.5586,4.5586,4.5586,4.5586,4.5605,4.5609,4.7914,5.0702,5.0702,5.0702,5.0702,5.0702,5.0702,5.0702,5.0702,5.0702,5.0702,5.0702,5.0702,5.0702,5.0702,5.0702,5.0702,5.0702,5.0702,5.0702,5.0702,5.0702,5.0702,5.0702,5.0702,5.0702,5.0702,5.0702,5.0702,5.0702,5.0702,5.0702,5.0702,5.0702,5.0702,5.0702,5.0702,5.0702,5.0702,5.0702,5.0702,5.0702,5.0702,5.0702,5.0702,5.0702,5.0702,5.0721,5.2124,5.3839,2.5303,2.4716,2.3918,2.3148,2.235,0.0,2.2774,2.6524,3.0352,3.2102,3.6084,3.8623,3.6642,3.6276,3.6276,3.6276,3.6276,3.7142,3.9619,4.0444,0.0,0.0,0.0,0.0,4.1191,4.1191,4.1191,4.1191,4.1191,4.1191,4.1191,4.1191,4.1191,4.1191,4.1191,4.1191,4.1191,4.1191,4.1191,4.1191,4.1191,4.207,4.3691,4.3691,4.4648,4.6308,4.6308,4.6308,4.6308,4.6285,4.6123,4.59,4.5901,4.5776,4.5586,4.5586,4.5586,4.5586,4.5586,4.5586,4.5605,4.5609,4.7913,5.0702,5.0702,5.0702,5.0702,5.0702,5.0702,5.0702,5.0702,5.0702,5.0702,5.0702,5.0702,5.0702,5.0702,5.0702,5.0702,5.0702,5.0702,5.0702,5.0702,5.0702,5.0702,5.0702,5.0702,5.0702,5.0702,5.0702,5.0702,5.0702,5.0702,5.0702,5.0702,5.0702,5.0702,5.0702,5.0702,5.0702,5.0702,5.0702,5.0702,5.0702,5.0702,5.0682,5.0701,5.0702,5.0875,5.1316,5.432,5.5707,2.5303,2.4716,2.4052,0.0,2.3725,0.0,2.3802,2.512,2.6967,2.9352,3.0621,3.1795,3.3353,3.3641,3.3641,3.3641,3.3641,3.4327,3.6279,3.8998,0.0,0.0,0.0,0.0,4.1191,4.1191,4.1191,4.1191,4.1191,4.1191,4.1191,4.1191,4.1191,4.1191,4.1191,4.1191,4.1191,4.1191,4.1191,4.1191,4.1191,4.207,4.3691,4.3691,4.4648,4.6308,4.6308,4.6308,4.6288,4.6173,4.6046,4.59,4.5901,4.5776,4.5586,4.5586,4.5586,4.5586,4.5586,4.5586,4.5605,4.5608,4.7913,5.0702,5.0702,5.0702,5.0702,5.0702,5.0702,5.0702,5.0702,5.0702,5.0702,5.0702,5.0702,5.0702,5.0702,5.0702,5.0702,5.0702,5.0702,5.0702,5.0702,5.0702,5.0702,5.0702,5.0702,5.0702,5.0702,5.0702,5.0702,5.0702,5.0702,5.0702,5.0702,5.0702,5.0702,5.0702,5.0702,5.0702,5.0702,5.0702,5.0702,5.0702,5.0702,5.0682,5.0701,5.0701,5.2086,5.4743,5.5418,5.5686,0.0,0.0,0.0,2.5447,0.0,0.0,0.0,2.6313,2.7678,2.941,3.041,3.1006,3.1006,3.1006,3.1006,3.1006,3.066,3.0717,3.1691,3.592,3.8786,0.0,0.0,0.0,4.1191,4.1191,4.1191,4.1191,4.1191,4.1191,4.1191,4.1191,4.1191,4.1191,4.1191,4.1191,4.1191,4.1191,4.1191,4.1191,4.1191,4.207,4.3691,4.3691,4.4648,4.6308,4.6308,4.6308,4.6287,4.6164,4.6024,4.5899,4.5861,4.5757,4.5586,4.5586,4.5586,4.5586,4.5586,4.5586,4.5643,4.5876,4.7106,4.8779,5.026,5.0702,5.0702,5.0702,5.0702,5.0702,5.0702,5.0702,5.0702,5.0702,5.0702,5.0702,5.0702,5.0702,5.0702,5.0702,5.0702,5.0702,5.0702,5.0702,5.0702,5.0702,5.0702,5.0702,5.0702,5.0702,5.0702,5.0702,5.0702,5.0702,5.0702,5.0702,5.0702,5.0702,5.0702,5.0702,5.0702,5.0702,5.0702,5.0702,5.0682,5.0701,5.07,5.2374,5.407,5.5707,5.5686,5.5705,0.0,0.0,0.0,0.0,0.0,2.7044,0.0,0.0,0.0,2.9602,3.0737,3.1006,2.8775,2.8371,0.0,0.0,0.0,0.0,0.0,3.2381,0.0,0.0,0.0,0.0,0.0,3.9902,4.0488,4.1152,4.1191,4.1191,4.1191,4.1191,4.1191,4.1191,4.1191,4.1191,4.1191,4.1191,4.1191,4.1191,4.1191,4.207,4.3691,4.3691,4.4648,4.6308,4.6308,4.6285,4.6253,4.6118,4.5995,4.5873,4.5815,4.5719,4.5586,4.5586,4.5586,4.5586,4.5586,4.5586,4.5663,4.603,4.6607,4.7587,4.999,5.0702,5.0702,5.0702,5.0702,5.0702,5.0702,5.0702,5.0702,5.0702,5.0702,5.0702,5.0702,5.0702,5.0702,5.0702,5.0702,5.0702,5.0702,5.0702,5.0702,5.0702,5.0702,5.0702,5.0702,5.0702,5.0702,5.0702,5.0702,5.0702,5.0702,5.0702,5.0702,5.0702,5.0702,5.0702,5.0702,5.0702,5.0702,5.0702,5.0682,5.1028,5.1661,5.4376,5.5707,5.5686,5.5705,5.5703,0.0,0.0,0.0,0.0,2.8294,0.0,0.0,0.0,2.8698,2.7313,0.0,2.6986,2.5928,0.0,0.0,0.0,0.0,0.0,2.7855,2.94,3.0182,2.9707,0.0,0.0,0.0,3.5273,3.7871,4.0976,4.1191,4.1191,4.1191,4.1191,4.1191,4.1191,4.1191,4.1191,4.1191,4.1191,4.1191,4.1191,4.1191,4.207,4.3691,4.3691,4.4648,4.6308,4.6308,4.6228,4.6113,4.5983,4.588,4.5815,4.5796,4.5719,4.5586,4.5586,4.5586,4.5586,4.5586,4.5586,4.5605,4.5663,4.7721,5.026,5.0587,5.0683,5.0702,5.0702,5.0702,5.0702,5.0702,5.0702,5.0702,5.0702,5.0702,5.0702,5.0702,5.0702,5.0702,5.0702,5.0702,5.0702,5.0702,5.0702,5.0702,5.0702,5.0702,5.0702,5.0702,5.0702,5.0702,5.0702,5.0702,5.0702,5.0702,5.0702,5.0702,5.0702,5.0702,5.0702,5.0702,5.0702,5.0702,5.0701,5.0701,5.2163,5.5128,5.5514,5.5686,5.5684,5.5703,5.5703,0.0,0.0,0.0,0.0,0.0,0.0,3.0871,0.0,2.8775,0.0,0.0,0.0,0.0,0.0,0.0,0.0,2.4774,0.0,0.0,0.0,2.7133,0.0,0.0,0.0,0.0,0.0,0.0,0.0,3.8652,3.8711,3.8203,4.0098,4.1191,4.1191,4.1191,4.1191,4.1191,4.1191,4.1191,4.1211,4.168,4.2539,4.3711,4.4219,4.5137,4.6308,4.6308,4.6229,4.6082,4.5969,4.5862,4.5796,4.5719,4.5643,4.5586,4.5586,4.5586,4.5586,4.5586,4.5586,4.5643,4.5933,4.8307,5.1064,5.0778,5.0702,5.0702,5.0702,5.0702,5.0702,5.0702,5.0702,5.0702,5.0702,5.0702,5.0702,5.0702,5.0702,5.0702,5.0702,5.0702,5.0702,5.0702,5.0702,5.0702,5.0702,5.0702,5.0702,5.0702,5.0702,5.0702,5.0702,5.0702,5.0702,5.0702,5.0702,5.0702,5.0702,5.0702,5.0702,5.0702,5.0702,5.0702,5.0702,5.2626,5.4302,5.5708,5.5686,5.5705,5.5703,5.5703,5.5703,3.3218,0.0,0.0,0.0,0.0,0.0,0.0,0.0,0.0,0.0,0.0,0.0,0.0,0.0,2.5245,2.5101,0.0,2.4709,0.0,2.4423,0.0,0.0,0.0,0.0,0.0,0.0,0.0,3.4824,3.6406,3.6914,3.6055,3.9316,4.1191,4.1191,4.1191,4.1191,4.1191,4.1191,4.1191,4.1211,4.2012,4.2851,4.373,4.4609,4.5488,4.6308,4.6308,4.6195,4.6036,4.5943,4.5834,4.5738,4.5624,4.5586,4.5586,4.5586,4.5586,4.5586,4.5586,4.5605,4.5837,4.7242,4.9285,5.1145,5.0816,5.0702,5.0702,5.0702,5.0702,5.0702,5.0702,5.0702,5.0702,5.0702,5.0702,5.0702,5.0702,5.0702,5.0702,5.0702,5.0702,5.0702,5.0702,5.0702,5.0702,5.0702,5.0702,5.0702,5.0702,5.0702,5.0702,5.0702,5.0702,5.0702,5.0702,5.0702,5.0702,5.0702,5.0702,5.0702,5.0702,5.0702,5.0682,5.0702,5.3088,5.4783,5.5688,5.5705,5.5703,5.5703,5.5703,5.5703,0.0,0.0,0.0,3.3314,0.0,0.0,0.0,0.0,3.0121,0.0,0.0,0.0,0.0,2.587,2.5082,2.4341,2.4923,0.0,0.0,2.5125,0.0,0.0,0.0,0.0,0.0,0.0,0.0,3.2324,3.541,3.6914,3.6055,3.9316,4.1191,4.1191,4.1191,4.1191,4.1191,4.1191,4.1191,4.1211,4.2012,4.2851,4.373,4.4609,4.5488,4.6308,4.6308,4.6144,4.591,4.5901,4.5776,4.5605,4.5586,4.5586,4.5586,4.5586,4.5586,4.5586,4.5586,4.5589,4.6205,5.001,5.0991,5.0721,5.0702,5.0702,5.0702,5.0702,5.0702,5.0702,5.0702,5.0702,5.0702,5.0702,5.0702,5.0702,5.0702,5.0702,5.0702,5.0702,5.0702,5.0702,5.0702,5.0702,5.0702,5.0702,5.0702,5.0702,5.0702,5.0702,5.0702,5.0702,5.0702,5.0701,5.0701,5.07,5.0699,5.0699,5.0699,5.07,5.0701,5.0701,5.07,5.0699,5.0814,5.2469,5.5703,5.5703,5.5703,5.5703,5.5703,5.5703,0.0,0.0,3.7007,3.6411,0.0,0.0,0.0,0.0,0.0,0.0,0.0,0.0,0.0,2.637,2.5928,2.5178,2.5311,2.5433,0.0,2.5503,0.0,2.5703,0.0,0.0,0.0,0.0,0.0,2.8633,3.0351,3.0957,0.0,3.5508,3.8613,3.8613,4.0293,4.1191,4.1191,4.1191,4.1191,4.1211,4.2598,4.3418,4.375,4.5195,4.6016,4.6308,4.6308,4.6147,4.59,4.5896,4.5776,4.5586,4.5586,4.5586,4.5586,4.5586,4.5586,4.5643,4.597,4.6069,4.6608,4.9875,5.0818,5.0702,5.0702,5.0702,5.0702,5.0702,5.0702,5.0702,5.0702,5.0702,5.0702,5.0702,5.0702,5.0702,5.0702,5.0702,5.0702,5.0702,5.0702,5.0702,5.0702,5.0702,5.0702,5.0702,5.0702,5.0702,5.0702,5.0702,5.0702,5.0702,5.0702,5.1605,5.382,5.4013,5.4012,5.4012,5.4012,5.4012,5.4013,5.1873,5.0699,5.0699,5.2894,5.4568,5.5686,5.5705,5.5703,5.5703,5.5703,5.5703,3.8604,3.8892,0.0,3.8142,3.7199,0.0,3.5641,0.0,0.0,0.0,0.0,0.0,0.0,2.7698,2.7044,2.5717,2.5505,2.5551,0.0,2.5703,2.5703,2.5703,2.6035,2.6641,0.0,2.6367,2.5391,2.5195,2.7402,2.8242,0.0,0.0,3.7305,3.7305,3.9844,4.1191,4.1191,4.1191,4.1191,4.1211,4.2891,4.3691,4.3769,4.5508,4.6308,4.6308,4.6245,4.6091,4.59,4.5877,4.5757,4.5586,4.5586,4.5586,4.5586,4.5586,4.5624,4.5719,4.615,4.6985,4.8183,5.0086,5.0702,5.0702,5.0702,5.0702,5.0202,4.7761,4.8818,5.0702,5.0702,5.0702,5.0702,5.0702,5.0702,5.0702,5.0702,5.0702,5.0702,5.0702,5.0702,5.0702,5.0702,5.0702,5.0702,5.0702,5.0702,5.0702,5.0702,5.0702,5.0702,5.0682,5.0701,5.2067,5.542,5.5708,5.5688,5.5688,5.5688,5.5688,5.5708,5.3626,5.2469,5.249,5.4589,5.5688,5.5688,5.5686,5.5705,5.5705,5.5684,5.5703]},{"header":{"parameterUnit":"m.s-1","parameterCategory":1,"la1":30.6,"la2":29.2853,"lo1":-89.7004,"lo2":-87.6739,"dy":0.0162,"dx":0.0183,"nx":112,"ny":82,"refTime":"2023-10-17T12:00:00:Z","depth":0,"parameterNumber":3,"parameterNumberName":"V-component_of_WINDS"},"data":[0.0,0.0,0.0,0.0,0.0,0.0,0.0,0.0,0.0,0.0,0.0,0.0,0.0,0.0,0.0,0.0,0.0,0.0,0.0,0.0,0.0,0.0,0.0,0.0,0.0,0.0,0.0,0.0,0.0,0.0,0.0,0.0,0.0,0.0,0.0,0.0,0.0,0.0,0.0,0.0,0.0,0.0,0.0,0.0,0.0,0.0,0.0,0.0,0.0,0.0,0.0,0.0,0.0,0.0,0.0,0.0,0.0,0.0,0.0,0.0,0.0,0.0,0.0,0.0,0.0,0.0,0.0,0.0,0.0,0.0,0.0,0.0,0.0,0.0,0.0,0.0,0.0,0.0,0.0,0.0,0.0,0.0,0.0,0.0,0.0,0.0,0.0,0.0,0.0,0.0,-0.893,-1.0376,-1.0624,-1.0631,-1.0631,-1.0701,-1.0631,-1.0485,0.0,0.0,0.0,0.0,0.0,0.0,0.0,0.0,0.0,0.0,0.0,0.0,0.0,0.0,0.0,0.0,0.0,0.0,0.0,0.0,0.0,0.0,0.0,0.0,0.0,0.0,0.0,0.0,0.0,0.0,0.0,0.0,0.0,0.0,0.0,0.0,0.0,0.0,0.0,0.0,0.0,0.0,0.0,0.0,0.0,0.0,0.0,0.0,0.0,0.0,0.0,0.0,0.0,0.0,0.0,0.0,0.0,0.0,0.0,0.0,0.0,0.0,0.0,0.0,0.0,0.0,0.0,0.0,0.0,0.0,0.0,0.0,0.0,0.0,0.0,0.0,0.0,0.0,0.0,0.0,0.0,0.0,0.0,0.0,0.0,0.0,0.0,0.0,0.0,0.0,0.0,0.0,0.0,0.0,0.0,0.0,0.0,0.0,0.0,0.0,0.0,0.0,0.0,0.0,-0.9211,-1.0438,-1.0771,-1.0918,-1.0918,-1.1136,-1.1136,-1.0841,0.0,0.0,0.0,0.0,0.0,0.0,0.0,0.0,0.0,0.0,0.0,0.0,0.0,0.0,0.0,0.0,0.0,0.0,0.0,0.0,0.0,0.0,0.0,0.0,0.0,0.0,0.0,0.0,0.0,0.0,0.0,0.0,0.0,0.0,0.0,0.0,0.0,0.0,0.0,0.0,0.0,0.0,0.0,0.0,0.0,0.0,0.0,0.0,0.0,0.0,0.0,0.0,0.0,0.0,0.0,0.0,0.0,0.0,0.0,0.0,0.0,0.0,0.0,0.0,0.0,0.0,0.0,0.0,0.0,0.0,0.0,0.0,0.0,0.0,0.0,0.0,0.0,0.0,0.0,0.0,0.0,0.0,0.0,0.0,0.0,0.0,0.0,0.0,0.0,0.0,0.0,0.0,0.0,0.0,0.0,0.0,0.0,0.0,0.0,0.0,0.0,0.0,0.0,-0.9349,-1.0415,-1.0982,-1.1136,-1.1251,-1.1217,-1.1345,-1.1345,-1.1263,-1.0873,0.0,0.0,0.0,0.0,0.0,0.0,0.0,0.0,0.0,0.0,0.0,0.0,0.0,0.0,0.0,0.0,0.0,0.0,0.0,0.0,0.0,0.0,0.0,0.0,0.0,0.0,0.0,0.0,0.0,0.0,0.0,0.0,0.0,0.0,0.0,0.0,0.0,0.0,0.0,0.0,0.0,0.0,0.0,0.0,0.0,0.0,0.0,0.0,0.0,0.0,0.0,0.0,0.0,0.0,0.0,0.0,0.0,0.0,0.0,0.0,0.0,0.0,0.0,0.0,0.0,0.0,0.0,0.0,0.0,0.0,0.0,0.0,0.0,0.0,0.0,0.0,0.0,0.0,0.0,0.0,0.0,0.0,0.0,0.0,0.0,0.0,0.0,0.0,0.0,0.0,0.0,0.0,0.0,0.0,0.0,0.0,0.0,0.0,0.0,0.0,0.0,0.0,-1.0253,-1.1186,-1.1411,-1.149,-1.1485,-1.1487,-1.1556,-1.1636,-1.1636,-1.1313,0.0,0.0,0.0,0.0,0.0,0.0,0.0,0.0,0.0,0.0,0.0,0.0,0.0,0.0,0.0,0.0,0.0,0.0,0.0,0.0,0.0,0.0,0.0,0.0,0.0,0.0,0.0,0.0,0.0,0.0,0.0,0.0,0.0,0.0,0.0,0.0,0.0,0.0,0.0,0.0,0.0,0.0,0.0,0.0,0.0,0.0,0.0,0.0,0.0,0.0,0.0,0.0,0.0,0.0,0.0,0.0,0.0,0.0,0.0,0.0,0.0,0.0,0.0,0.0,0.0,0.0,0.0,0.0,0.0,0.0,0.0,0.0,0.0,0.0,0.0,0.0,0.0,0.0,0.0,0.0,0.0,0.0,0.0,0.0,0.0,0.0,0.0,0.0,0.0,0.0,0.0,0.0,0.0,0.0,0.0,0.0,0.0,0.0,0.0,0.0,0.0,0.0,-0.9946,-1.0475,-1.1278,-1.1687,-1.1879,-1.1877,-1.2057,-1.2137,-1.189,-1.1872,0.0,0.0,0.0,0.0,0.0,0.0,0.0,0.0,0.0,0.0,0.0,0.0,0.0,0.0,0.0,0.0,0.0,0.0,0.0,0.0,0.0,0.0,0.0,0.0,0.0,0.0,0.0,0.0,0.0,0.0,0.0,0.0,0.0,0.0,0.0,0.0,0.0,0.0,0.0,0.0,0.0,0.0,0.0,0.0,0.0,0.0,0.0,0.0,0.0,0.0,0.0,0.0,0.0,0.0,0.0,0.0,0.0,0.0,0.0,0.0,0.0,0.0,0.0,0.0,0.0,0.0,0.0,0.0,0.0,0.0,0.0,0.0,0.0,0.0,0.0,0.0,0.0,0.0,0.0,0.0,0.0,0.0,0.0,0.0,0.0,0.0,0.0,0.0,0.0,0.0,0.0,0.0,0.0,0.0,0.0,0.0,0.0,0.0,0.0,0.0,0.0,0.0,-1.0819,-1.1636,0.0,-1.2057,-1.2137,-1.2137,-1.2224,-1.2305,-1.2305,0.0,0.0,0.0,0.0,0.0,0.0,0.0,0.0,0.0,0.0,0.0,0.0,0.0,0.0,0.0,0.0,0.0,0.0,0.0,0.0,0.0,0.0,0.0,0.0,0.0,0.0,0.0,0.0,0.0,0.0,0.0,0.0,0.0,0.0,0.0,0.0,0.0,0.0,0.0,0.0,0.0,0.0,0.0,0.0,0.0,0.0,0.0,0.0,0.0,0.0,0.0,0.0,0.0,0.0,0.0,0.0,0.0,0.0,0.0,0.0,0.0,0.0,0.0,0.0,0.0,0.0,0.0,0.0,0.0,0.0,0.0,0.0,0.0,0.0,0.0,0.0,0.0,0.0,0.0,0.0,0.0,0.0,0.0,0.0,0.0,0.0,0.0,0.0,0.0,0.0,0.0,0.0,0.0,0.0,0.0,0.0,0.0,0.0,0.0,0.0,0.0,0.0,-1.024,-1.147,-1.2305,0.0,-1.2305,-1.2305,-1.2305,-1.2305,-1.2305,-1.2298,0.0,0.0,0.0,0.0,0.0,0.0,0.0,0.0,0.0,0.0,0.0,0.0,0.0,0.0,0.0,0.0,0.0,0.0,0.0,0.0,0.0,0.0,0.0,0.0,0.0,0.0,0.0,0.0,0.0,0.0,0.0,0.0,0.0,0.0,0.0,0.0,0.0,0.0,0.0,0.0,0.0,0.0,0.0,0.0,0.0,0.0,0.0,0.0,0.0,0.0,0.0,0.0,0.0,0.0,0.0,0.0,0.0,0.0,0.0,0.0,0.0,0.0,0.0,0.0,0.0,0.0,0.0,0.0,0.0,0.0,0.0,0.0,0.0,0.0,0.0,0.0,0.0,0.0,0.0,0.0,0.0,0.0,0.0,0.0,0.0,0.0,0.0,0.0,0.0,0.0,0.0,0.0,0.0,0.0,0.0,0.0,0.0,0.0,0.0,0.0,0.0,0.0,-1.0557,-1.1636,-1.2305,-1.2305,-1.2305,-1.2305,-1.2305,-1.2305,-1.2131,0.0,0.0,0.0,0.0,0.0,0.0,0.0,0.0,0.0,0.0,0.0,0.0,0.0,0.0,0.0,0.0,0.0,0.0,0.0,0.0,0.0,0.0,0.0,0.0,0.0,0.0,0.0,0.0,0.0,0.0,0.0,0.0,0.0,0.0,0.0,0.0,0.0,0.0,0.0,0.0,0.0,0.0,0.0,0.0,0.0,0.0,0.0,0.0,0.0,0.0,0.0,0.0,0.0,0.0,0.0,0.0,0.0,0.0,0.0,0.0,0.0,0.0,0.0,0.0,0.0,0.0,0.0,0.0,0.0,0.0,0.0,0.0,0.0,0.0,0.0,0.0,0.0,0.0,0.0,0.0,0.0,0.0,0.0,0.0,0.0,0.0,0.0,0.0,0.0,0.0,0.0,0.0,0.0,0.0,0.0,0.0,0.0,0.0,0.0,0.0,0.0,0.0,0.0,-1.0557,-1.1636,-1.2305,-1.2305,-1.2305,-1.2305,-1.2305,-1.2305,-1.2131,-1.1636,0.0,0.0,0.0,0.0,0.0,0.0,0.0,0.0,0.0,0.0,0.0,0.0,0.0,0.0,0.0,0.0,0.0,0.0,0.0,0.0,0.0,0.0,0.0,0.0,0.0,0.0,0.0,0.0,0.0,0.0,0.0,0.0,0.0,0.0,0.0,0.0,0.0,0.0,0.0,0.0,0.0,0.0,0.0,0.0,0.0,0.0,0.0,0.0,0.0,0.0,0.0,0.0,0.0,0.0,0.0,0.0,0.0,0.0,0.0,0.0,0.0,0.0,0.0,0.0,0.0,0.0,0.0,0.0,0.0,0.0,0.0,0.0,0.0,0.0,0.0,0.0,0.0,0.0,0.0,0.0,0.0,0.0,0.0,0.0,0.0,0.0,0.0,0.0,0.0,0.0,0.0,0.0,0.0,0.0,0.0,0.0,0.0,0.0,0.0,0.0,0.0,0.0,-1.0629,-1.1636,-1.2305,-1.2305,-1.2305,-1.2305,-1.2305,-1.2305,-1.2057,-1.1556,0.0,0.0,0.0,0.0,0.0,0.0,0.0,0.0,0.0,0.0,0.0,0.0,0.0,0.0,0.0,0.0,0.0,0.0,0.0,0.0,0.0,0.0,0.0,0.0,0.0,0.0,0.0,0.0,0.0,0.0,0.0,0.0,0.0,0.0,0.0,0.0,0.0,0.0,0.0,0.0,0.0,0.0,0.0,0.0,0.0,0.0,0.0,0.0,0.0,0.0,0.0,0.0,0.0,0.0,0.0,0.0,0.0,0.0,0.0,0.0,0.0,0.0,0.0,0.0,0.0,0.0,0.0,0.0,0.0,0.0,0.0,0.0,0.0,0.0,0.0,0.0,0.0,0.0,0.0,0.0,0.0,0.0,0.0,0.0,0.0,0.0,0.0,0.0,0.0,0.0,0.0,0.0,0.0,0.0,0.0,0.0,0.0,0.0,0.0,0.0,0.0,0.0,-1.0629,-1.1636,-1.2305,-1.2305,-1.2305,-1.2305,-1.2305,-1.2305,-1.205,-1.147,0.0,0.0,0.0,0.0,0.0,0.0,0.0,0.0,0.0,0.0,0.0,0.0,0.0,0.0,0.0,0.0,0.0,0.0,0.0,0.0,0.0,0.0,0.0,0.0,0.0,0.0,0.0,0.0,0.0,0.0,0.0,0.0,0.0,0.0,0.0,0.0,0.0,0.0,0.0,0.0,0.0,0.0,0.0,0.0,0.0,0.0,0.0,0.0,0.0,0.0,0.0,0.0,0.0,0.0,0.0,0.0,0.0,0.0,0.0,0.0,-0.5969,0.0,0.0,0.0,0.0,0.0,0.0,0.0,0.0,0.0,0.0,0.0,0.0,0.0,0.0,0.0,0.0,0.0,0.0,0.0,0.0,0.0,0.0,0.0,0.0,0.0,0.0,0.0,0.0,0.0,0.0,0.0,0.0,0.0,0.0,0.0,0.0,0.0,0.0,0.0,0.0,0.0,-1.0629,-1.1636,-1.2305,-1.2305,-1.2305,-1.2305,-1.2305,-1.2305,-1.205,-1.147,-1.1275,0.0,0.0,0.0,0.0,0.0,0.0,0.0,0.0,0.0,0.0,0.0,0.0,0.0,0.0,0.0,0.0,0.0,0.0,0.0,0.0,0.0,0.0,0.0,0.0,0.0,0.0,0.0,0.0,0.0,0.0,0.0,0.0,0.0,0.0,0.0,0.0,0.0,0.0,0.0,0.0,0.0,0.0,0.0,0.0,0.0,0.0,0.0,0.0,0.0,0.0,0.0,0.0,0.0,0.0,0.0,0.0,0.0,0.0,0.0,0.0,-0.603,0.0,0.0,0.0,0.0,0.0,0.0,0.0,0.0,0.0,0.0,0.0,0.0,0.0,0.0,0.0,0.0,0.0,0.0,0.0,0.0,0.0,0.0,0.0,0.0,0.0,0.0,0.0,0.0,0.0,0.0,0.0,0.0,0.0,0.0,0.0,0.0,0.0,0.0,0.0,0.0,-1.0629,-1.1636,-1.2305,-1.2305,-1.2305,-1.2305,-1.2305,-1.2305,-1.2137,-1.1883,-1.1556,0.0,0.0,0.0,0.0,0.0,0.0,0.0,0.0,0.0,0.0,0.0,0.0,0.0,0.0,0.0,0.0,0.0,0.0,0.0,0.0,0.0,0.0,0.0,0.0,0.0,0.0,0.0,0.0,0.0,0.0,0.0,0.0,0.0,0.0,0.0,0.0,0.0,0.0,0.0,0.0,0.0,0.0,0.0,0.0,0.0,0.0,0.0,0.0,0.0,0.0,0.0,0.0,0.0,-0.5087,-0.4882,-0.5292,-0.4882,-0.4544,-0.4472,-0.5363,-0.5775,-0.5915,0.0,0.0,0.0,0.0,0.0,0.0,0.0,0.0,0.0,0.0,0.0,0.0,0.0,0.0,0.0,0.0,0.0,0.0,0.0,0.0,0.0,0.0,0.0,0.0,0.0,-0.9617,-0.9428,0.0,0.0,0.0,0.0,0.0,0.0,0.0,0.0,0.0,0.0,0.0,0.0,-1.0551,-1.1556,-1.2218,-1.205,-1.205,-1.205,-1.205,-1.205,-1.2131,-1.2298,-1.1803,-1.1476,0.0,0.0,0.0,0.0,0.0,0.0,0.0,0.0,0.0,0.0,0.0,0.0,0.0,0.0,0.0,0.0,0.0,0.0,0.0,0.0,0.0,0.0,0.0,0.0,0.0,0.0,0.0,0.0,0.0,0.0,0.0,0.0,-0.5782,-0.6197,0.0,0.0,0.0,0.0,0.0,0.0,0.0,0.0,0.0,0.0,0.0,0.0,0.0,-0.5875,-0.5346,-0.5575,-0.5539,-0.5087,-0.5223,-0.5292,-0.5362,-0.5292,-0.5292,-0.5213,-0.4981,0.0,-0.5962,-0.6042,0.0,0.0,0.0,0.0,0.0,0.0,0.0,0.0,0.0,0.0,0.0,0.0,0.0,0.0,0.0,0.0,0.0,0.0,0.0,0.0,0.0,0.0,-1.0495,-1.0654,-0.9374,-0.8446,0.0,-0.8867,-0.8335,-0.781,0.0,0.0,0.0,0.0,0.0,0.0,0.0,0.0,-1.0234,-1.1396,-1.197,-1.1064,-1.0985,-1.0985,-1.0985,-1.0985,-1.139,-1.2224,-1.2218,-1.197,-1.1396,-1.1925,0.0,0.0,0.0,0.0,0.0,0.0,0.0,0.0,0.0,0.0,0.0,0.0,0.0,0.0,0.0,0.0,0.0,0.0,0.0,0.0,0.0,0.0,0.0,0.0,0.0,0.0,0.0,0.0,0.0,-0.6504,-0.6515,-0.6236,-0.6657,-0.6796,0.0,0.0,0.0,0.0,0.0,0.0,0.0,0.0,0.0,-0.5106,-0.5325,-0.5325,-0.4945,-0.5362,-0.5428,-0.5156,-0.5359,-0.5428,-0.5428,-0.5428,-0.5428,-0.5362,-0.5156,-0.5332,-0.5664,-0.5826,-0.6108,-0.6379,0.0,0.0,0.0,0.0,-0.5987,-0.59,-0.5361,-0.5615,0.0,0.0,0.0,0.0,0.0,0.0,0.0,0.0,0.0,0.0,0.0,0.0,0.0,-0.9841,-0.9316,-0.8666,-0.8505,-0.8027,-0.7708,0.0,-0.7923,-0.7898,-0.7903,0.0,0.0,0.0,0.0,-1.0128,-1.0005,-1.0825,-1.1064,-1.0092,-0.9938,-1.0214,-1.0714,-1.0777,-1.123,-1.2224,-1.2305,-1.2211,-1.189,-1.2137,-1.189,0.0,0.0,0.0,0.0,0.0,0.0,0.0,0.0,0.0,0.0,0.0,0.0,0.0,0.0,0.0,0.0,0.0,0.0,0.0,0.0,0.0,0.0,0.0,0.0,0.0,0.0,0.0,0.0,-0.6701,-0.6611,-0.5941,-0.6305,-0.6422,0.0,0.0,0.0,0.0,0.0,0.0,-0.5231,-0.5189,-0.4951,-0.4544,-0.4815,-0.4951,-0.4882,-0.5292,-0.5428,-0.5428,-0.5428,-0.5428,-0.5428,-0.5428,-0.5428,-0.5432,-0.544,-0.5446,-0.5507,-0.578,-0.587,-0.58,-0.6572,-0.6465,-0.5923,-0.5879,-0.5993,-0.5969,-0.5236,-0.5427,-0.6131,-0.6108,0.0,-0.6491,-0.6976,0.0,0.0,0.0,0.0,-0.714,-0.7877,-0.7983,-0.8112,-0.8798,-0.869,-0.8358,-0.7549,-0.7142,-0.7116,0.0,-0.7876,-0.779,-0.7545,0.0,0.0,0.0,0.0,-0.9513,-0.9427,-1.0005,-1.0054,-0.9011,-0.8889,-0.9344,-1.0346,-1.0455,-1.1064,-1.2378,-1.2466,-1.2466,-1.2466,-1.2378,-1.2057,-1.1636,0.0,0.0,0.0,0.0,0.0,0.0,0.0,0.0,0.0,0.0,0.0,0.0,0.0,0.0,0.0,0.0,0.0,0.0,0.0,0.0,0.0,0.0,0.0,0.0,0.0,0.0,0.0,0.0,0.0,-0.4991,-0.6017,0.0,0.0,0.0,0.0,-0.5385,-0.4869,-0.4668,-0.4935,-0.492,-0.502,-0.5359,-0.5362,-0.5362,-0.5362,-0.5498,-0.5568,-0.5568,-0.5568,-0.5568,-0.5568,-0.5428,-0.5495,-0.5582,-0.5584,-0.5641,-0.579,-0.5653,-0.5616,-0.5631,-0.6062,-0.5815,-0.5185,-0.5486,-0.5397,-0.5171,-0.5111,-0.5403,-0.5806,-0.5969,-0.6421,-0.6806,-0.6367,-0.6675,0.0,0.0,-0.7064,-0.7804,-0.7265,-0.7447,-0.7854,-0.7867,-0.7142,-0.6419,-0.6419,-0.6419,-0.6424,0.0,-0.6035,-0.6018,-0.6821,0.0,-0.6991,-0.7171,-0.7899,-0.837,-0.8102,-0.8822,-0.8995,-0.8009,-0.7863,-0.8276,-0.9266,-0.9637,-1.0654,-1.264,-1.2802,-1.2802,-1.2802,-1.2472,-1.2298,-1.2224,-1.1723,0.0,0.0,0.0,0.0,0.0,0.0,0.0,0.0,0.0,0.0,0.0,0.0,0.0,0.0,0.0,0.0,0.0,0.0,0.0,0.0,0.0,0.0,0.0,0.0,0.0,0.0,0.0,0.0,-0.5457,-0.5497,0.0,-0.5255,-0.5331,-0.5279,-0.5058,-0.5156,-0.5226,-0.5359,-0.5428,-0.5564,-0.5634,-0.5634,-0.5634,-0.5634,-0.5704,-0.5696,-0.5712,-0.5712,-0.5735,-0.5704,-0.5701,-0.5701,-0.5726,-0.5745,-0.5738,-0.5826,-0.5868,-0.5795,-0.5741,-0.5899,-0.5748,-0.5562,-0.5758,-0.5755,-0.5722,-0.5823,-0.5962,-0.6105,-0.6162,-0.6374,-0.6458,-0.6311,-0.64,-0.6578,-0.6338,-0.6581,-0.6821,-0.6659,-0.674,-0.6821,-0.6821,-0.6578,-0.6338,-0.6338,-0.6338,-0.6364,-0.6273,-0.6237,-0.618,-0.65,-0.6569,-0.681,-0.758,-0.7953,-0.8134,-0.7977,-0.8381,-0.8198,-0.7223,-0.7064,-0.7467,-0.8522,-0.9316,-1.0441,-1.1876,-1.2637,-1.3021,-1.3093,-1.297,-1.2889,-1.2889,-1.264,-1.2211,0.0,0.0,0.0,0.0,0.0,0.0,0.0,0.0,0.0,0.0,0.0,0.0,0.0,0.0,0.0,0.0,0.0,0.0,0.0,0.0,0.0,0.0,0.0,0.0,0.0,0.0,-0.5376,-0.5487,-0.529,-0.5156,-0.5156,-0.5156,-0.5223,-0.5223,-0.5498,-0.5656,-0.5654,-0.5737,-0.5807,-0.5807,-0.5807,-0.5807,-0.5807,-0.5881,-0.5864,-0.586,-0.586,-0.5894,-0.5881,-0.5807,-0.5765,-0.5663,-0.5785,-0.5829,-0.5754,-0.6016,-0.6013,-0.5976,-0.5983,-0.5956,-0.5969,-0.6071,-0.6108,-0.6122,-0.6227,-0.6338,-0.6338,-0.6338,-0.6338,-0.6338,-0.6338,-0.6338,-0.6338,-0.6338,-0.6338,-0.6338,-0.6338,-0.6338,-0.6338,-0.6338,-0.6338,-0.6338,-0.6338,-0.618,-0.6099,-0.6338,-0.6342,-0.6338,-0.618,-0.6103,-0.6338,-0.6902,-0.7061,-0.7141,-0.7116,-0.7315,-0.723,-0.6556,-0.664,-0.723,-0.8671,-0.9269,-1.0386,-1.2079,-1.2662,-1.2991,-1.329,-1.299,-1.2731,-1.2731,-1.2466,-1.2084,-1.155,0.0,0.0,0.0,0.0,0.0,0.0,0.0,0.0,0.0,0.0,0.0,0.0,0.0,0.0,0.0,0.0,0.0,0.0,0.0,0.0,0.0,0.0,0.0,-0.4692,-0.5319,-0.5563,-0.4997,-0.5323,-0.5575,-0.5593,-0.5733,-0.5803,-0.5803,-0.5803,-0.579,-0.5832,-0.5783,-0.5783,-0.5783,-0.5783,-0.5783,-0.5783,-0.5941,-0.6022,-0.6022,-0.6022,-0.6022,-0.6018,-0.586,-0.5638,-0.542,-0.5872,-0.5893,-0.5625,-0.6099,-0.6338,-0.6338,-0.6338,-0.6338,-0.6338,-0.6338,-0.6338,-0.6335,-0.6244,-0.6325,-0.6338,-0.6338,-0.6338,-0.6338,-0.6338,-0.6338,-0.6338,-0.6338,-0.6338,-0.6338,-0.6338,-0.6338,-0.6338,-0.6338,-0.6338,-0.6338,-0.6338,-0.5941,-0.5767,-0.6423,-0.6395,-0.62,-0.5705,-0.5739,-0.5708,-0.5254,-0.5337,0.0,-0.5478,-0.5804,-0.6089,-0.6048,-0.6505,-0.7598,-0.9721,-0.9433,-1.0391,-1.3297,-1.271,-1.2668,-1.3607,-1.2572,-1.1972,-1.1968,-1.1144,-1.1083,-1.1951,0.0,0.0,0.0,0.0,0.0,0.0,0.0,0.0,0.0,0.0,0.0,0.0,0.0,0.0,0.0,0.0,0.0,0.0,0.0,0.0,0.0,0.0,-0.4908,-0.4844,-0.5048,-0.5199,-0.5402,-0.5596,-0.5744,-0.5741,-0.5783,-0.5783,-0.5783,-0.5861,-0.5931,-0.5931,-0.578,-0.5702,-0.5783,-0.5783,-0.586,-0.5941,-0.6338,-0.65,-0.65,-0.6419,-0.6342,-0.6342,-0.6257,-0.6093,-0.6026,-0.6173,-0.6162,-0.6099,-0.6261,-0.6338,-0.6338,-0.6338,-0.6338,-0.6338,-0.6338,-0.6338,-0.6213,-0.5888,-0.5986,-0.6338,-0.6338,-0.6338,-0.6338,-0.6338,-0.6338,-0.6338,-0.6338,-0.6338,-0.6338,-0.6338,-0.6338,-0.6338,-0.6338,-0.6338,-0.6338,-0.6419,-0.6338,-0.6324,-0.6582,-0.6596,-0.6589,-0.6414,-0.6442,-0.6423,-0.6276,-0.6358,0.0,-0.6506,-0.6673,-0.7161,-0.7989,-0.7687,-0.7871,-0.9071,-0.9256,-0.9833,-1.1351,-1.198,-1.2765,-1.3899,-1.3698,-1.3495,-1.3504,-1.2846,-1.2592,0.0,0.0,0.0,0.0,0.0,0.0,0.0,0.0,0.0,0.0,0.0,0.0,0.0,0.0,0.0,0.0,0.0,0.0,0.0,0.0,0.0,0.0,-0.4844,-0.5098,-0.5264,-0.5267,-0.539,-0.5645,-0.5832,-0.595,-0.5989,-0.6022,-0.6099,-0.618,-0.6261,-0.6261,-0.6261,-0.618,-0.5991,-0.589,-0.6066,-0.6096,-0.6031,-0.646,-0.6713,-0.6713,-0.6627,-0.6582,-0.6581,-0.65,-0.6342,0.0,-0.6349,-0.6384,-0.619,-0.6393,-0.6452,0.0,0.0,0.0,0.0,0.0,-0.6349,-0.6322,-0.6125,-0.6227,-0.6444,-0.6444,-0.6444,-0.6434,-0.6369,-0.6227,-0.6099,-0.6022,-0.586,-0.578,-0.5941,-0.6018,-0.6099,-0.6338,-0.6419,-0.6419,-0.6578,-0.6454,-0.64,-0.6702,0.0,0.0,-0.6857,-0.6651,-0.6454,-0.6241,-0.6371,-0.6444,-0.6444,-0.666,-0.7138,-0.7839,-0.7603,-0.7836,-0.8798,-0.8684,0.0,0.0,0.0,-1.1556,-1.2759,-1.2765,0.0,0.0,0.0,-1.2623,-1.3014,0.0,0.0,0.0,-1.1959,-1.1907,0.0,0.0,0.0,0.0,0.0,0.0,0.0,0.0,0.0,0.0,0.0,0.0,0.0,0.0,0.0,0.0,-0.4833,-0.5233,-0.5776,-0.5868,-0.5875,-0.5852,-0.5993,-0.6126,-0.6342,-0.6482,-0.6602,-0.6684,-0.6684,-0.6684,-0.6684,0.0,0.0,0.0,0.0,-0.6486,-0.6039,-0.6505,-0.6776,-0.6776,-0.6688,-0.6691,-0.6684,-0.6684,-0.6441,-0.6116,-0.652,-0.6441,-0.6136,-0.6555,-0.6661,-0.6713,-0.6457,-0.6379,-0.6318,-0.6393,-0.6454,0.0,0.0,0.0,0.0,-0.6702,-0.6702,-0.6671,-0.6525,-0.6215,-0.586,-0.578,-0.5415,-0.52,-0.558,-0.572,-0.586,-0.6419,-0.6553,-0.6523,-0.6684,-0.6425,-0.6233,-0.6779,-0.6596,-0.6505,-0.7051,-0.6688,-0.6233,-0.5871,-0.5871,0.0,-0.5963,-0.6325,-0.6596,-0.6776,0.0,0.0,-0.8826,-0.8067,-0.8424,-1.0284,-0.9847,-0.988,-1.0884,-1.0937,-1.1101,-1.1466,-1.1466,-1.2012,-1.2946,-1.2946,-1.3328,-1.4082,-1.2759,-1.2572,0.0,0.0,0.0,0.0,0.0,0.0,0.0,0.0,0.0,0.0,0.0,0.0,0.0,0.0,0.0,-0.5108,-0.5542,-0.5898,-0.6139,-0.6331,-0.6353,-0.6244,-0.6307,-0.6437,-0.6595,-0.6609,-0.6704,-0.6704,-0.6704,-0.6704,-0.6704,-0.635,-0.6204,-0.6218,-0.6349,-0.6416,-0.6398,-0.6779,-0.7051,-0.7051,0.0,0.0,-0.688,-0.6791,-0.6615,-0.6529,-0.6701,-0.6615,-0.6532,-0.6673,-0.6708,-0.6692,-0.6616,-0.6634,-0.6576,-0.6237,-0.6346,-0.661,-0.6274,-0.6396,-0.6702,-0.6702,-0.6702,-0.6681,-0.6661,-0.6576,0.0,-0.65,-0.6423,-0.639,-0.6446,-0.6502,-0.65,-0.6659,-0.6627,-0.6704,-0.6794,-0.6789,-0.6779,-0.7051,-0.6959,-0.6959,-0.7051,-0.7048,-0.6959,-0.6868,-0.6868,-0.6868,-0.6868,-0.6959,-0.7326,-0.8332,-0.7834,-0.7924,-0.8832,-0.808,-0.8055,-0.9164,-0.9948,-1.0474,-1.0665,-1.0691,-1.1101,-1.2108,-1.2108,-1.2668,-1.3893,-1.3893,-1.3899,-1.4088,-1.3802,-1.3795,0.0,0.0,0.0,0.0,0.0,0.0,0.0,0.0,0.0,0.0,0.0,-0.4025,-0.3998,0.0,-0.4592,-0.5259,-0.5613,-0.5942,-0.6315,-0.6491,-0.6568,-0.6531,-0.6531,-0.6616,-0.6769,-0.6793,-0.6868,-0.6868,-0.6868,-0.6868,-0.6868,-0.6688,-0.6505,-0.6413,-0.6592,-0.6633,-0.6498,-0.6868,-0.7139,-0.7139,-0.7051,-0.6959,-0.6959,-0.6959,-0.6868,-0.6868,-0.6868,-0.6868,-0.6868,-0.6868,-0.6877,-0.6915,-0.6871,-0.679,-0.6675,-0.6531,-0.6592,-0.6774,-0.6614,-0.6732,-0.6919,-0.6919,-0.6919,-0.6912,-0.678,-0.6692,-0.647,-0.6342,-0.6198,-0.6117,-0.6324,-0.6336,-0.6443,-0.6702,-0.6837,-0.6868,-0.6959,-0.6959,-0.7051,-0.7051,-0.7139,-0.7139,-0.7139,-0.7139,-0.7139,-0.7139,-0.7139,-0.7139,-0.7139,-0.7139,-0.7323,-0.7963,-0.7598,-0.7507,-0.7963,-0.7598,-0.7507,-0.7963,-0.8516,-0.9164,-0.9725,-0.9767,-1.0519,-1.2296,-1.2298,-1.2856,-1.4088,-1.4088,-1.4088,-1.4088,-1.4088,-1.4088,0.0,0.0,0.0,0.0,0.0,0.0,0.0,-0.1426,-0.1456,-0.143,-0.2593,-0.3514,-0.323,-0.4111,-0.4951,-0.5242,-0.5544,-0.5956,-0.6488,-0.6668,-0.6729,-0.6764,-0.6791,-0.6819,-0.6944,-0.6949,-0.6959,-0.7051,-0.7139,-0.7139,-0.7139,-0.7139,-0.6959,-0.6596,-0.6959,-0.6959,-0.6596,-0.6959,-0.7139,-0.7139,-0.7139,-0.7139,-0.7139,-0.7139,-0.7139,-0.7139,-0.7139,-0.7139,-0.7139,-0.7139,-0.7139,-0.7139,-0.7139,-0.6993,-0.6787,-0.6874,-0.6958,-0.6993,-0.7058,-0.7139,-0.7139,-0.7139,-0.7139,-0.7051,-0.6959,-0.6688,-0.6415,-0.6231,-0.5999,-0.5783,-0.6142,-0.6233,-0.6325,-0.6868,-0.6959,-0.6959,-0.7051,-0.7139,-0.7139,-0.7139,-0.7139,-0.7139,-0.7139,-0.7139,-0.7139,-0.7139,-0.7139,-0.7139,-0.7139,-0.7139,-0.7139,-0.7139,-0.7139,-0.7139,-0.7139,-0.7139,-0.7139,-0.7139,-0.7139,-0.7507,-0.8516,-0.8516,-0.9628,-1.1905,-1.1929,-1.2668,-1.4088,-1.4088,-1.4088,-1.4088,-1.4088,-1.4088,-0.2043,-0.278,-0.3044,-0.0782,-0.022,-0.0226,0.0,-0.0193,-0.021,-0.0195,-0.0347,-0.0962,-0.2503,-0.4592,-0.5886,-0.5075,-0.5829,-0.6519,-0.6759,-0.6813,-0.6946,-0.7061,-0.6929,-0.697,-0.7031,-0.7102,-0.7051,-0.7139,-0.7139,-0.7139,-0.7139,-0.7139,-0.7051,-0.7051,-0.7051,-0.7051,-0.7051,-0.7051,-0.7139,-0.7139,-0.7139,-0.7139,-0.7139,-0.7139,-0.7139,-0.7139,-0.7139,-0.7139,-0.7139,-0.7139,-0.7139,-0.7139,-0.7139,-0.7122,-0.7092,-0.7092,-0.7092,-0.7095,-0.7129,-0.7139,-0.7139,-0.7139,-0.7139,-0.7139,-0.7051,-0.7051,-0.7034,-0.697,-0.691,-0.6959,-0.6959,-0.6959,-0.6959,-0.7051,-0.7051,-0.7051,-0.7139,-0.7139,-0.7139,-0.7139,-0.7139,-0.7139,-0.7139,-0.7139,-0.7139,-0.7139,-0.7139,-0.7139,-0.7139,-0.7139,-0.7139,-0.7139,-0.7139,-0.7139,-0.7139,-0.7139,-0.7139,-0.7139,-0.7139,-0.7143,-0.7323,-0.7323,-0.8424,-1.0755,-1.0807,-1.1922,-1.4088,-1.4088,-1.4088,-1.4088,-1.4088,-1.4088,-0.0729,-0.112,-0.1266,-0.0243,0.0,0.0,0.0,0.0,0.0,0.0,0.0,-0.0233,-0.1021,-0.1921,-0.2923,-0.3683,-0.3798,-0.4542,-0.6544,-0.693,-0.7001,-0.7136,-0.685,-0.6711,-0.6777,-0.6922,-0.6959,-0.6776,-0.6959,-0.7139,-0.7139,-0.7139,-0.7139,-0.7139,-0.7139,-0.7139,-0.7139,-0.7139,-0.7139,-0.7139,-0.7139,-0.7139,-0.7139,-0.7139,-0.7139,-0.7139,-0.7139,-0.7139,-0.7139,-0.7139,-0.7139,-0.7139,-0.7139,-0.7139,-0.7139,-0.7139,-0.7139,-0.7139,-0.7139,-0.7139,-0.7139,-0.7139,-0.7139,-0.7139,-0.7139,-0.7139,-0.7139,-0.7139,-0.7139,-0.7139,-0.7139,-0.7139,-0.7139,-0.7139,-0.7139,-0.7139,-0.7139,-0.7139,-0.7139,-0.7139,-0.7139,-0.7139,-0.7139,-0.7139,-0.7139,-0.7139,-0.7139,-0.7139,-0.7139,-0.7139,-0.7139,-0.7139,-0.7139,-0.7139,-0.7139,-0.7139,-0.7139,-0.7139,-0.7139,-0.7139,-0.7139,-0.7139,-0.7875,-0.954,-1.0257,-1.1376,-1.3043,-1.3795,-1.4088,-1.4088,-1.4088,-1.4088,0.0,0.0,0.0,0.0,0.0,0.0,0.0,0.0,0.0,0.0,0.0,0.0,0.0,0.0,-0.0467,-0.2009,-0.1728,-0.2134,-0.4595,-0.621,-0.7034,-0.6893,-0.6664,-0.6388,-0.616,-0.659,-0.6859,-0.6653,-0.6959,-0.7139,-0.7139,-0.7139,-0.7139,-0.7139,-0.7139,-0.7139,-0.7139,-0.7139,-0.7139,-0.7139,-0.7139,-0.7139,-0.7139,-0.7139,-0.7139,-0.7139,-0.7139,-0.7139,-0.7139,-0.7139,-0.7139,-0.7139,-0.7139,-0.7139,-0.7139,-0.7139,-0.7139,-0.7139,-0.7139,-0.7139,-0.7139,-0.7139,-0.7139,-0.7139,-0.7139,-0.7139,-0.7139,-0.7139,-0.7139,-0.7139,-0.7139,-0.7139,-0.7139,-0.7139,-0.7139,-0.7139,-0.7139,-0.7139,-0.7139,-0.7139,-0.7139,-0.7139,-0.7139,-0.7139,-0.7139,-0.7139,-0.7139,-0.7139,-0.7139,-0.7139,-0.7139,-0.7139,-0.7139,-0.7139,-0.7139,-0.7139,-0.7139,-0.7139,-0.7139,-0.7139,-0.7139,-0.7139,-0.7687,-0.8886,-0.9702,-1.073,-1.1832,-1.2675,-1.3134,-1.314,-1.3425,-1.3607,0.0,0.0,0.0,0.0,0.0,0.0,0.0,0.0,0.0,0.0,0.0,0.0,0.0,0.0,-0.0,-0.0087,-0.0087,-0.0087,-0.0178,-0.4198,-0.6924,-0.641,-0.6408,-0.6176,0.0,-0.5996,-0.6689,-0.701,-0.7051,-0.7139,-0.7139,-0.7139,-0.7139,-0.7139,-0.7139,-0.7139,-0.7139,-0.7139,-0.7139,-0.7139,-0.7139,-0.7139,-0.7139,-0.7139,-0.7139,-0.7139,-0.7139,-0.7139,-0.7139,-0.7139,-0.7139,-0.7139,-0.7139,-0.7139,-0.7139,-0.7139,-0.7139,-0.7139,-0.7139,-0.7139,-0.7139,-0.7139,-0.7139,-0.7139,-0.7139,-0.7139,-0.7139,-0.7139,-0.7139,-0.7139,-0.7139,-0.7139,-0.7139,-0.7139,-0.7139,-0.7139,-0.7139,-0.7139,-0.7139,-0.7139,-0.7139,-0.7139,-0.7139,-0.7139,-0.7139,-0.7139,-0.7139,-0.7139,-0.7139,-0.7139,-0.7139,-0.7139,-0.7139,-0.7139,-0.7139,-0.7139,-0.7139,-0.7139,-0.7139,-0.7139,-0.7139,-0.7139,-0.7687,-0.8886,-0.8966,-0.9483,-1.0642,-1.0731,-1.0731,-1.0731,-1.1832,-1.2385,0.0,0.0,0.0,0.0,0.0,0.0,0.0,0.0,0.0,0.0,0.0,0.0,0.0,0.0,0.0,0.0,0.0,0.0,0.0,-0.1409,-0.3532,-0.6462,-0.6556,0.0,0.0,0.0,0.0,-0.6242,-0.6798,-0.7139,-0.7139,-0.7139,-0.7139,-0.7139,-0.7139,-0.7139,-0.7139,-0.7139,-0.7139,-0.7139,-0.7139,-0.7139,-0.7139,-0.7139,-0.7139,-0.7139,-0.7139,-0.7139,-0.6962,-0.5377,-0.4757,-0.4935,-0.6523,-0.7139,-0.7139,-0.7139,-0.7139,-0.7139,-0.7139,-0.7139,-0.7139,-0.7139,-0.7139,-0.7139,-0.7139,-0.7139,-0.7139,-0.7139,-0.7139,-0.7139,-0.7139,-0.7139,-0.7139,-0.7139,-0.7139,-0.7139,-0.7139,-0.7139,-0.7139,-0.7139,-0.7139,-0.7139,-0.7139,-0.7139,-0.7139,-0.7139,-0.7139,-0.7139,-0.7139,-0.7139,-0.7139,-0.7139,-0.7139,-0.7139,-0.7139,-0.7139,-0.7139,-0.7139,-0.7139,-0.7139,-0.7139,-0.7139,-0.7323,-0.769,-0.8516,-0.9117,-0.9483,-1.0222,-1.0594,-1.0599,-1.181,-1.2261,0.0,0.0,0.0,0.0,0.0,0.0,0.0,0.0,0.0,0.0,0.0,0.0,0.0,0.0,0.0,0.0,0.0,0.0,0.0,0.0,-0.1449,-0.5408,-0.629,-0.6615,0.0,0.0,0.0,-0.6086,-0.6572,-0.6868,-0.6868,-0.6868,-0.6959,-0.7051,-0.7139,-0.7139,-0.7139,-0.7139,-0.7139,-0.7139,-0.7139,-0.7139,-0.7139,-0.7139,-0.7139,-0.7139,-0.7139,-0.7068,-0.7005,-0.5499,-0.3877,-0.2428,-0.3935,-0.5275,-0.6361,-0.6877,-0.7139,-0.7139,-0.7139,-0.7139,-0.7139,-0.7139,-0.7139,-0.7139,-0.7139,-0.7139,-0.7139,-0.7139,-0.7139,-0.7139,-0.7139,-0.7139,-0.7139,-0.7139,-0.7139,-0.7139,-0.7139,-0.7139,-0.7139,-0.7139,-0.7139,-0.7139,-0.7139,-0.7139,-0.7139,-0.7139,-0.7139,-0.7139,-0.7139,-0.7139,-0.7139,-0.7139,-0.7139,-0.7139,-0.7139,-0.7139,-0.7139,-0.7139,-0.7139,-0.7139,-0.7139,-0.7139,-0.7139,-0.7139,-0.7871,-0.8239,-0.8239,-0.8979,-0.935,-0.935,-1.0568,-1.1332,0.0,0.0,0.0,0.0,0.0,0.0,0.0,0.0,0.0,0.0,0.0,0.0,0.0,0.0,0.0,0.0,0.0,0.0,0.0,0.0,-0.0867,-0.318,-0.5565,-0.6761,-0.598,-0.6286,0.0,-0.6564,0.0,-0.6557,-0.6557,-0.6549,-0.6688,-0.7051,-0.7139,-0.7139,-0.7139,-0.7139,-0.7143,-0.7058,-0.7143,-0.7139,-0.7139,-0.6962,-0.6966,-0.6959,-0.7017,-0.7078,-0.7078,-0.6802,-0.4059,0.0,0.0,-0.1889,-0.4777,-0.6441,-0.7139,-0.7139,-0.7139,-0.7139,-0.7139,-0.7139,-0.7139,-0.7139,-0.7139,-0.7139,-0.7139,-0.7139,-0.7139,-0.7139,-0.7139,-0.7139,-0.7139,-0.7139,-0.7139,-0.7139,-0.7139,-0.7139,-0.7139,-0.7139,-0.7139,-0.7139,-0.7139,-0.7139,-0.7139,-0.7139,-0.7139,-0.7139,-0.7139,-0.7139,-0.7139,-0.7139,-0.7139,-0.7139,-0.7139,-0.7139,-0.7139,-0.7139,-0.7139,-0.7139,-0.7139,-0.7139,-0.7139,-0.7139,-0.7139,-0.7139,-0.7139,-0.7139,-0.7139,-0.7139,-0.8332,-0.9488,0.0,0.0,0.0,0.0,0.0,0.0,0.0,0.0,0.0,0.0,0.0,0.0,0.0,0.0,0.0,0.0,0.0,0.0,0.0,0.0,-0.0234,-0.0806,-0.4545,-0.7003,-0.6766,-0.6894,0.0,0.0,-0.696,-0.694,-0.694,-0.6987,-0.6959,-0.7139,-0.7139,-0.7139,-0.7139,-0.7139,-0.7081,-0.7138,-0.7081,-0.7139,-0.7051,-0.5287,-0.4493,-0.4608,-0.6338,-0.7074,-0.6802,-0.3243,-0.1079,0.0,0.0,-0.0539,-0.1706,-0.5625,-0.7139,-0.7139,-0.7139,-0.7139,-0.7139,-0.7139,-0.7139,-0.7139,-0.7139,-0.7139,-0.7139,-0.7139,-0.7139,-0.7139,-0.7139,-0.7139,-0.7139,-0.7139,-0.7139,-0.7139,-0.7139,-0.7139,-0.7139,-0.7139,-0.7231,-0.7323,-0.7323,-0.7415,-0.7507,-0.7507,-0.7507,-0.7415,-0.7143,-0.7139,-0.7139,-0.7139,-0.7139,-0.7139,-0.7139,-0.7139,-0.7139,-0.7139,-0.7139,-0.7139,-0.7139,-0.7139,-0.7139,-0.7139,-0.7139,-0.7139,-0.7139,-0.7139,-0.7139,-0.7139,-0.8332,-0.9684,0.0,0.0,0.0,0.0,0.0,0.0,0.0,0.0,0.0,0.0,0.0,0.0,0.0,0.0,0.0,0.0,0.0,0.0,0.0,0.0,0.0,0.0,-0.238,-0.4378,-0.5494,-0.5544,-0.5542,0.0,-0.6524,-0.6941,-0.6576,-0.6678,-0.6868,-0.7051,-0.7139,-0.7139,-0.7139,-0.7139,-0.7074,-0.7118,-0.7074,-0.7071,-0.7015,-0.5773,-0.3967,-0.2136,0.0,-0.3955,-0.3785,-0.1079,0.0,0.0,0.0,0.0,-0.0359,-0.304,-0.465,-0.573,-0.67,-0.7139,-0.7139,-0.7139,-0.7139,-0.7139,-0.7139,-0.7139,-0.7139,-0.7139,-0.7139,-0.7139,-0.7139,-0.7139,-0.7139,-0.7139,-0.7139,-0.7139,-0.7139,-0.7143,-0.7234,-0.7323,-0.7415,-0.7503,-0.7492,-0.7536,-0.7633,-0.7633,-0.7633,-0.7536,-0.7343,-0.7305,-0.7323,-0.7323,-0.7323,-0.7323,-0.7323,-0.7323,-0.7323,-0.7323,-0.7323,-0.7323,-0.7323,-0.7323,-0.7323,-0.7323,-0.7323,-0.7323,-0.7323,-0.7323,-0.7323,-0.7323,-0.8055,-0.935,0.0,0.0,0.0,0.0,0.0,0.0,0.0,0.0,0.0,0.0,0.0,0.0,0.0,0.0,0.0,0.0,0.0,0.0,0.0,0.0,0.0,0.0,0.0,-0.0807,-0.2948,-0.3413,-0.359,-0.3643,-0.5523,-0.6337,-0.5526,-0.5794,-0.6157,-0.6612,-0.6612,-0.6612,-0.6612,-0.6962,-0.6962,-0.6612,-0.6972,-0.7104,-0.7078,-0.6433,-0.3877,0.0,0.0,0.0,0.0,0.0,0.0,0.0,0.0,0.0,0.0,0.0,-0.1529,-0.3961,-0.6269,-0.6976,-0.6792,-0.7054,-0.7139,-0.7139,-0.7139,-0.7139,-0.7139,-0.7139,-0.7139,-0.7139,-0.7139,-0.7139,-0.7139,-0.7143,-0.7143,-0.7143,-0.7143,-0.7296,-0.7448,-0.7541,-0.7631,-0.7618,-0.7645,-0.763,-0.763,-0.763,-0.763,-0.763,-0.763,-0.7584,-0.7631,-0.7631,-0.7631,-0.7631,-0.7631,-0.7631,-0.7631,-0.7631,-0.7631,-0.7631,-0.7631,-0.7631,-0.7631,-0.7631,-0.7631,-0.7631,-0.7631,-0.7631,-0.7631,-0.7631,-0.7631,-0.8849,0.0,0.0,0.0,0.0,0.0,0.0,0.0,0.0,0.0,0.0,0.0,0.0,0.0,0.0,0.0,0.0,0.0,0.0,0.0,0.0,0.0,0.0,0.0,-0.018,-0.0628,-0.2428,0.0,0.0,-0.3956,-0.4137,-0.3956,-0.4045,-0.4137,-0.4226,-0.4226,-0.4226,-0.4226,-0.6171,-0.6083,-0.4226,-0.614,-0.7065,-0.6985,-0.3061,-0.0809,0.0,0.0,0.0,0.0,0.0,0.0,0.0,0.0,0.0,0.0,0.0,-0.1529,-0.3967,-0.6326,-0.6233,-0.5399,-0.6707,-0.7139,-0.7139,-0.7139,-0.7139,-0.7139,-0.7139,-0.7139,-0.7139,-0.7139,-0.7139,-0.7143,-0.7323,-0.7323,-0.7415,-0.7507,-0.7533,-0.7583,-0.7583,-0.7684,-0.7717,-0.7717,-0.7836,-0.7939,-0.7939,-0.7939,-0.7939,-0.7939,-0.7746,-0.7583,-0.7583,-0.7583,-0.7583,-0.7583,-0.7583,-0.7583,-0.7583,-0.7583,-0.7583,-0.7583,-0.7583,-0.7583,-0.7583,-0.7583,-0.7583,-0.7583,-0.7583,-0.7583,-0.7583,-0.7583,-0.8492,0.0,0.0,0.0,0.0,0.0,0.0,0.0,0.0,0.0,0.0,0.0,0.0,0.0,0.0,0.0,0.0,0.0,0.0,0.0,0.0,0.0,0.0,0.0,0.0,0.0,-0.1079,-0.1709,-0.1709,-0.1709,-0.1709,-0.1709,-0.1709,-0.2882,-0.5333,-0.3061,-0.1709,-0.1709,-0.2865,-0.4127,-0.5425,-0.4059,-0.3424,-0.3332,-0.1079,0.0,0.0,0.0,0.0,0.0,0.0,0.0,0.0,0.0,0.0,0.0,0.0,-0.0719,-0.1889,-0.2971,-0.3785,-0.4504,-0.6438,-0.7139,-0.7139,-0.7139,-0.7139,-0.7139,-0.7139,-0.7139,-0.7139,-0.7231,-0.7234,-0.7323,-0.7507,-0.7475,-0.7513,-0.7705,-0.7734,-0.7733,-0.7836,-0.7836,-0.7939,-0.7939,-0.7939,-0.8038,-0.8038,-0.8038,-0.8038,-0.8038,-0.7935,-0.7836,-0.7836,-0.7836,-0.7836,-0.7836,-0.7836,-0.7836,-0.7836,-0.7836,-0.7836,-0.7836,-0.7836,-0.7836,-0.7836,-0.7836,-0.7836,-0.7836,-0.7836,-0.7836,-0.7836,-0.7836,-0.8556,0.0,0.0,0.0,0.0,0.0,0.0,0.0,0.0,0.0,0.0,0.0,0.0,0.0,0.0,0.0,0.0,0.0,0.0,0.0,0.0,0.0,0.0,0.0,0.0,0.0,0.0,0.0,0.0,0.0,0.0,0.0,0.0,-0.1754,-0.5473,-0.1939,0.0,0.0,0.0,-0.1921,-0.5515,-0.1798,0.0,0.0,0.0,0.0,0.0,0.0,0.0,0.0,0.0,0.0,0.0,0.0,0.0,0.0,0.0,0.0,0.0,0.0,-0.1619,-0.3959,-0.6346,-0.7139,-0.7139,-0.7139,-0.7139,-0.7139,-0.7143,-0.7143,-0.7231,-0.7415,-0.7424,-0.7521,-0.7615,-0.7695,-0.7733,-0.7836,-0.7836,-0.7836,-0.7939,-0.8038,-0.8038,-0.8038,-0.8038,-0.8038,-0.8038,-0.8038,-0.8038,-0.8038,-0.8038,-0.8038,-0.8038,-0.8038,-0.8038,-0.8038,-0.8038,-0.8038,-0.8038,-0.8038,-0.8038,-0.8038,-0.8038,-0.8038,-0.8038,-0.8038,-0.8038,-0.8038,-0.8038,-0.8038,-0.8038,-0.8038,-0.8556,0.0,0.0,0.0,0.0,0.0,0.0,0.0,0.0,0.0,0.0,0.0,0.0,0.0,0.0,0.0,0.0,0.0,0.0,0.0,0.0,0.0,0.0,0.0,0.0,0.0,0.0,0.0,0.0,0.0,0.0,0.0,0.0,-0.02,-0.06,-0.02,0.0,0.0,0.0,-0.0193,-0.0629,-0.018,0.0,0.0,0.0,0.0,0.0,0.0,0.0,0.0,0.0,0.0,0.0,0.0,0.0,0.0,0.0,0.0,0.0,0.0,-0.1619,-0.3959,-0.6346,-0.7139,-0.7139,-0.7139,-0.7139,-0.7143,-0.7323,-0.7415,-0.7415,-0.7507,-0.7546,-0.7651,-0.7753,-0.7898,-0.7939,-0.7939,-0.7939,-0.7939,-0.8038,-0.8038,-0.8038,-0.8038,-0.8038,-0.8038,-0.8038,-0.8038,-0.8038,-0.8038,-0.8038,-0.8038,-0.8038,-0.8038,-0.8038,-0.8038,-0.8038,-0.8038,-0.8038,-0.8038,-0.8038,-0.8038,-0.8038,-0.8038,-0.8038,-0.8038,-0.8038,-0.8038,-0.8038,-0.8038,-0.8038,-0.8038,-0.8041,0.0,0.0,0.0,0.0,0.0,0.0,0.0,0.0,0.0,0.0,0.0,0.0,0.0,0.0,0.0,0.0,0.0,0.0,0.0,0.0,0.0,0.0,0.0,0.0,0.0,0.0,0.0,0.0,0.0,0.0,0.0,0.0,0.0,0.0,0.0,0.0,0.0,0.0,0.0,0.0,0.0,0.0,0.0,0.0,0.0,0.0,0.0,0.0,0.0,0.0,0.0,0.0,0.0,0.0,0.0,0.0,0.0,-0.045,-0.3243,-0.3967,-0.3959,-0.6346,-0.7139,-0.7139,-0.7139,-0.7143,-0.7323,-0.7415,-0.7495,-0.7583,-0.7682,-0.7761,-0.7836,-0.7939,-0.7939,-0.8038,-0.8038,-0.8038,-0.8038,-0.8038,-0.8038,-0.8038,-0.8038,-0.8038,-0.8038,-0.8038,-0.8038,-0.8038,-0.8038,-0.8038,-0.8038,-0.8038,-0.8038,-0.8038,-0.8038,-0.8038,-0.8038,-0.8038,-0.8038,-0.8038,-0.8038,-0.8038,-0.8038,-0.8038,-0.8038,-0.8038,-0.8038,-0.8038,-0.8038,-0.8038,-0.8038,-0.8038,0.0,0.0,0.0,0.0,0.0,0.0,0.0,0.0,0.0,0.0,0.0,0.0,0.0,0.0,0.0,0.0,0.0,0.0,0.0,0.0,0.0,0.0,0.0,0.0,0.0,0.0,0.0,0.0,0.0,0.0,0.0,0.0,0.0,0.0,0.0,0.0,0.0,0.0,0.0,0.0,0.0,0.0,0.0,0.0,0.0,0.0,0.0,0.0,0.0,0.0,0.0,0.0,0.0,0.0,0.0,0.0,0.0,-0.0719,-0.5425,-0.6051,-0.4935,-0.6523,-0.7143,-0.7231,-0.7231,-0.7323,-0.7453,-0.7451,-0.7614,-0.7733,-0.7836,-0.7939,-0.8038,-0.8038,-0.8038,-0.8038,-0.8038,-0.8038,-0.8041,-0.8041,-0.8041,-0.8141,-0.8144,-0.8144,-0.8144,-0.8144,-0.8144,-0.8144,-0.8144,-0.8141,-0.8041,-0.8041,-0.8041,-0.8038,-0.8038,-0.8038,-0.8038,-0.8038,-0.8038,-0.8038,-0.8038,-0.8038,-0.8038,-0.8038,-0.8038,-0.8038,-0.8038,-0.8038,-0.8038,-0.8038,-0.8038,-0.8038,0.0,0.0,0.0,0.0,0.0,0.0,0.0,0.0,0.0,0.0,0.0,0.0,0.0,0.0,0.0,0.0,0.0,0.0,0.0,0.0,0.0,0.0,0.0,0.0,0.0,0.0,0.0,0.0,0.0,0.0,0.0,0.0,0.0,0.0,0.0,0.0,0.0,0.0,0.0,0.0,0.0,0.0,0.0,0.0,0.0,0.0,0.0,0.0,0.0,0.0,0.0,0.0,0.0,0.0,0.0,0.0,0.0,-0.0719,-0.5425,-0.7118,-0.7051,-0.7051,-0.7231,-0.7415,-0.7415,-0.7415,-0.7451,-0.7761,-0.7932,-0.8038,-0.8038,-0.8038,-0.8038,-0.8038,-0.8038,-0.8038,-0.8038,-0.8038,-0.8041,-0.8247,-0.8247,-0.8347,-0.8453,-0.8453,-0.8453,-0.8453,-0.8453,-0.8453,-0.8453,-0.835,-0.8247,-0.8247,-0.8141,-0.8038,-0.8038,-0.8038,-0.8038,-0.8038,-0.8038,-0.8038,-0.8038,-0.8038,-0.8038,-0.8038,-0.8038,-0.8038,-0.8038,-0.8038,-0.8038,-0.8038,-0.8038,-0.8038,0.0,0.0,0.0,0.0,0.0,0.0,0.0,0.0,0.0,0.0,0.0,0.0,0.0,0.0,0.0,0.0,0.0,0.0,0.0,0.0,0.0,0.0,0.0,0.0,0.0,0.0,0.0,0.0,0.0,0.0,0.0,0.0,0.0,0.0,0.0,0.0,0.0,0.0,0.0,0.0,0.0,0.0,0.0,0.0,0.0,0.0,0.0,0.0,0.0,0.0,0.0,0.0,0.0,0.0,0.0,0.0,0.0,-0.045,-0.3605,-0.5746,-0.7139,-0.7234,-0.7323,-0.7403,-0.7631,-0.7657,-0.7697,-0.7885,-0.7939,-0.8038,-0.8038,-0.8038,-0.8038,-0.8038,-0.8038,-0.8038,-0.8038,-0.8141,-0.8244,-0.8247,-0.8374,-0.8434,-0.8545,-0.8545,-0.8545,-0.8545,-0.8545,-0.8545,-0.8545,-0.8434,-0.8391,-0.8292,-0.8247,-0.8144,-0.8038,-0.8038,-0.8038,-0.8038,-0.8038,-0.8038,-0.8038,-0.8038,-0.8038,-0.8038,-0.8038,-0.8038,-0.8038,-0.8038,-0.8038,-0.8038,-0.8038,-0.8038,0.0,0.0,0.0,0.0,0.0,0.0,0.0,0.0,0.0,0.0,0.0,0.0,0.0,0.0,0.0,0.0,0.0,0.0,0.0,0.0,0.0,0.0,0.0,0.0,0.0,0.0,0.0,0.0,0.0,0.0,0.0,0.0,0.0,0.0,0.0,0.0,0.0,0.0,0.0,0.0,0.0,0.0,0.0,0.0,0.0,0.0,0.0,0.0,0.0,0.0,0.0,0.0,0.0,0.0,0.0,0.0,0.0,-0.036,-0.279,-0.5203,-0.7323,-0.7415,-0.7479,-0.7553,-0.7825,-0.7836,-0.7935,-0.7939,-0.8038,-0.8038,-0.8038,-0.8038,-0.8038,-0.8038,-0.8041,-0.8141,-0.8141,-0.8247,-0.8417,-0.8443,-0.8572,-0.8598,-0.8598,-0.8598,-0.8598,-0.8598,-0.8598,-0.8598,-0.8598,-0.8598,-0.857,-0.8418,-0.8282,-0.8244,-0.8041,-0.8038,-0.8038,-0.8038,-0.8038,-0.8038,-0.8038,-0.8038,-0.8038,-0.8038,-0.8038,-0.8038,-0.8038,-0.8038,-0.8038,-0.8038,-0.8038,-0.8072,0.0,0.0,0.0,0.0,0.0,0.0,0.0,0.0,0.0,0.0,0.0,0.0,0.0,0.0,0.0,0.0,0.0,0.0,0.0,0.0,0.0,0.0,0.0,0.0,0.0,0.0,0.0,0.0,0.0,0.0,0.0,0.0,0.0,0.0,0.0,0.0,0.0,0.0,0.0,0.0,0.0,0.0,0.0,0.0,0.0,0.0,0.0,0.0,0.0,0.0,0.0,0.0,0.0,0.0,0.0,0.0,-0.009,-0.0629,-0.288,-0.5384,-0.7606,-0.7467,-0.7584,-0.7836,-0.7939,-0.8038,-0.8038,-0.8038,-0.8038,-0.8038,-0.8038,-0.8038,-0.8038,-0.8038,-0.8144,-0.8261,-0.8303,-0.8414,-0.8586,-0.8716,-0.8712,-0.8712,-0.8826,-0.894,-0.894,-0.894,-0.894,-0.894,-0.894,-0.8826,-0.8709,-0.8484,-0.8401,-0.8244,-0.8041,-0.8038,-0.8038,-0.8038,-0.8038,-0.8038,-0.8038,-0.8038,-0.8038,-0.8038,-0.8038,-0.8038,-0.8038,-0.8038,-0.8038,-0.8041,-0.8041,-0.8126,0.0,0.0,0.0,0.0,0.0,0.0,0.0,0.0,0.0,0.0,0.0,0.0,0.0,0.0,0.0,0.0,0.0,0.0,0.0,0.0,0.0,0.0,0.0,0.0,0.0,0.0,0.0,0.0,0.0,0.0,0.0,0.0,0.0,0.0,0.0,0.0,0.0,0.0,0.0,0.0,0.0,0.0,0.0,0.0,0.0,0.0,0.0,0.0,0.0,0.0,0.0,0.0,0.0,0.0,0.0,0.0,-0.1259,-0.3153,-0.3695,-0.5565,-0.7588,-0.7678,-0.7825,-0.7939,-0.8038,-0.8038,-0.8038,-0.8038,-0.8038,-0.8038,-0.8038,-0.8038,-0.8038,-0.8038,-0.8144,-0.8271,-0.8301,-0.8504,-0.8659,-0.8686,-0.8826,-0.8826,-0.8937,-0.894,-0.894,-0.894,-0.894,-0.894,-0.894,-0.8826,-0.8712,-0.8484,-0.8505,-0.8347,-0.8041,-0.8038,-0.8038,-0.8038,-0.8038,-0.8038,-0.8038,-0.8038,-0.8038,-0.8038,-0.8038,-0.8038,-0.8038,-0.8038,-0.8041,-0.8244,-0.8244,-0.8348,0.0392,0.0,0.0,0.0,0.0,0.0,0.0,0.0,0.0,0.0,0.0,0.0,0.0,0.0,0.0,0.0,0.0,0.0,0.0,0.0,0.0,0.0,0.0,0.0,0.0,0.0,0.0,0.0,0.0,0.0,0.0,0.0,0.0,0.0,0.0,0.0,0.0,0.0,0.0,0.0,0.0,0.0,0.0,0.0,0.0,0.0,0.0,0.0,0.0,0.0,0.0,0.0,0.0,0.0,0.0,0.0,-0.0899,-0.2534,-0.4993,-0.6652,-0.7701,-0.7835,-0.7939,-0.8038,-0.8038,-0.8038,-0.8038,-0.8038,-0.8038,-0.8038,-0.8038,-0.8038,-0.8038,-0.8038,-0.8244,-0.8414,-0.8362,-0.8598,-0.8826,-0.8826,-0.8826,-0.894,-0.894,-0.894,-0.894,-0.894,-0.894,-0.894,-0.894,-0.894,-0.8826,-0.8484,-0.8508,-0.835,-0.8041,-0.8038,-0.8038,-0.8038,-0.8038,-0.8038,-0.8038,-0.8038,-0.8038,-0.8038,-0.8038,-0.8038,-0.8038,-0.8141,-0.8144,-0.8254,-0.8326,-0.8435,0.1397,0.0504,0.0224,0.0056,0.0,0.0,0.0,0.0,0.0,0.0,0.0,0.0,0.0,0.0,0.0,0.0,0.0,0.0,0.0,0.0,0.0,0.0,0.0,0.0,0.0,0.0,0.0,0.0,0.0,0.0,0.0,0.0,0.0,0.0,0.0,0.0,0.0,0.0,0.0,0.0,0.0,0.0,0.0,0.0,0.0,0.0,0.0,0.0,0.0,0.0,0.0,0.0,0.0,0.0,-0.0092,-0.0916,-0.1191,-0.185,-0.6465,-0.7902,-0.7733,-0.7939,-0.8038,-0.8038,-0.8038,-0.8038,-0.8038,-0.8038,-0.8038,-0.8038,-0.8038,-0.8038,-0.8038,-0.8038,-0.8247,-0.8519,-0.8474,-0.8712,-0.894,-0.894,-0.894,-0.894,-0.894,-0.894,-0.894,-0.894,-0.894,-0.894,-0.894,-0.894,-0.8826,-0.8484,-0.8508,-0.835,-0.8041,-0.8038,-0.8038,-0.8038,-0.8038,-0.8038,-0.8038,-0.8038,-0.8038,-0.8038,-0.8038,-0.8041,-0.8041,-0.8244,-0.8296,-0.8397,-0.8481,-0.8577,0.3956,0.2683,0.129,0.028,0.0,0.0,0.0,0.0,0.0,0.0,0.0,0.0,0.0,0.0,0.0,0.0,0.0,0.0,0.0,0.0,0.0,0.0,0.0,0.0,0.0,0.0,0.0,0.0,0.0,0.0,0.0,0.0,0.0,0.0,0.0,0.0,0.0,0.0,0.0,0.0,0.0,0.0,0.0,0.0,0.0,0.0,0.0,0.0,0.0,0.0,0.0,0.0,0.0,0.0,-0.0596,-0.5085,-0.6802,-0.6915,-0.7717,-0.8006,-0.7939,-0.8038,-0.8038,-0.8038,-0.8038,-0.8038,-0.8038,-0.8038,-0.8038,-0.8038,-0.8038,-0.8038,-0.8038,-0.8038,-0.8247,-0.8519,-0.8474,-0.8712,-0.894,-0.894,-0.894,-0.894,-0.894,-0.894,-0.894,-0.894,-0.894,-0.894,-0.894,-0.894,-0.8826,-0.8484,-0.8508,-0.835,-0.8041,-0.8038,-0.8038,-0.8038,-0.8038,-0.8038,-0.8038,-0.8038,-0.8038,-0.8038,-0.8038,-0.8041,-0.8247,-0.8247,-0.8409,-0.8689,-0.8669,-0.8689,0.4519,0.3907,0.3187,0.275,0.18,0.1119,0.1549,0.1291,0.081,0.0139,0.1006,0.1962,0.1953,0.2992,0.2983,0.04,0.0,0.0,0.0,0.0,0.0,0.0,0.0,0.0,0.0,0.0,0.0,0.0,0.0,0.0,0.0,0.0,0.0,0.0,0.0,0.0,0.0,0.0,0.0,0.0,0.0,0.0,0.0,0.0,0.0,0.0,0.0,0.0,0.0,0.0,0.0,0.0,0.0,0.0,-0.0303,-0.2731,-0.5461,-0.7995,-0.7995,-0.7969,-0.8038,-0.8038,-0.8038,-0.8038,-0.8038,-0.8038,-0.8038,-0.8038,-0.8038,-0.8038,-0.8038,-0.8038,-0.8038,-0.8038,-0.8247,-0.8519,-0.8474,-0.8712,-0.894,-0.894,-0.894,-0.894,-0.894,-0.894,-0.894,-0.894,-0.894,-0.894,-0.894,-0.894,-0.8826,-0.8484,-0.8508,-0.835,-0.8041,-0.8038,-0.8038,-0.8038,-0.8038,-0.8038,-0.8038,-0.8038,-0.8038,-0.8038,-0.8141,-0.8244,-0.8347,-0.8474,-0.8558,-0.8712,-0.8823,-0.8826,0.4519,0.446,0.4516,0.4803,0.3721,0.2666,0.339,0.2994,0.2267,0.1319,0.2392,0.3473,0.3596,0.5344,0.5649,0.2232,0.0718,0.0,0.0,0.0,0.0,0.0,0.0,0.0,0.0,0.0,0.0,0.0,0.0,0.0,0.0,0.0,0.0,0.0,0.0,0.0,0.0,0.0,0.0,0.0,0.0,0.0,0.0,0.0,0.0,0.0,0.0,0.0,0.0,0.0,0.0,0.0,0.0,0.0,0.0,0.0,-0.2616,-0.6329,-0.7537,-0.8038,-0.8038,-0.8038,-0.8038,-0.8038,-0.8038,-0.8038,-0.8038,-0.8038,-0.8038,-0.8038,-0.8038,-0.8038,-0.8038,-0.8038,-0.8247,-0.8519,-0.8474,-0.8712,-0.894,-0.894,-0.894,-0.894,-0.894,-0.894,-0.894,-0.894,-0.894,-0.894,-0.894,-0.894,-0.8826,-0.8598,-0.8508,-0.835,-0.8041,-0.8041,-0.8041,-0.8041,-0.8041,-0.8038,-0.8038,-0.8041,-0.8041,-0.8041,-0.8247,-0.8317,-0.8357,-0.8602,-0.8712,-0.8712,-0.8826,-0.894,0.4519,0.4346,0.4336,0.4801,0.4728,0.4629,0.4723,0.4748,0.4647,0.454,0.3776,0.3256,0.3559,0.4875,0.6061,0.6489,0.2861,0.0,0.0,0.0,0.0,0.0,0.0,0.0,0.0,0.0,0.0,0.0,0.0,0.0,0.0,0.0,0.0,0.0,0.0,0.0,0.0,0.0,0.0,0.0,0.0,0.0,0.0,0.0,0.0,0.0,0.0,0.0,0.0,0.0,0.0,0.0,0.0,0.0,0.0,0.0,-0.0202,-0.131,-0.6226,-0.8038,-0.8038,-0.8038,-0.8038,-0.8038,-0.8038,-0.8038,-0.8038,-0.8038,-0.8038,-0.8038,-0.8038,-0.8038,-0.8038,-0.8038,-0.8247,-0.8519,-0.8474,-0.8712,-0.894,-0.894,-0.894,-0.894,-0.894,-0.894,-0.894,-0.894,-0.894,-0.894,-0.894,-0.894,-0.8826,-0.8712,-0.8612,-0.835,-0.8041,-0.8144,-0.8247,-0.8247,-0.8141,-0.8038,-0.8038,-0.8144,-0.8247,-0.8247,-0.845,-0.8529,-0.8649,-0.8692,-0.8712,-0.8937,-0.8937,-0.894,0.4519,0.4346,0.4346,0.5033,0.4743,0.4496,0.5297,0.5034,0.4728,0.5122,0.4578,0.0,0.446,0.5272,0.6006,0.6225,0.5225,0.3424,0.045,0.0,0.0,0.0,0.0,0.0,0.0,0.0,0.0,0.0,0.0,0.0,0.0,0.0,0.0,0.0,0.0,0.0,0.0,0.0,0.0,0.0,0.0,0.0,0.0,0.0,0.0,0.0,0.0,0.0,0.0,0.0,0.0,0.0,0.0,0.0,-0.0404,-0.3745,-0.3949,-0.3033,-0.6684,-0.7979,-0.8038,-0.8038,-0.8038,-0.8038,-0.8038,-0.8038,-0.8038,-0.8038,-0.8038,-0.8038,-0.8038,-0.8038,-0.8038,-0.8038,-0.8247,-0.8519,-0.8474,-0.8712,-0.894,-0.894,-0.894,-0.894,-0.894,-0.894,-0.894,-0.894,-0.894,-0.894,-0.894,-0.894,-0.8826,-0.8712,-0.8612,-0.845,-0.8347,-0.835,-0.8411,-0.8464,-0.8354,-0.8347,-0.8347,-0.835,-0.8428,-0.8375,-0.8598,-0.8602,-0.8712,-0.8826,-0.8826,-0.894,-0.894,-0.894,0.4405,0.4291,0.4303,0.4992,0.4609,0.4332,0.5549,0.5104,0.4711,0.5339,0.5333,0.5253,0.5435,0.0,0.0,0.0,0.5607,0.4786,0.0629,0.0,0.0,0.0,0.0,0.0,0.0,0.0,0.0,0.0,0.0,0.0,0.0,0.0,0.0,0.0,0.0,0.0,0.0,0.0,0.0,0.0,0.0,0.0,0.0,0.0,0.0,0.0,0.0,0.0,0.0,0.0,0.0,0.0,0.0,-0.101,-0.2933,-0.6611,-0.6805,-0.5555,-0.74,-0.7985,-0.8038,-0.8038,-0.8038,-0.8038,-0.8038,-0.8038,-0.8038,-0.8038,-0.8038,-0.8038,-0.8038,-0.8038,-0.8038,-0.8038,-0.8247,-0.8519,-0.8474,-0.8712,-0.894,-0.894,-0.894,-0.894,-0.894,-0.894,-0.894,-0.894,-0.894,-0.894,-0.894,-0.894,-0.8826,-0.8712,-0.8574,-0.8536,-0.8536,-0.8536,-0.8608,-0.8572,-0.8554,-0.8539,-0.8536,-0.8536,-0.852,-0.8589,-0.8712,-0.8712,-0.8712,-0.8826,-0.894,-0.894,-0.894,-0.894,0.4226,0.4113,0.4094,0.4588,0.4366,0.4289,0.5518,0.5103,0.4737,0.5467,0.6164,0.6592,0.6363,0.6268,0.0,0.2674,0.3514,0.3424,0.045,0.0,0.0,0.0,0.0,0.0,0.0,0.0,0.0,0.0,0.0,0.0,0.0,0.0,0.0,0.0,0.0,0.0,0.0,0.0,0.0,0.0,0.0,0.0,0.0,0.0,0.0,0.0,0.0,0.0,0.0,0.0,0.0,0.0,0.0,-0.3237,-0.7958,-0.7955,-0.8009,-0.8038,-0.8038,-0.8038,-0.8038,-0.8038,-0.8038,-0.8038,-0.8038,-0.8038,-0.8038,-0.8038,-0.8038,-0.8038,-0.8038,-0.8038,-0.8038,-0.8038,-0.8247,-0.8519,-0.8474,-0.8712,-0.894,-0.894,-0.894,-0.894,-0.894,-0.894,-0.894,-0.894,-0.894,-0.894,-0.894,-0.894,-0.8826,-0.8712,-0.8712,-0.8598,-0.8484,-0.8598,-0.8712,-0.8712,-0.8826,-0.8823,-0.8484,-0.8598,-0.8712,-0.8712,-0.8826,-0.894,-0.894,-0.894,-0.894,-0.894,-0.894,-0.894,0.4511,0.4281,0.4091,0.4463,0.443,0.4429,0.464,0.4805,0.5097,0.5621,0.5962,0.6061,0.5586,0.6213,0.0,0.4184,0.243,0.0989,0.009,0.0,0.0,0.0,0.0,0.0,0.0,0.0,0.0,0.0,0.0,0.0,0.0,0.0,0.0,0.0,0.0,0.0,0.0,0.0,0.0,0.0,0.0,0.0,0.0,0.0,0.0,0.0,0.0,0.0,0.0,0.0,0.0,0.0,0.0,-0.3237,-0.7951,-0.7995,-0.7959,-0.8038,-0.8038,-0.8038,-0.8038,-0.8038,-0.8038,-0.8038,-0.8038,-0.8038,-0.8038,-0.8038,-0.8038,-0.8038,-0.8038,-0.8141,-0.8244,-0.8244,-0.835,-0.8523,-0.8587,-0.8823,-0.894,-0.894,-0.894,-0.894,-0.894,-0.894,-0.894,-0.894,-0.894,-0.894,-0.894,-0.894,-0.8937,-0.8826,-0.8826,-0.8826,-0.8826,-0.8826,-0.8826,-0.8826,-0.8826,-0.8826,-0.8826,-0.8826,-0.8826,-0.8826,-0.8826,-0.894,-0.894,-0.894,-0.894,-0.894,-0.894,-0.894,0.4584,0.4338,0.4224,0.4781,0.4674,0.4412,0.4514,0.4821,0.5284,0.6004,0.6234,0.6242,0.5908,0.6567,0.0,0.5695,0.243,0.0,0.0,0.0,0.0,0.0,0.0,0.0,0.0,0.0,0.0,0.0,0.0,0.0,0.0,0.0,0.0,0.0,0.0,0.0,0.0,0.0,0.0,0.0,0.0,0.0,0.0,0.0,0.0,0.0,0.0,0.0,0.0,0.0,0.0,-0.0202,-0.2326,-0.4459,-0.6499,-0.7559,-0.8038,-0.8038,-0.8038,-0.8038,-0.8038,-0.8038,-0.8038,-0.8038,-0.8038,-0.8038,-0.8041,-0.8141,-0.8141,-0.8144,-0.8144,-0.8247,-0.835,-0.8347,-0.8435,-0.8604,-0.8636,-0.8826,-0.894,-0.894,-0.894,-0.894,-0.894,-0.894,-0.894,-0.894,-0.894,-0.894,-0.894,-0.894,-0.894,-0.894,-0.894,-0.894,-0.894,-0.894,-0.894,-0.894,-0.894,-0.894,-0.894,-0.894,-0.894,-0.894,-0.894,-0.894,-0.894,-0.894,-0.894,-0.894,-0.894,-0.894,0.4558,0.4372,0.4412,0.5254,0.4846,0.4365,0.5054,0.5195,0.5501,0.6503,0.6716,0.6799,0.6783,0.6796,0.6706,0.6523,0.279,0.0,0.0,0.0,0.0,0.0,0.0,0.0,0.0,0.0,0.0,0.0,0.0,0.0,0.0,0.0,0.0,0.0,0.0,0.0,0.0,0.0,0.0,0.0,0.0,0.0,0.0,0.0,0.0,0.0,0.0,0.0,0.0,0.0,0.0,-0.0505,-0.5891,-0.6502,-0.4649,-0.7144,-0.8038,-0.8038,-0.8038,-0.8038,-0.8038,-0.8038,-0.8038,-0.8038,-0.8041,-0.8041,-0.8041,-0.8247,-0.8285,-0.8331,-0.8435,-0.8535,-0.8435,-0.8331,-0.854,-0.8712,-0.8712,-0.8826,-0.894,-0.894,-0.894,-0.894,-0.894,-0.894,-0.894,-0.894,-0.894,-0.894,-0.894,-0.894,-0.894,-0.894,-0.894,-0.894,-0.894,-0.894,-0.894,-0.894,-0.894,-0.894,-0.894,-0.894,-0.894,-0.894,-0.894,-0.894,-0.894,-0.894,-0.894,-0.894,-0.894,-0.894,0.4927,0.4707,0.4458,0.4458,0.433,0.4556,0.5911,0.6018,0.5972,0.6704,0.6612,0.5977,0.4572,0.4391,0.3762,0.1798,0.0629,0.0,0.0,0.0,0.0,0.0,0.0,0.0,0.0,0.0,0.0,0.0,0.0,0.0,0.0,0.0,0.0,0.0,0.0,0.0,0.0,0.0,0.0,0.0,0.0,0.0,0.0,0.0,0.0,0.0,0.0,0.0,0.0,0.0,0.0,-0.0505,-0.5891,-0.7607,-0.7244,-0.7743,-0.8038,-0.8038,-0.8038,-0.8038,-0.8038,-0.8038,-0.8038,-0.8041,-0.8144,-0.8244,-0.8247,-0.845,-0.8381,-0.8301,-0.8412,-0.8524,-0.8632,-0.8632,-0.862,-0.8712,-0.8826,-0.8826,-0.894,-0.894,-0.894,-0.894,-0.894,-0.894,-0.894,-0.894,-0.894,-0.894,-0.894,-0.894,-0.894,-0.894,-0.894,-0.894,-0.894,-0.894,-0.894,-0.894,-0.894,-0.894,-0.894,-0.894,-0.894,-0.894,-0.894,-0.894,-0.894,-0.894,-0.894,-0.894,-0.894,-0.894,0.4827,0.4771,0.4825,0.4861,0.5046,0.5371,0.6122,0.629,0.6505,0.6871,0.6868,0.6419,0.5445,0.437,0.2765,0.0358,0.0,0.0,0.0,0.0,0.0,0.0,0.0,0.0,0.0,0.0,0.0,0.0,0.0,0.0,0.0,0.0,0.0,0.0,0.0,0.0,0.0,0.0,0.0,0.0,0.0,0.0,0.0,0.0,0.0,0.0,0.0,0.0,0.0,0.0,0.0,-0.0404,-0.4459,-0.6877,-0.8038,-0.8038,-0.8038,-0.8038,-0.8038,-0.8038,-0.8038,-0.8038,-0.8041,-0.8144,-0.8247,-0.8347,-0.8469,-0.8577,-0.8585,-0.8494,-0.8647,-0.8742,-0.8712,-0.8826,-0.8826,-0.8826,-0.8937,-0.894,-0.894,-0.894,-0.894,-0.894,-0.894,-0.894,-0.894,-0.894,-0.894,-0.894,-0.894,-0.894,-0.894,-0.894,-0.894,-0.894,-0.894,-0.894,-0.894,-0.894,-0.894,-0.894,-0.894,-0.894,-0.894,-0.894,-0.894,-0.894,-0.894,-0.894,-0.894,-0.894,-0.894,-0.894,0.4596,0.4785,0.5152,0.5492,0.5822,0.6048,0.6143,0.6357,0.6688,0.7051,0.7139,0.7143,0.7058,0.5528,0.3566,0.152,0.0537,0.0,0.0,0.0,0.0,0.0,0.0,0.0,0.0,0.0,0.0,0.0,0.0,0.0,0.0,0.0,0.0,0.0,0.0,0.0,0.0,0.0,0.0,0.0,0.0,0.0,0.0,0.0,0.0,0.0,0.0,0.0,0.0,0.0,0.0,-0.0202,-0.2427,-0.5247,-0.7959,-0.8045,-0.8038,-0.8038,-0.8038,-0.8038,-0.8038,-0.8041,-0.8144,-0.8268,-0.8372,-0.8438,-0.8598,-0.8712,-0.8712,-0.8729,-0.8907,-0.8876,-0.894,-0.894,-0.894,-0.894,-0.894,-0.894,-0.894,-0.894,-0.894,-0.894,-0.894,-0.894,-0.894,-0.894,-0.894,-0.894,-0.894,-0.894,-0.894,-0.894,-0.894,-0.894,-0.894,-0.894,-0.894,-0.894,-0.894,-0.894,-0.894,-0.894,-0.894,-0.894,-0.894,-0.894,-0.894,-0.894,-0.894,-0.894,-0.894,-0.894,0.4718,0.4772,0.5021,0.5507,0.5309,0.534,0.6379,0.6364,0.6322,0.6959,0.7139,0.7058,0.7078,0.6811,0.6548,0.6215,0.2688,0.0,0.0,0.0,0.0,0.0,0.0,0.0,0.0,0.0,0.0,0.0,0.0,0.0,0.0,0.0,0.0,0.0,0.0,0.0,0.0,0.0,0.0,0.0,0.0,0.0,0.0,0.0,0.0,0.0,0.0,0.0,0.0,0.0,0.0,-0.0,-0.0404,-0.3641,-0.8036,-0.7965,-0.8038,-0.8038,-0.8038,-0.8038,-0.8041,-0.8244,-0.8247,-0.8345,-0.8551,-0.8649,-0.8712,-0.8826,-0.8826,-0.883,-0.8843,-0.8947,-0.894,-0.894,-0.894,-0.894,-0.894,-0.894,-0.894,-0.894,-0.894,-0.894,-0.894,-0.894,-0.894,-0.894,-0.894,-0.894,-0.894,-0.894,-0.894,-0.894,-0.894,-0.894,-0.894,-0.894,-0.894,-0.894,-0.894,-0.894,-0.894,-0.894,-0.894,-0.894,-0.894,-0.894,-0.894,-0.894,-0.894,-0.894,-0.894,-0.894,0.5102,0.4895,0.491,0.578,0.5433,0.5243,0.6431,0.6325,0.6233,0.6959,0.7139,0.7143,0.7064,0.7068,0.7074,0.7104,0.4204,0.1519,0.0,0.0,0.0,0.0,0.0,0.0,0.0,0.0,0.0,0.0,0.0,0.0,0.0,0.0,0.0,0.0,0.0,0.0,0.0,0.0,0.0,0.0,0.0,0.0,0.0,0.0,0.0,0.0,0.0,0.0,0.0,0.0,0.0,-0.0101,-0.1617,-0.3644,-0.5984,-0.7453,-0.8038,-0.8038,-0.8038,-0.8038,-0.8041,-0.8244,-0.8374,-0.8485,-0.8633,-0.8712,-0.8826,-0.8937,-0.894,-0.894,-0.894,-0.894,-0.894,-0.894,-0.894,-0.894,-0.894,-0.894,-0.894,-0.894,-0.894,-0.894,-0.894,-0.894,-0.894,-0.894,-0.894,-0.894,-0.894,-0.894,-0.894,-0.894,-0.894,-0.894,-0.894,-0.894,-0.894,-0.894,-0.894,-0.894,-0.894,-0.894,-0.894,-0.894,-0.894,-0.894,-0.894,-0.894,-0.894,-0.894,-0.894,-0.894,0.5242,0.4879,0.4746,0.5765,0.5333,0.5006,0.6152,0.61,0.6081,0.6777,0.7061,0.7139,0.7139,0.7139,0.7058,0.7081,0.5636,0.3482,0.0,0.0,0.0,0.0,0.0,0.0,0.0,0.0,0.0,0.0,0.0,0.0,0.0,0.0,0.0,0.0,0.0,0.0,0.0,0.0,0.0,0.0,0.0,0.0,0.0,0.0,0.0,0.0,0.0,0.0,0.0,0.0,0.0,-0.0202,-0.2224,-0.3841,-0.5251,-0.7263,-0.7955,-0.8038,-0.8038,-0.8038,-0.8041,-0.8247,-0.8448,-0.8484,-0.8712,-0.8826,-0.883,-0.8279,-0.8501,-0.894,-0.894,-0.894,-0.894,-0.894,-0.894,-0.894,-0.894,-0.894,-0.894,-0.894,-0.894,-0.894,-0.894,-0.894,-0.894,-0.894,-0.894,-0.894,-0.894,-0.894,-0.894,-0.894,-0.894,-0.894,-0.894,-0.894,-0.894,-0.894,-0.894,-0.894,-0.894,-0.894,-0.894,-0.894,-0.894,-0.894,-0.894,-0.894,-0.894,-0.894,-0.894,-0.894,0.482,0.471,0.4589,0.505,0.4681,0.4442,0.5301,0.5463,0.5645,0.6358,0.6844,0.7139,0.7139,0.7139,0.7058,0.7081,0.6992,0.5277,0.0,0.0,0.0,0.0,0.0,0.0,0.0,0.0,0.0,0.0,0.0,0.0,0.0,0.0,0.0,0.0,0.0,0.0,0.0,0.0,0.0,0.0,0.0,0.0,0.0,0.0,0.0,0.0,0.0,0.0,0.0,0.0,0.0,-0.0,-0.0202,-0.332,-0.7849,-0.7925,-0.8006,-0.8038,-0.8038,-0.8038,-0.8041,-0.835,-0.8448,-0.8595,-0.8826,-0.8937,-0.8501,-0.6634,-0.7513,-0.894,-0.894,-0.894,-0.894,-0.894,-0.894,-0.894,-0.894,-0.894,-0.894,-0.894,-0.894,-0.894,-0.894,-0.894,-0.894,-0.894,-0.894,-0.894,-0.894,-0.894,-0.894,-0.894,-0.894,-0.894,-0.894,-0.894,-0.894,-0.894,-0.894,-0.894,-0.894,-0.894,-0.894,-0.894,-0.894,-0.894,-0.894,-0.894,-0.894,-0.894,-0.894,-0.894,0.4919,0.4521,0.4327,0.496,0.4454,0.4112,0.5158,0.541,0.552,0.5976,0.6627,0.7051,0.6763,0.6946,0.7143,0.7061,0.7074,0.6542,0.0,0.0,0.0,0.0,0.0,0.0,0.0,0.0,0.0,0.0,0.0,0.0,0.0,0.0,0.0,0.0,0.0,0.0,0.0,0.0,0.0,0.0,0.0,0.0,0.0,0.0,0.0,0.0,0.0,0.0,0.0,0.0,0.0,0.0,0.0,-0.2219,-0.5651,-0.7372,-0.7962,-0.8038,-0.8038,-0.8038,-0.8041,-0.835,-0.8448,-0.8484,-0.8826,-0.8863,-0.845,-0.6532,-0.7404,-0.894,-0.894,-0.894,-0.894,-0.894,-0.894,-0.894,-0.894,-0.894,-0.894,-0.894,-0.894,-0.894,-0.894,-0.894,-0.894,-0.894,-0.894,-0.894,-0.894,-0.894,-0.894,-0.894,-0.894,-0.894,-0.894,-0.894,-0.894,-0.894,-0.894,-0.894,-0.894,-0.894,-0.894,-0.894,-0.894,-0.894,-0.894,-0.894,-0.894,-0.894,-0.894,-0.894,0.486,0.4407,0.4101,0.4595,0.4176,0.3835,0.4755,0.5199,0.5447,0.5739,0.6515,0.7048,0.6753,0.6939,0.7139,0.7139,0.7064,0.7078,0.7094,0.0,0.0,0.0,0.0,0.0,0.0,0.0,0.0,0.0,0.0,0.0,0.0,0.0,0.0,0.0,0.0,0.0,0.0,0.0,0.0,0.0,0.0,0.0,0.0,0.0,0.0,0.0,0.0,0.0,0.0,0.0,-0.1111,-0.2726,-0.2726,-0.3739,-0.556,-0.7347,-0.8038,-0.8038,-0.8038,-0.8038,-0.8041,-0.835,-0.8448,-0.8263,-0.806,-0.7874,-0.7791,-0.7195,-0.7952,-0.894,-0.894,-0.894,-0.894,-0.894,-0.894,-0.894,-0.894,-0.894,-0.894,-0.894,-0.894,-0.894,-0.894,-0.894,-0.894,-0.894,-0.894,-0.894,-0.894,-0.894,-0.894,-0.894,-0.894,-0.894,-0.894,-0.894,-0.894,-0.894,-0.894,-0.894,-0.894,-0.894,-0.894,-0.894,-0.894,-0.894,-0.894,-0.894,-0.894,-0.894,-0.894,-0.894,0.0,0.0,0.0,0.3987,0.381,0.368,0.3915,0.471,0.5423,0.5722,0.6495,0.7122,0.7122,0.7132,0.7139,0.7139,0.7139,0.7061,0.7081,0.0,0.0,0.0,0.0,0.0,0.0,0.0,0.0,0.0,0.0,0.0,0.0,0.0,0.0,0.0,0.0,0.0,0.0,0.0,0.0,0.0,0.0,0.0,0.0,0.0,0.0,0.0,0.0,0.0,0.0,0.0,-0.3131,-0.8026,-0.8022,-0.8009,-0.7985,-0.7952,-0.8038,-0.8038,-0.8038,-0.8038,-0.8041,-0.835,-0.8448,-0.8159,-0.6631,-0.6081,-0.6522,-0.8393,-0.894,-0.894,-0.894,-0.894,-0.894,-0.894,-0.894,-0.894,-0.894,-0.894,-0.894,-0.894,-0.894,-0.894,-0.894,-0.894,-0.894,-0.894,-0.894,-0.894,-0.894,-0.894,-0.894,-0.894,-0.894,-0.894,-0.894,-0.894,-0.894,-0.894,-0.894,-0.894,-0.894,-0.894,-0.894,-0.894,-0.894,-0.894,-0.894,-0.894,-0.894,-0.894,-0.894,-0.9061,0.4519,0.0,0.0,0.0,0.0,0.0,0.3936,0.448,0.4962,0.5257,0.603,0.6658,0.6658,0.6922,0.7139,0.7139,0.7139,0.7061,0.7094,0.0,0.0,0.0,0.0,0.0,0.0,0.0,0.0,0.0,0.0,0.0,0.0,0.0,0.0,0.0,0.0,0.0,0.0,0.0,0.0,0.0,0.0,0.0,0.0,0.0,0.0,0.0,0.0,0.0,0.0,0.0,-0.3131,-0.8022,-0.7999,-0.7989,-0.7985,-0.7952,-0.8038,-0.8038,-0.8038,-0.8038,-0.8041,-0.835,-0.8556,-0.8488,-0.8168,-0.806,-0.8171,-0.8719,-0.894,-0.894,-0.894,-0.894,-0.894,-0.894,-0.894,-0.894,-0.894,-0.894,-0.894,-0.894,-0.894,-0.894,-0.894,-0.894,-0.894,-0.894,-0.894,-0.894,-0.894,-0.894,-0.894,-0.894,-0.894,-0.894,-0.894,-0.894,-0.894,-0.894,-0.894,-0.894,-0.894,-0.894,-0.894,-0.894,-0.894,-0.894,-0.894,-0.894,-0.894,-0.894,-0.9054,-0.9171,0.4519,0.429,0.4087,0.4017,0.0,0.0,0.3965,0.4511,0.5053,0.5348,0.6125,0.6695,0.6508,0.6685,0.6861,0.6861,0.6861,0.6936,0.7054,0.0,0.0,0.0,0.0,0.0,0.0,0.0,0.0,0.0,0.0,0.0,0.0,0.0,0.0,0.0,0.0,0.0,0.0,0.0,0.0,0.0,0.0,0.0,0.0,0.0,0.0,0.0,0.0,0.0,0.0,0.0,-0.2521,-0.6464,-0.7575,-0.7975,-0.7965,-0.8045,-0.8038,-0.8038,-0.8038,-0.8038,-0.8041,-0.835,-0.8556,-0.8598,-0.8826,-0.894,-0.894,-0.894,-0.894,-0.894,-0.894,-0.894,-0.894,-0.894,-0.894,-0.894,-0.894,-0.894,-0.894,-0.894,-0.894,-0.894,-0.894,-0.894,-0.894,-0.894,-0.894,-0.894,-0.894,-0.894,-0.894,-0.894,-0.894,-0.894,-0.894,-0.894,-0.894,-0.894,-0.894,-0.894,-0.894,-0.894,-0.894,-0.894,-0.894,-0.894,-0.9054,-0.894,-0.894,-0.9058,-0.9308,-0.9372,0.4519,0.4358,0.4164,0.403,0.3941,0.0,0.4016,0.4677,0.5352,0.5661,0.6363,0.681,0.6461,0.6396,0.6396,0.6396,0.6396,0.6549,0.6897,0.5235,0.0,0.0,0.0,0.0,0.0,0.0,0.0,0.0,0.0,0.0,0.0,0.0,0.0,0.0,0.0,0.0,0.0,0.0,0.0,0.0,0.0,0.0,0.0,0.0,0.0,0.0,0.0,0.0,-0.0,-0.0606,-0.2115,-0.4218,-0.6962,-0.7969,-0.8038,-0.8038,-0.8038,-0.8038,-0.8038,-0.8038,-0.8041,-0.835,-0.8448,-0.8598,-0.8826,-0.894,-0.894,-0.894,-0.894,-0.894,-0.894,-0.894,-0.894,-0.894,-0.894,-0.894,-0.894,-0.894,-0.894,-0.894,-0.894,-0.894,-0.894,-0.894,-0.894,-0.894,-0.894,-0.894,-0.894,-0.894,-0.894,-0.894,-0.894,-0.894,-0.894,-0.894,-0.894,-0.894,-0.894,-0.894,-0.894,-0.894,-0.894,-0.894,-0.894,-0.9051,-0.9168,-0.9054,-0.9085,-0.9279,-0.9456,-0.9572,0.4519,0.4358,0.4187,0.0,0.413,0.0,0.4143,0.4429,0.4755,0.5176,0.5399,0.5606,0.5881,0.5932,0.5932,0.5932,0.5932,0.5976,0.6152,0.6351,0.0,0.0,0.0,0.0,0.0,0.0,0.0,0.0,0.0,0.0,0.0,0.0,0.0,0.0,0.0,0.0,0.0,0.0,0.0,0.0,0.0,0.0,0.0,0.0,0.0,0.0,0.0,0.0,-0.0303,-0.4649,-0.545,-0.4218,-0.6962,-0.7969,-0.8038,-0.8038,-0.8038,-0.8038,-0.8038,-0.8038,-0.8041,-0.8247,-0.8448,-0.8598,-0.8826,-0.894,-0.894,-0.894,-0.894,-0.894,-0.894,-0.894,-0.894,-0.894,-0.894,-0.894,-0.894,-0.894,-0.894,-0.894,-0.894,-0.894,-0.894,-0.894,-0.894,-0.894,-0.894,-0.894,-0.894,-0.894,-0.894,-0.894,-0.894,-0.894,-0.894,-0.894,-0.894,-0.894,-0.894,-0.894,-0.894,-0.894,-0.894,-0.894,-0.894,-0.9051,-0.9168,-0.9168,-0.9301,-0.953,-0.9523,-0.9694,0.0,0.0,0.0,0.4487,0.0,0.0,0.0,0.464,0.488,0.5186,0.5362,0.5467,0.5467,0.5467,0.5467,0.5467,0.5406,0.5416,0.5517,0.593,0.5537,0.0,0.0,0.0,0.0,0.0,0.0,0.0,0.0,0.0,0.0,0.0,0.0,0.0,0.0,0.0,0.0,0.0,0.0,0.0,0.0,0.0,0.0,0.0,0.0,0.0,0.0,0.0,-0.0404,-0.577,-0.7187,-0.6145,-0.7469,-0.7965,-0.8038,-0.8038,-0.8038,-0.8038,-0.8038,-0.8038,-0.8048,-0.8192,-0.8412,-0.8601,-0.8749,-0.8826,-0.894,-0.894,-0.894,-0.894,-0.894,-0.894,-0.894,-0.894,-0.894,-0.894,-0.894,-0.894,-0.894,-0.894,-0.894,-0.894,-0.894,-0.894,-0.894,-0.894,-0.894,-0.894,-0.894,-0.894,-0.894,-0.894,-0.894,-0.894,-0.894,-0.894,-0.894,-0.894,-0.894,-0.894,-0.894,-0.894,-0.894,-0.894,-0.9051,-0.9168,-0.9282,-0.9353,-0.9412,-0.9572,-0.9694,-0.9697,0.0,0.0,0.0,0.0,0.0,0.4769,0.0,0.0,0.0,0.522,0.542,0.5467,0.5074,0.5003,0.0,0.0,0.0,0.0,0.0,0.5056,0.0,0.0,0.0,0.0,0.0,0.0,0.0,0.0,0.0,0.0,0.0,0.0,0.0,0.0,0.0,0.0,0.0,0.0,0.0,0.0,0.0,0.0,0.0,0.0,0.0,0.0,0.0,-0.0606,-0.1817,-0.5663,-0.7491,-0.7985,-0.7975,-0.7959,-0.8038,-0.8038,-0.8038,-0.8038,-0.8038,-0.8038,-0.8052,-0.822,-0.8428,-0.8605,-0.8702,-0.8826,-0.894,-0.894,-0.894,-0.894,-0.894,-0.894,-0.894,-0.894,-0.894,-0.894,-0.894,-0.894,-0.894,-0.894,-0.894,-0.894,-0.894,-0.894,-0.894,-0.894,-0.894,-0.894,-0.894,-0.894,-0.894,-0.894,-0.894,-0.894,-0.894,-0.894,-0.894,-0.894,-0.894,-0.894,-0.894,-0.894,-0.894,-0.894,-0.9165,-0.9227,-0.9458,-0.9588,-0.9572,-0.9694,-0.9697,-0.9822,0.0,0.0,0.0,0.0,0.4989,0.0,0.0,0.0,0.506,0.4816,0.0,0.4758,0.4572,0.0,0.0,0.0,0.0,0.0,0.4163,0.4394,0.4443,0.4043,0.0,0.0,0.0,0.0,0.0,0.0,0.0,0.0,0.0,0.0,0.0,0.0,0.0,0.0,0.0,0.0,0.0,0.0,0.0,0.0,0.0,0.0,0.0,0.0,0.0,-0.2726,-0.6995,-0.5138,-0.5837,-0.7975,-0.7972,-0.7959,-0.8038,-0.8038,-0.8038,-0.8038,-0.8038,-0.8038,-0.8041,-0.8052,-0.8414,-0.8862,-0.892,-0.8937,-0.894,-0.894,-0.894,-0.894,-0.894,-0.894,-0.894,-0.894,-0.894,-0.894,-0.894,-0.894,-0.894,-0.894,-0.894,-0.894,-0.894,-0.894,-0.894,-0.894,-0.894,-0.894,-0.894,-0.894,-0.894,-0.894,-0.894,-0.894,-0.894,-0.894,-0.894,-0.894,-0.894,-0.894,-0.894,-0.894,-0.894,-0.9168,-0.9168,-0.9315,-0.9597,-0.9539,-0.9694,-0.9819,-0.9822,-0.9822,0.0,0.0,0.0,0.0,0.0,0.0,0.5443,0.0,0.5074,0.0,0.0,0.0,0.0,0.0,0.0,0.0,0.4368,0.0,0.0,0.0,0.3392,0.0,0.0,0.0,0.0,0.0,0.0,0.0,0.0,0.0,0.0,0.0,0.0,0.0,0.0,0.0,0.0,0.0,0.0,0.0,0.0,0.0,0.0,0.0,0.0,0.0,0.0,-0.303,-0.7918,-0.6768,-0.6956,-0.7972,-0.7959,-0.8048,-0.8038,-0.8038,-0.8038,-0.8038,-0.8038,-0.8038,-0.8048,-0.8203,-0.7759,-0.729,-0.8497,-0.894,-0.894,-0.894,-0.894,-0.894,-0.894,-0.894,-0.894,-0.894,-0.894,-0.894,-0.894,-0.894,-0.894,-0.894,-0.894,-0.894,-0.894,-0.894,-0.894,-0.894,-0.894,-0.894,-0.894,-0.894,-0.894,-0.894,-0.894,-0.894,-0.894,-0.894,-0.894,-0.894,-0.894,-0.894,-0.894,-0.894,-0.894,-0.9054,-0.9161,-0.9331,-0.9447,-0.9694,-0.9697,-0.9822,-0.9822,-0.9822,0.5857,0.0,0.0,0.0,0.0,0.0,0.0,0.0,0.0,0.0,0.0,0.0,0.0,0.0,0.4508,0.4426,0.0,0.3803,0.0,0.3324,0.0,0.0,0.0,0.0,0.0,0.0,0.0,0.0,0.0,0.0,0.0,0.0,0.0,0.0,0.0,0.0,0.0,0.0,0.0,0.0,0.0,0.0,0.0,0.0,0.0,0.0,0.0,-0.2623,-0.6983,-0.7688,-0.7979,-0.7962,-0.8045,-0.8038,-0.8038,-0.8038,-0.8038,-0.8038,-0.8038,-0.8041,-0.8185,-0.8543,-0.7696,-0.6847,-0.839,-0.894,-0.894,-0.894,-0.894,-0.894,-0.894,-0.894,-0.894,-0.894,-0.894,-0.894,-0.894,-0.894,-0.894,-0.894,-0.894,-0.894,-0.894,-0.894,-0.894,-0.894,-0.894,-0.894,-0.894,-0.894,-0.894,-0.894,-0.894,-0.894,-0.894,-0.9054,-0.9054,-0.9054,-0.9054,-0.9054,-0.894,-0.894,-0.9051,-0.9054,-0.9242,-0.9413,-0.9569,-0.9697,-0.9822,-0.9822,-0.9822,-0.9822,0.0,0.0,0.0,0.5874,0.0,0.0,0.0,0.0,0.5311,0.0,0.0,0.0,0.0,0.4562,0.4423,0.4237,0.3115,0.0,0.0,0.1592,0.0,0.0,0.0,0.0,0.0,0.0,0.0,0.0,0.0,0.0,0.0,0.0,0.0,0.0,0.0,0.0,0.0,0.0,0.0,0.0,0.0,0.0,0.0,0.0,0.0,0.0,0.0,-0.1611,-0.432,-0.6962,-0.7969,-0.8041,-0.8038,-0.8038,-0.8038,-0.8038,-0.8038,-0.8038,-0.8038,-0.8244,-0.8564,-0.8818,-0.8876,-0.883,-0.8826,-0.894,-0.894,-0.894,-0.894,-0.894,-0.894,-0.894,-0.894,-0.894,-0.894,-0.894,-0.894,-0.894,-0.894,-0.894,-0.894,-0.894,-0.894,-0.894,-0.894,-0.894,-0.894,-0.894,-0.894,-0.894,-0.894,-0.894,-0.9054,-0.9168,-0.9168,-0.9282,-0.9396,-0.9396,-0.9396,-0.9282,-0.9168,-0.9168,-0.9282,-0.9396,-0.9418,-0.9488,-0.9822,-0.9822,-0.9822,-0.9822,-0.9822,-0.9822,0.0,0.0,0.6525,0.642,0.0,0.0,0.0,0.0,0.0,0.0,0.0,0.0,0.0,0.465,0.4572,0.444,0.3164,0.1946,0.0,0.0501,0.0,0.0,0.0,0.0,0.0,0.0,0.0,0.0,0.0,0.0,0.0,0.0,0.0,0.0,0.0,0.0,0.0,0.0,0.0,0.0,0.0,0.0,0.0,0.0,0.0,0.0,0.0,-0.1511,-0.4218,-0.6859,-0.7969,-0.8038,-0.8038,-0.8038,-0.8038,-0.8038,-0.8038,-0.8048,-0.8106,-0.8331,-0.8533,-0.8682,-0.8846,-0.894,-0.894,-0.894,-0.894,-0.894,-0.894,-0.894,-0.894,-0.894,-0.894,-0.894,-0.894,-0.894,-0.894,-0.894,-0.894,-0.894,-0.894,-0.894,-0.894,-0.894,-0.894,-0.894,-0.894,-0.894,-0.894,-0.894,-0.894,-0.894,-0.9054,-0.9216,-0.9248,-0.9281,-0.9402,-0.9402,-0.9402,-0.9402,-0.9281,-0.938,-0.9396,-0.9396,-0.9446,-0.9622,-0.9694,-0.9697,-0.9822,-0.9822,-0.9822,-0.9822,0.6807,0.6858,0.0,0.6725,0.6559,0.0,0.6285,0.0,0.0,0.0,0.0,0.0,0.0,0.4884,0.4769,0.4535,0.3188,0.1675,0.0,0.0,0.0,0.0,0.0,0.0,0.0,0.0,0.0,0.0,0.0,0.0,0.0,0.0,0.0,0.0,0.0,0.0,0.0,0.0,0.0,0.0,0.0,0.0,0.0,0.0,0.0,-0.0101,-0.2019,-0.3324,-0.4218,-0.6856,-0.7965,-0.8038,-0.8038,-0.8038,-0.8038,-0.8038,-0.8045,-0.7959,-0.7516,-0.7968,-0.8604,-0.8719,-0.8826,-0.894,-0.894,-0.894,-0.8852,-0.8744,-0.8828,-0.8826,-0.8826,-0.8826,-0.894,-0.894,-0.894,-0.894,-0.894,-0.894,-0.894,-0.894,-0.894,-0.894,-0.894,-0.894,-0.894,-0.894,-0.894,-0.894,-0.894,-0.894,-0.894,-0.9051,-0.9168,-0.9298,-0.9398,-0.9447,-0.9569,-0.9569,-0.9569,-0.9569,-0.9447,-0.9456,-0.9488,-0.9373,-0.9503,-0.9569,-0.9569,-0.9694,-0.9697,-0.9697,-0.9819,-0.9822]}]]